Darstellungsparameter: Aktuell verwendete Einstellungen:
Skalierung der Graphiken ... ?
xyx+y,   Skalierungsfaktor:      Skalierung: Modus: x, Faktor: 1
Darstellungszeitraum ... ?
Vom - - bis: - -   Zeitraum: 16.08.2018 - 15.02.2019
Min/Max/Avg-Anzeige ... ?
Zeige MMA aktuell
Zeige MMA Monat
Zeige MMA alles
Zeige --A aktuell
Zeige --A Monat
Zeige --A alles
Keine MMA-Anzeige
MMA:
Minimum Maximum Average (ber die Originaldaten)
MMA-Basis: 16.08.2018 - 15.02.2019
Quicknavigation für Darstellung... ?
Tage:      1T, 2T, 3T, 5T -1T -2T -3T -5T +1T +2T +3T +5T
Wochen: 1W, 2W, 3W -1W -2W -3W +1W +2W +3W
Monate: 1M, 3M, 6M -1M -3M -6M +1M +3M +6M
Jahre:    1J, 3J, 5J, 10J -1J -3J -5J -10J +1J +3J +5J +10J
Nutze für die Darstellung ... ?
Originaldaten oder ...
Mittelwerte Minima Maxima auf...
Stundenbasis Tagesbasis Wochenbasis
Monatsbasis Jahresbasis      Datenbasis: Mittelwerte auf Stundenbasis
Darstellen als:
Statistik (Auto) Statistik J:M      Darstellung:
Zur Graphik,    zurück zur Übersicht aller Sensoren.
 
Tabellarische Datenbersicht: ?
 
Sensor: Nr:Datum:Temp:Feuchte:Taupunkt:
Aussen-T/F 1 16-08-2018 00:00:00 16.33333 C 85.4167 % 13.88 C
2 16-08-2018 01:00:00 15.46667 C 87.6667 % 13.43 C
3 16-08-2018 02:00:00 14.86667 C 89.2500 % 13.11 C
4 16-08-2018 03:00:00 14.35 C 90.2500 % 12.77 C
5 16-08-2018 04:00:00 13.96667 C 91.1667 % 12.55 C
6 16-08-2018 05:00:00 13.375 C 91.9167 % 12.09 C
7 16-08-2018 06:00:00 12.89167 C 92.5000 % 11.71 C
8 16-08-2018 07:00:00 12.88333 C 93.1667 % 11.81 C
9 16-08-2018 08:00:00 13.43333 C 94.0000 % 12.49 C
10 16-08-2018 09:00:00 14.43333 C 94.0833 % 13.49 C
11 16-08-2018 10:00:00 16.24167 C 93.5833 % 15.21 C
12 16-08-2018 11:00:00 19.475 C 81.2500 % 16.18 C
13 16-08-2018 12:00:00 22.95 C 64.8333 % 15.98 C
14 16-08-2018 13:00:00 25.06667 C 56.0833 % 15.7 C
15 16-08-2018 14:00:00 26.875 C 49.2500 % 15.34 C
16 16-08-2018 15:00:00 28.78333 C 43.3333 % 15.08 C
17 16-08-2018 16:00:00 30.88333 C 37.5000 % 14.71 C
18 16-08-2018 17:00:00 32.225 C 33.7500 % 14.25 C
19 16-08-2018 18:00:00 32.775 C 35.5833 % 15.56 C
20 16-08-2018 19:00:00 30.9 C 44.4167 % 17.37 C
21 16-08-2018 20:00:00 26.20833 C 54.1667 % 16.21 C
22 16-08-2018 21:00:00 22.55 C 63.0000 % 15.15 C
23 16-08-2018 22:00:00 20.75 C 68.7500 % 14.8 C
24 16-08-2018 23:00:00 20.18333 C 75.6667 % 15.75 C
25 17-08-2018 00:00:00 18.86667 C 79.7500 % 15.29 C
Sensor: Nr:Datum:Temp:Feuchte:Taupunkt:
Aussen-T/F 26 17-08-2018 01:00:00 17.65 C 83.5000 % 14.82 C
27 17-08-2018 02:00:00 16.95833 C 85.5000 % 14.51 C
28 17-08-2018 03:00:00 16.24167 C 87.4167 % 14.15 C
29 17-08-2018 04:00:00 15.925 C 88.1667 % 13.97 C
30 17-08-2018 05:00:00 16.025 C 89.1667 % 14.24 C
31 17-08-2018 06:00:00 17.075 C 86.7500 % 14.85 C
32 17-08-2018 07:00:00 17.63333 C 86.0000 % 15.26 C
33 17-08-2018 08:00:00 18.14167 C 85.0000 % 15.58 C
34 17-08-2018 09:00:00 19.21667 C 81.3333 % 15.94 C
35 17-08-2018 10:00:00 20.33333 C 76.7500 % 16.12 C
36 17-08-2018 11:00:00 21.775 C 71.9167 % 16.49 C
37 17-08-2018 12:00:00 23.425 C 66.7500 % 16.89 C
38 17-08-2018 13:00:00 23.66667 C 66.0000 % 16.94 C
39 17-08-2018 14:00:00 23.94167 C 65.6667 % 17.12 C
40 17-08-2018 15:00:00 23.675 C 65.0000 % 16.71 C
41 17-08-2018 16:00:00 23.30833 C 64.6667 % 16.28 C
42 17-08-2018 17:00:00 22.575 C 67.4167 % 16.24 C
43 17-08-2018 18:00:00 22.15833 C 68.8333 % 16.16 C
44 17-08-2018 19:00:00 21.675 C 68.6667 % 15.67 C
45 17-08-2018 20:00:00 21.03333 C 68.6667 % 15.05 C
46 17-08-2018 21:00:00 18.775 C 76.3333 % 14.53 C
47 17-08-2018 22:00:00 17.49167 C 79.7500 % 13.96 C
48 17-08-2018 23:00:00 16.65 C 80.9167 % 13.36 C
49 18-08-2018 00:00:00 15.74167 C 83.1667 % 12.89 C
50 18-08-2018 01:00:00 14.80833 C 86.1667 % 12.52 C
Sensor: Nr:Datum:Temp:Feuchte:Taupunkt:
Aussen-T/F 51 18-08-2018 02:00:00 14.125 C 87.5833 % 12.1 C
52 18-08-2018 03:00:00 13.5 C 88.9167 % 11.71 C
53 18-08-2018 04:00:00 12.86667 C 90.0833 % 11.28 C
54 18-08-2018 05:00:00 12.50833 C 91.1667 % 11.11 C
55 18-08-2018 06:00:00 12.025 C 91.5833 % 10.7 C
56 18-08-2018 07:00:00 12.03333 C 92.5000 % 10.86 C
57 18-08-2018 08:00:00 12.49167 C 93.0000 % 11.39 C
58 18-08-2018 09:00:00 13.61667 C 93.0000 % 12.51 C
59 18-08-2018 10:00:00 15.65833 C 88.1667 % 13.71 C
60 18-08-2018 11:00:00 18.7 C 73.8333 % 13.94 C
61 18-08-2018 12:00:00 21.05833 C 59.5000 % 12.87 C
62 18-08-2018 13:00:00 22.25833 C 53.2500 % 12.3 C
63 18-08-2018 14:00:00 23.625 C 46.7500 % 11.58 C
64 18-08-2018 15:00:00 25.00833 C 42.9167 % 11.54 C
65 18-08-2018 16:00:00 27.13333 C 38.2500 % 11.69 C
66 18-08-2018 17:00:00 27.75 C 36.0000 % 11.32 C
67 18-08-2018 18:00:00 28.23333 C 34.6667 % 11.18 C
68 18-08-2018 19:00:00 27.325 C 38.4167 % 11.93 C
69 18-08-2018 20:00:00 24.3 C 46.9167 % 12.24 C
70 18-08-2018 21:00:00 20.975 C 58.7500 % 12.6 C
71 18-08-2018 22:00:00 19.325 C 65.5833 % 12.72 C
72 18-08-2018 23:00:00 18.24167 C 69.4167 % 12.55 C
73 19-08-2018 00:00:00 16.575 C 75.3333 % 12.2 C
74 19-08-2018 01:00:00 15.2 C 79.9167 % 11.76 C
75 19-08-2018 02:00:00 14.35 C 83.0833 % 11.52 C
Sensor: Nr:Datum:Temp:Feuchte:Taupunkt:
Aussen-T/F 76 19-08-2018 03:00:00 13.96667 C 85.5833 % 11.59 C
77 19-08-2018 04:00:00 13.425 C 87.5833 % 11.41 C
78 19-08-2018 05:00:00 13.075 C 89.0000 % 11.3 C
79 19-08-2018 06:00:00 12.56667 C 90.0000 % 10.97 C
80 19-08-2018 07:00:00 12.65833 C 91.0000 % 11.23 C
81 19-08-2018 08:00:00 13.14167 C 91.0000 % 11.71 C
82 19-08-2018 09:00:00 14.68333 C 90.0833 % 13.08 C
83 19-08-2018 10:00:00 17.16667 C 83.7500 % 14.4 C
84 19-08-2018 11:00:00 20.03333 C 71.8333 % 14.8 C
85 19-08-2018 12:00:00 23.05833 C 58.5833 % 14.5 C
86 19-08-2018 13:00:00 24.99167 C 50.2500 % 13.93 C
87 19-08-2018 14:00:00 26.31667 C 45.8333 % 13.72 C
88 19-08-2018 15:00:00 27.925 C 43.5000 % 14.37 C
89 19-08-2018 16:00:00 29.95 C 40.0833 % 14.91 C
90 19-08-2018 17:00:00 30.8 C 36.5833 % 14.25 C
91 19-08-2018 18:00:00 30.48333 C 36.5833 % 13.97 C
92 19-08-2018 19:00:00 28.60833 C 41.7500 % 14.35 C
93 19-08-2018 20:00:00 25.8 C 48.9167 % 14.25 C
94 19-08-2018 21:00:00 22.49167 C 57.3333 % 13.64 C
95 19-08-2018 22:00:00 20.88333 C 66.2500 % 14.36 C
96 19-08-2018 23:00:00 19.175 C 74.0833 % 14.45 C
97 20-08-2018 00:00:00 18.08333 C 76.9167 % 13.97 C
98 20-08-2018 01:00:00 17.54167 C 78.7500 % 13.81 C
99 20-08-2018 02:00:00 17.20833 C 79.8333 % 13.7 C
100 20-08-2018 03:00:00 16.88333 C 81.1667 % 13.64 C
Sensor: Nr:Datum:Temp:Feuchte:Taupunkt:
Aussen-T/F 101 20-08-2018 04:00:00 16.125 C 83.7500 % 13.38 C
102 20-08-2018 05:00:00 15.90833 C 85.5833 % 13.5 C
103 20-08-2018 06:00:00 15.76667 C 85.8333 % 13.4 C
104 20-08-2018 07:00:00 16.56667 C 85.0833 % 14.05 C
105 20-08-2018 08:00:00 17.65833 C 83.0833 % 14.75 C
106 20-08-2018 09:00:00 18.46667 C 83.2500 % 15.57 C
107 20-08-2018 10:00:00 20.825 C 76.7500 % 16.59 C
108 20-08-2018 11:00:00 22.75833 C 70.1667 % 17.04 C
109 20-08-2018 12:00:00 24.025 C 65.1667 % 17.08 C
110 20-08-2018 13:00:00 24.675 C 60.3333 % 16.48 C
111 20-08-2018 14:00:00 25.21667 C 58.3333 % 16.46 C
112 20-08-2018 15:00:00 26 C 58.3333 % 17.19 C
113 20-08-2018 16:00:00 25.6 C 60.5833 % 17.41 C
114 20-08-2018 17:00:00 25.50833 C 61.5000 % 17.56 C
115 20-08-2018 18:00:00 24.49167 C 66.2500 % 17.78 C
116 20-08-2018 19:00:00 23.95833 C 67.0833 % 17.47 C
117 20-08-2018 20:00:00 22.85833 C 70.0000 % 17.1 C
118 20-08-2018 21:00:00 21.98333 C 73.1667 % 16.96 C
119 20-08-2018 22:00:00 21.34167 C 76.3333 % 17.01 C
120 20-08-2018 23:00:00 20.81667 C 79.0000 % 17.04 C
121 21-08-2018 00:00:00 19.66667 C 83.5833 % 16.81 C
122 21-08-2018 01:00:00 19.5 C 81.9167 % 16.33 C
123 21-08-2018 02:00:00 19 C 82.4167 % 15.94 C
124 21-08-2018 03:00:00 18.425 C 84.8333 % 15.83 C
125 21-08-2018 04:00:00 17.83333 C 86.7500 % 15.6 C
Sensor: Nr:Datum:Temp:Feuchte:Taupunkt:
Aussen-T/F 126 21-08-2018 05:00:00 16.90833 C 88.4167 % 14.98 C
127 21-08-2018 06:00:00 16.10833 C 90.4167 % 14.54 C
128 21-08-2018 07:00:00 16.11667 C 91.7500 % 14.77 C
129 21-08-2018 08:00:00 16.86667 C 92.1667 % 15.59 C
130 21-08-2018 09:00:00 18.41667 C 90.5833 % 16.85 C
131 21-08-2018 10:00:00 20.425 C 82.5833 % 17.36 C
132 21-08-2018 11:00:00 22.89167 C 70.0833 % 17.15 C
133 21-08-2018 12:00:00 24.15833 C 61.6667 % 16.34 C
134 21-08-2018 13:00:00 25.225 C 57.0833 % 16.12 C
135 21-08-2018 14:00:00 26.53333 C 51.8333 % 15.82 C
136 21-08-2018 15:00:00 27.35833 C 47.0000 % 15.05 C
137 21-08-2018 16:00:00 27.775 C 46.0000 % 15.1 C
138 21-08-2018 17:00:00 27.96667 C 45.0833 % 14.96 C
139 21-08-2018 18:00:00 29.5 C 43.6667 % 15.84 C
140 21-08-2018 19:00:00 27.39167 C 50.0833 % 16.08 C
141 21-08-2018 20:00:00 24.65 C 60.0000 % 16.37 C
142 21-08-2018 21:00:00 22.54167 C 66.5000 % 15.99 C
143 21-08-2018 22:00:00 21.65833 C 69.0833 % 15.74 C
144 21-08-2018 23:00:00 20.35833 C 72.1667 % 15.18 C
145 22-08-2018 00:00:00 19.94167 C 74.2500 % 15.22 C
146 22-08-2018 01:00:00 18.975 C 76.3333 % 14.72 C
147 22-08-2018 02:00:00 17.81667 C 80.5833 % 14.43 C
148 22-08-2018 03:00:00 16.85 C 84.0000 % 14.13 C
149 22-08-2018 04:00:00 16.03333 C 86.1667 % 13.72 C
150 22-08-2018 05:00:00 15.48333 C 87.3333 % 13.39 C
Sensor: Nr:Datum:Temp:Feuchte:Taupunkt:
Aussen-T/F 151 22-08-2018 06:00:00 15.225 C 88.5000 % 13.34 C
152 22-08-2018 07:00:00 15.30833 C 89.8333 % 13.65 C
153 22-08-2018 08:00:00 16.08333 C 90.0000 % 14.44 C
154 22-08-2018 09:00:00 17.51667 C 88.5000 % 15.6 C
155 22-08-2018 10:00:00 19.925 C 81.5000 % 16.66 C
156 22-08-2018 11:00:00 22.675 C 70.7500 % 17.09 C
157 22-08-2018 12:00:00 25.625 C 59.0833 % 17.04 C
158 22-08-2018 13:00:00 28.14167 C 49.5000 % 16.58 C
159 22-08-2018 14:00:00 30.025 C 41.8333 % 15.65 C
160 22-08-2018 15:00:00 31.55833 C 36.0833 % 14.71 C
161 22-08-2018 16:00:00 33.18333 C 34.1667 % 15.28 C
162 22-08-2018 17:00:00 34.04167 C 32.9167 % 15.45 C
163 22-08-2018 18:00:00 32.99167 C 35.7500 % 15.82 C
164 22-08-2018 19:00:00 30.86667 C 42.3333 % 16.59 C
165 22-08-2018 20:00:00 28.08333 C 51.1667 % 17.05 C
166 22-08-2018 21:00:00 25.40833 C 60.0000 % 17.08 C
167 22-08-2018 22:00:00 23.8 C 66.0833 % 17.09 C
168 22-08-2018 23:00:00 22.38333 C 71.3333 % 16.94 C
169 23-08-2018 00:00:00 21.23333 C 75.5000 % 16.73 C
170 23-08-2018 01:00:00 20.06667 C 78.8333 % 16.28 C
171 23-08-2018 02:00:00 19.26667 C 81.3333 % 15.99 C
172 23-08-2018 03:00:00 18.575 C 83.5833 % 15.74 C
173 23-08-2018 04:00:00 17.475 C 86.4167 % 15.18 C
174 23-08-2018 05:00:00 16.69167 C 89.0000 % 14.87 C
175 23-08-2018 06:00:00 16.33333 C 90.3333 % 14.75 C
Sensor: Nr:Datum:Temp:Feuchte:Taupunkt:
Aussen-T/F 176 23-08-2018 07:00:00 16.20833 C 91.0833 % 14.75 C
177 23-08-2018 08:00:00 16.91667 C 91.0833 % 15.45 C
178 23-08-2018 09:00:00 18.60833 C 86.9167 % 16.39 C
179 23-08-2018 10:00:00 20.99167 C 80.6667 % 17.54 C
180 23-08-2018 11:00:00 23.44167 C 70.7500 % 17.82 C
181 23-08-2018 12:00:00 25.69167 C 57.8333 % 16.76 C
182 23-08-2018 13:00:00 27.79167 C 45.4167 % 14.91 C
183 23-08-2018 14:00:00 28.925 C 43.6667 % 15.33 C
184 23-08-2018 15:00:00 30 C 43.8333 % 16.35 C
185 23-08-2018 16:00:00 30.43333 C 43.1667 % 16.5 C
186 23-08-2018 17:00:00 30.09167 C 43.5833 % 16.35 C
187 23-08-2018 18:00:00 29.625 C 45.5833 % 16.63 C
188 23-08-2018 19:00:00 27.70833 C 52.6667 % 17.16 C
189 23-08-2018 20:00:00 25.79167 C 59.0833 % 17.19 C
190 23-08-2018 21:00:00 23.325 C 69.0833 % 17.34 C
191 23-08-2018 22:00:00 22.74167 C 72.2500 % 17.49 C
192 23-08-2018 23:00:00 21.35 C 75.9167 % 16.93 C
193 24-08-2018 00:00:00 20.825 C 76.9167 % 16.63 C
194 24-08-2018 01:00:00 21.1 C 75.5000 % 16.6 C
195 24-08-2018 02:00:00 20.08333 C 77.9167 % 16.11 C
196 24-08-2018 03:00:00 18.89167 C 81.2500 % 15.61 C
197 24-08-2018 04:00:00 18.175 C 83.0833 % 15.26 C
198 24-08-2018 05:00:00 17.625 C 82.5000 % 14.61 C
199 24-08-2018 06:00:00 17.525 C 77.1667 % 13.48 C
200 24-08-2018 07:00:00 17.74167 C 72.9167 % 12.82 C
Sensor: Nr:Datum:Temp:Feuchte:Taupunkt:
Aussen-T/F 201 24-08-2018 08:00:00 17.61667 C 74.5000 % 13.03 C
202 24-08-2018 09:00:00 16.725 C 83.9167 % 13.99 C
203 24-08-2018 10:00:00 17.13333 C 85.4167 % 14.67 C
204 24-08-2018 11:00:00 18.43333 C 79.4167 % 14.81 C
205 24-08-2018 12:00:00 19.81667 C 64.5833 % 12.95 C
206 24-08-2018 13:00:00 20.95833 C 56.5000 % 11.99 C
207 24-08-2018 14:00:00 20.63333 C 56.8333 % 11.78 C
208 24-08-2018 15:00:00 21.39167 C 51.7500 % 11.06 C
209 24-08-2018 16:00:00 21.18333 C 48.1667 % 9.8 C
210 24-08-2018 17:00:00 21.34167 C 45.7500 % 9.18 C
211 24-08-2018 18:00:00 21.05833 C 43.2500 % 8.09 C
212 24-08-2018 19:00:00 19.775 C 47.9167 % 8.43 C
213 24-08-2018 20:00:00 19.075 C 47.0000 % 7.51 C
214 24-08-2018 21:00:00 18.20833 C 47.3333 % 6.82 C
215 24-08-2018 22:00:00 16.43333 C 53.8333 % 7.06 C
216 24-08-2018 23:00:00 15.05833 C 59.9167 % 7.34 C
217 25-08-2018 00:00:00 14.38333 C 64.1667 % 7.71 C
218 25-08-2018 01:00:00 14.15 C 65.8333 % 7.86 C
219 25-08-2018 02:00:00 14.45833 C 65.6667 % 8.12 C
220 25-08-2018 03:00:00 14.79167 C 66.8333 % 8.69 C
221 25-08-2018 04:00:00 13.74167 C 72.5833 % 8.91 C
222 25-08-2018 05:00:00 13.86667 C 73.8333 % 9.28 C
223 25-08-2018 06:00:00 14.25833 C 74.1667 % 9.73 C
224 25-08-2018 07:00:00 13.875 C 78.7500 % 10.25 C
225 25-08-2018 08:00:00 13.275 C 85.0833 % 10.82 C
Sensor: Nr:Datum:Temp:Feuchte:Taupunkt:
Aussen-T/F 226 25-08-2018 09:00:00 13.50833 C 86.5833 % 11.32 C
227 25-08-2018 10:00:00 13.78333 C 80.3333 % 10.46 C
228 25-08-2018 11:00:00 14.825 C 69.0833 % 9.22 C
229 25-08-2018 12:00:00 16.04167 C 61.5833 % 8.67 C
230 25-08-2018 13:00:00 16.76667 C 56.0833 % 7.97 C
231 25-08-2018 14:00:00 16.825 C 57.5000 % 8.39 C
232 25-08-2018 15:00:00 17.725 C 52.9167 % 8.01 C
233 25-08-2018 16:00:00 17.95833 C 50.0833 % 7.42 C
234 25-08-2018 17:00:00 18.075 C 50.0833 % 7.53 C
235 25-08-2018 18:00:00 16.15833 C 63.6667 % 9.27 C
236 25-08-2018 19:00:00 14.36667 C 73.5000 % 9.7 C
237 25-08-2018 20:00:00 13.125 C 77.5000 % 9.28 C
238 25-08-2018 21:00:00 11.71667 C 81.5000 % 8.66 C
239 25-08-2018 22:00:00 10.6 C 83.9167 % 8 C
240 25-08-2018 23:00:00 10.325 C 85.0000 % 7.92 C
241 26-08-2018 00:00:00 10.00833 C 85.4167 % 7.68 C
242 26-08-2018 01:00:00 9.14167 C 87.3333 % 7.15 C
243 26-08-2018 02:00:00 8.74167 C 89.8333 % 7.17 C
244 26-08-2018 03:00:00 8.35 C 90.2500 % 6.85 C
245 26-08-2018 04:00:00 7.975 C 91.4167 % 6.66 C
246 26-08-2018 05:00:00 7.54167 C 91.1667 % 6.2 C
247 26-08-2018 06:00:00 6.925 C 91.9167 % 5.7 C
248 26-08-2018 07:00:00 7.00833 C 92.6667 % 5.9 C
249 26-08-2018 08:00:00 7.85833 C 93.0000 % 6.8 C
250 26-08-2018 09:00:00 9.025 C 93.0000 % 7.96 C
Sensor: Nr:Datum:Temp:Feuchte:Taupunkt:
Aussen-T/F 251 26-08-2018 10:00:00 11.175 C 89.3333 % 9.49 C
252 26-08-2018 11:00:00 14.18333 C 73.3333 % 9.49 C
253 26-08-2018 12:00:00 16.65833 C 54.7500 % 7.52 C
254 26-08-2018 13:00:00 18.15833 C 46.4167 % 6.49 C
255 26-08-2018 14:00:00 19.50833 C 42.1667 % 6.32 C
256 26-08-2018 15:00:00 20.53333 C 41.7500 % 7.1 C
257 26-08-2018 16:00:00 21.66667 C 38.9167 % 7.09 C
258 26-08-2018 17:00:00 21.75 C 38.0000 % 6.82 C
259 26-08-2018 18:00:00 21.09167 C 37.7500 % 6.14 C
260 26-08-2018 19:00:00 20.575 C 39.8333 % 6.46 C
261 26-08-2018 20:00:00 17.96667 C 49.0833 % 7.13 C
262 26-08-2018 21:00:00 15.33333 C 55.0000 % 6.35 C
263 26-08-2018 22:00:00 14.74167 C 57.5000 % 6.45 C
264 26-08-2018 23:00:00 15.41667 C 57.0833 % 6.97 C
265 27-08-2018 00:00:00 15.96667 C 56.1667 % 7.25 C
266 27-08-2018 01:00:00 16.74167 C 52.6667 % 7.03 C
267 27-08-2018 02:00:00 15.85 C 67.0833 % 9.76 C
268 27-08-2018 03:00:00 15.55833 C 66.4167 % 9.33 C
269 27-08-2018 04:00:00 16.04167 C 65.1667 % 9.51 C
270 27-08-2018 05:00:00 15.73333 C 65.5833 % 9.31 C
271 27-08-2018 06:00:00 15.54167 C 75.3333 % 11.2 C
272 27-08-2018 07:00:00 15.45 C 81.3333 % 12.27 C
273 27-08-2018 08:00:00 15.125 C 85.0000 % 12.62 C
274 27-08-2018 09:00:00 15.59167 C 82.9167 % 12.7 C
275 27-08-2018 10:00:00 16.15 C 81.3333 % 12.95 C
Sensor: Nr:Datum:Temp:Feuchte:Taupunkt:
Aussen-T/F 276 27-08-2018 11:00:00 17 C 80.0000 % 13.53 C
277 27-08-2018 12:00:00 18.24167 C 77.1667 % 14.18 C
278 27-08-2018 13:00:00 19.54167 C 73.9167 % 14.77 C
279 27-08-2018 14:00:00 20.18333 C 72.0833 % 14.99 C
280 27-08-2018 15:00:00 20.81667 C 71.5000 % 15.48 C
281 27-08-2018 16:00:00 21.61667 C 69.4167 % 15.78 C
282 27-08-2018 17:00:00 22.81667 C 65.6667 % 16.05 C
283 27-08-2018 18:00:00 23.39167 C 63.1667 % 15.99 C
284 27-08-2018 19:00:00 21.85 C 68.0833 % 15.7 C
285 27-08-2018 20:00:00 20.525 C 68.8333 % 14.61 C
286 27-08-2018 21:00:00 19.69167 C 62.6667 % 12.37 C
287 27-08-2018 22:00:00 18.70833 C 61.3333 % 11.12 C
288 27-08-2018 23:00:00 16.89167 C 70.7500 % 11.55 C
289 28-08-2018 00:00:00 15.83333 C 76.8333 % 11.78 C
290 28-08-2018 01:00:00 15.75833 C 77.0833 % 11.76 C
291 28-08-2018 02:00:00 15.55 C 77.7500 % 11.68 C
292 28-08-2018 03:00:00 13.95833 C 80.8333 % 10.72 C
293 28-08-2018 04:00:00 12.45833 C 85.3333 % 10.07 C
294 28-08-2018 05:00:00 12.45 C 87.4167 % 10.42 C
295 28-08-2018 06:00:00 12.8 C 86.0000 % 10.52 C
296 28-08-2018 07:00:00 13.06667 C 85.9167 % 10.77 C
297 28-08-2018 08:00:00 13.70833 C 83.5000 % 10.97 C
298 28-08-2018 09:00:00 14.34167 C 83.3333 % 11.56 C
299 28-08-2018 10:00:00 16.125 C 78.8333 % 12.45 C
300 28-08-2018 11:00:00 18.78333 C 66.9167 % 12.51 C
Sensor: Nr:Datum:Temp:Feuchte:Taupunkt:
Aussen-T/F 301 28-08-2018 12:00:00 19.84167 C 61.0000 % 12.11 C
302 28-08-2018 13:00:00 20.975 C 56.3333 % 11.96 C
303 28-08-2018 14:00:00 22.65 C 51.5000 % 12.15 C
304 28-08-2018 15:00:00 23.725 C 48.2500 % 12.15 C
305 28-08-2018 16:00:00 25.14167 C 44.5000 % 12.2 C
306 28-08-2018 17:00:00 26.425 C 41.2500 % 12.21 C
307 28-08-2018 18:00:00 26.16667 C 41.9167 % 12.22 C
308 28-08-2018 19:00:00 25.08333 C 47.0833 % 13.01 C
309 28-08-2018 20:00:00 20.14167 C 59.7500 % 12.07 C
310 28-08-2018 21:00:00 17.875 C 64.5000 % 11.09 C
311 28-08-2018 22:00:00 16.61667 C 67.3333 % 10.54 C
312 28-08-2018 23:00:00 15.625 C 70.7500 % 10.34 C
313 29-08-2018 00:00:00 14.59167 C 74.5833 % 10.13 C
314 29-08-2018 01:00:00 13.61667 C 78.5000 % 9.95 C
315 29-08-2018 02:00:00 12.575 C 82.1667 % 9.62 C
316 29-08-2018 03:00:00 11.58333 C 85.0000 % 9.15 C
317 29-08-2018 04:00:00 11.21667 C 87.0000 % 9.14 C
318 29-08-2018 05:00:00 10.725 C 87.7500 % 8.78 C
319 29-08-2018 06:00:00 10.23333 C 89.0833 % 8.52 C
320 29-08-2018 07:00:00 10.38333 C 90.2500 % 8.86 C
321 29-08-2018 08:00:00 11.025 C 90.1667 % 9.48 C
322 29-08-2018 09:00:00 12.2 C 89.7500 % 10.57 C
323 29-08-2018 10:00:00 14.88333 C 85.3333 % 12.45 C
324 29-08-2018 11:00:00 18.60833 C 71.5833 % 13.38 C
325 29-08-2018 12:00:00 22.99167 C 56.5833 % 13.91 C
Sensor: Nr:Datum:Temp:Feuchte:Taupunkt:
Aussen-T/F 326 29-08-2018 13:00:00 25.73333 C 49.9167 % 14.5 C
327 29-08-2018 14:00:00 26.95833 C 46.8333 % 14.63 C
328 29-08-2018 15:00:00 27.53333 C 47.4167 % 15.35 C
329 29-08-2018 16:00:00 21.79167 C 80.9167 % 18.37 C
330 29-08-2018 17:00:00 20.09167 C 89.0833 % 18.24 C
331 29-08-2018 18:00:00 22.125 C 85.4167 % 19.56 C
332 29-08-2018 19:00:00 20.36667 C 86.5833 % 18.05 C
333 29-08-2018 20:00:00 19.33333 C 90.4167 % 17.72 C
334 29-08-2018 21:00:00 18.16667 C 91.9167 % 16.83 C
335 29-08-2018 22:00:00 17.70833 C 93.4167 % 16.63 C
336 29-08-2018 23:00:00 17.29167 C 94.0000 % 16.32 C
337 30-08-2018 00:00:00 17.175 C 94.5833 % 16.3 C
338 30-08-2018 01:00:00 16.51667 C 94.0000 % 15.55 C
339 30-08-2018 02:00:00 15.93333 C 92.0000 % 14.64 C
340 30-08-2018 03:00:00 15.85833 C 91.0000 % 14.39 C
341 30-08-2018 04:00:00 15.60833 C 90.0000 % 13.97 C
342 30-08-2018 05:00:00 15.39167 C 89.5833 % 13.69 C
343 30-08-2018 06:00:00 15.14167 C 90.0000 % 13.51 C
344 30-08-2018 07:00:00 15.11667 C 89.7500 % 13.45 C
345 30-08-2018 08:00:00 15.56667 C 88.5000 % 13.67 C
346 30-08-2018 09:00:00 16.16667 C 86.2500 % 13.87 C
347 30-08-2018 10:00:00 16.925 C 82.0833 % 13.85 C
348 30-08-2018 11:00:00 17.69167 C 78.0000 % 13.81 C
349 30-08-2018 12:00:00 18.6 C 73.7500 % 13.83 C
350 30-08-2018 13:00:00 19.28333 C 64.5833 % 12.45 C
Sensor: Nr:Datum:Temp:Feuchte:Taupunkt:
Aussen-T/F 351 30-08-2018 14:00:00 19.775 C 61.0000 % 12.04 C
352 30-08-2018 15:00:00 20.53333 C 53.8333 % 10.86 C
353 30-08-2018 16:00:00 20.95 C 51.5833 % 10.61 C
354 30-08-2018 17:00:00 21.90833 C 47.5833 % 10.28 C
355 30-08-2018 18:00:00 21.34167 C 46.6667 % 9.47 C
356 30-08-2018 19:00:00 20.00833 C 48.4167 % 8.8 C
357 30-08-2018 20:00:00 17.11667 C 61.2500 % 9.6 C
358 30-08-2018 21:00:00 14.9 C 69.9167 % 9.47 C
359 30-08-2018 22:00:00 13.59167 C 76.4167 % 9.53 C
360 30-08-2018 23:00:00 12.36667 C 81.1667 % 9.23 C
361 31-08-2018 00:00:00 11.99167 C 83.4167 % 9.27 C
362 31-08-2018 01:00:00 11.43333 C 85.2500 % 9.05 C
363 31-08-2018 02:00:00 11.38333 C 87.0000 % 9.3 C
364 31-08-2018 03:00:00 11.25 C 87.7500 % 9.3 C
365 31-08-2018 04:00:00 11.175 C 88.6667 % 9.38 C
366 31-08-2018 05:00:00 11.03333 C 89.6667 % 9.4 C
367 31-08-2018 06:00:00 11.275 C 90.0000 % 9.7 C
368 31-08-2018 07:00:00 11.48333 C 90.4167 % 9.97 C
369 31-08-2018 08:00:00 12.30833 C 89.3333 % 10.61 C
370 31-08-2018 09:00:00 13.36667 C 85.5000 % 10.99 C
371 31-08-2018 10:00:00 14.825 C 81.6667 % 11.72 C
372 31-08-2018 11:00:00 16.24167 C 75.9167 % 11.99 C
373 31-08-2018 12:00:00 17.51667 C 68.3333 % 11.62 C
374 31-08-2018 13:00:00 18.55 C 61.1667 % 10.93 C
375 31-08-2018 14:00:00 19.325 C 55.5000 % 10.2 C
Sensor: Nr:Datum:Temp:Feuchte:Taupunkt:
Aussen-T/F 376 31-08-2018 15:00:00 19.64167 C 52.8333 % 9.76 C
377 31-08-2018 16:00:00 20.10833 C 49.8333 % 9.32 C
378 31-08-2018 17:00:00 20.575 C 47.7500 % 9.11 C
379 31-08-2018 18:00:00 20.85833 C 44.0000 % 8.16 C
380 31-08-2018 19:00:00 19.5 C 46.1667 % 7.64 C
381 31-08-2018 20:00:00 16.15833 C 60.0000 % 8.4 C
382 31-08-2018 21:00:00 14.375 C 68.0833 % 8.57 C
383 31-08-2018 22:00:00 13.675 C 72.2500 % 8.78 C
384 31-08-2018 23:00:00 13.275 C 74.5833 % 8.86 C
385 01-09-2018 00:00:00 12.05833 C 78.7500 % 8.49 C
386 01-09-2018 01:00:00 10.98333 C 82.4167 % 8.11 C
387 01-09-2018 02:00:00 9.975 C 85.9167 % 7.73 C
388 01-09-2018 03:00:00 9.25 C 88.0833 % 7.38 C
389 01-09-2018 04:00:00 8.75 C 90.1667 % 7.23 C
390 01-09-2018 05:00:00 8.325 C 91.1667 % 6.97 C
391 01-09-2018 06:00:00 7.925 C 92.2500 % 6.75 C
392 01-09-2018 07:00:00 7.85 C 93.0000 % 6.79 C
393 01-09-2018 08:00:00 8.425 C 93.5000 % 7.44 C
394 01-09-2018 09:00:00 9.73333 C 93.9167 % 8.8 C
395 01-09-2018 10:00:00 11.85833 C 89.4167 % 10.18 C
396 01-09-2018 11:00:00 14.73333 C 75.1667 % 10.38 C
397 01-09-2018 12:00:00 17.20833 C 64.1667 % 10.38 C
398 01-09-2018 13:00:00 18.65 C 53.5000 % 9.03 C
399 01-09-2018 14:00:00 20.03333 C 43.0833 % 7.11 C
400 01-09-2018 15:00:00 20.74167 C 40.5833 % 6.88 C
Sensor: Nr:Datum:Temp:Feuchte:Taupunkt:
Aussen-T/F 401 01-09-2018 16:00:00 21.225 C 39.0000 % 6.73 C
402 01-09-2018 17:00:00 22.375 C 36.9167 % 6.95 C
403 01-09-2018 18:00:00 22.375 C 36.5000 % 6.79 C
404 01-09-2018 19:00:00 21.26667 C 39.3333 % 6.89 C
405 01-09-2018 20:00:00 17.65 C 52.0833 % 7.71 C
406 01-09-2018 21:00:00 15.15833 C 61.1667 % 7.74 C
407 01-09-2018 22:00:00 13.96667 C 66.5833 % 7.85 C
408 01-09-2018 23:00:00 12.88333 C 71.2500 % 7.81 C
409 02-09-2018 00:00:00 11.33333 C 77.0833 % 7.47 C
410 02-09-2018 01:00:00 10.2 C 81.7500 % 7.22 C
411 02-09-2018 02:00:00 9.43333 C 85.0000 % 7.04 C
412 02-09-2018 03:00:00 8.96667 C 87.0833 % 6.94 C
413 02-09-2018 04:00:00 8.525 C 88.3333 % 6.71 C
414 02-09-2018 05:00:00 8.16667 C 90.0000 % 6.63 C
415 02-09-2018 06:00:00 7.95833 C 91.0833 % 6.6 C
416 02-09-2018 07:00:00 8.025 C 91.9167 % 6.79 C
417 02-09-2018 08:00:00 8.61667 C 92.0000 % 7.39 C
418 02-09-2018 09:00:00 9.9 C 92.4167 % 8.73 C
419 02-09-2018 10:00:00 13.025 C 86.5000 % 10.83 C
420 02-09-2018 11:00:00 16.86667 C 72.0833 % 11.81 C
421 02-09-2018 12:00:00 18.56667 C 66.6667 % 12.25 C
422 02-09-2018 13:00:00 19.41667 C 61.8333 % 11.91 C
423 02-09-2018 14:00:00 19.31667 C 63.3333 % 12.18 C
424 02-09-2018 15:00:00 19.30833 C 64.3333 % 12.41 C
425 02-09-2018 16:00:00 19.65833 C 62.4167 % 12.28 C
Sensor: Nr:Datum:Temp:Feuchte:Taupunkt:
Aussen-T/F 426 02-09-2018 17:00:00 19.30833 C 63.6667 % 12.25 C
427 02-09-2018 18:00:00 18.71667 C 65.9167 % 12.22 C
428 02-09-2018 19:00:00 17.70833 C 68.0833 % 11.75 C
429 02-09-2018 20:00:00 17.225 C 68.8333 % 11.45 C
430 02-09-2018 21:00:00 17.56667 C 68.7500 % 11.76 C
431 02-09-2018 22:00:00 17.45833 C 72.7500 % 12.52 C
432 02-09-2018 23:00:00 17.25833 C 75.0000 % 12.79 C
433 03-09-2018 00:00:00 16.89167 C 78.0833 % 13.05 C
434 03-09-2018 01:00:00 16.40833 C 81.1667 % 13.17 C
435 03-09-2018 02:00:00 16.075 C 83.2500 % 13.24 C
436 03-09-2018 03:00:00 15.9 C 84.5833 % 13.31 C
437 03-09-2018 04:00:00 15.875 C 85.1667 % 13.39 C
438 03-09-2018 05:00:00 15.75 C 86.0000 % 13.42 C
439 03-09-2018 06:00:00 15.61667 C 86.1667 % 13.31 C
440 03-09-2018 07:00:00 15.54167 C 87.0000 % 13.39 C
441 03-09-2018 08:00:00 16.025 C 86.7500 % 13.82 C
442 03-09-2018 09:00:00 17.14167 C 82.9167 % 14.22 C
443 03-09-2018 10:00:00 17.74167 C 80.4167 % 14.33 C
444 03-09-2018 11:00:00 18.73333 C 77.5000 % 14.72 C
445 03-09-2018 12:00:00 19.53333 C 74.0000 % 14.78 C
446 03-09-2018 13:00:00 20 C 73.0833 % 15.03 C
447 03-09-2018 14:00:00 20.8 C 70.9167 % 15.33 C
448 03-09-2018 15:00:00 20.83333 C 71.5000 % 15.49 C
449 03-09-2018 16:00:00 20.675 C 72.3333 % 15.52 C
450 03-09-2018 17:00:00 20.59167 C 75.0833 % 16.02 C
Sensor: Nr:Datum:Temp:Feuchte:Taupunkt:
Aussen-T/F 451 03-09-2018 18:00:00 20.34167 C 75.5000 % 15.87 C
452 03-09-2018 19:00:00 19.925 C 78.4167 % 16.06 C
453 03-09-2018 20:00:00 18.94167 C 83.2500 % 16.04 C
454 03-09-2018 21:00:00 18.375 C 85.5000 % 15.9 C
455 03-09-2018 22:00:00 18.00833 C 86.4167 % 15.71 C
456 03-09-2018 23:00:00 17.575 C 88.3333 % 15.62 C
457 04-09-2018 00:00:00 17.3 C 89.1667 % 15.5 C
458 04-09-2018 01:00:00 17.225 C 90.0000 % 15.57 C
459 04-09-2018 02:00:00 17.23333 C 90.0833 % 15.59 C
460 04-09-2018 03:00:00 17.15 C 91.0000 % 15.67 C
461 04-09-2018 04:00:00 17.05 C 91.0000 % 15.57 C
462 04-09-2018 05:00:00 16.13333 C 91.3333 % 14.72 C
463 04-09-2018 06:00:00 15.40833 C 92.6667 % 14.23 C
464 04-09-2018 07:00:00 15.85 C 94.0000 % 14.89 C
465 04-09-2018 08:00:00 16.275 C 94.0000 % 15.31 C
466 04-09-2018 09:00:00 17.30833 C 92.2500 % 16.04 C
467 04-09-2018 10:00:00 18.30833 C 89.7500 % 16.6 C
468 04-09-2018 11:00:00 19.39167 C 88.1667 % 17.38 C
469 04-09-2018 12:00:00 21.24167 C 78.1667 % 17.29 C
470 04-09-2018 13:00:00 23.3 C 66.1667 % 16.63 C
471 04-09-2018 14:00:00 24.40833 C 61.3333 % 16.49 C
472 04-09-2018 15:00:00 25.44167 C 56.3333 % 16.12 C
473 04-09-2018 16:00:00 25.79167 C 54.0833 % 15.8 C
474 04-09-2018 17:00:00 25.16667 C 61.5833 % 17.26 C
475 04-09-2018 18:00:00 24.3 C 65.5000 % 17.42 C
Sensor: Nr:Datum:Temp:Feuchte:Taupunkt:
Aussen-T/F 476 04-09-2018 19:00:00 23.275 C 66.8333 % 16.77 C
477 04-09-2018 20:00:00 22.075 C 70.6667 % 16.5 C
478 04-09-2018 21:00:00 20.83333 C 75.3333 % 16.31 C
479 04-09-2018 22:00:00 20.175 C 76.3333 % 15.88 C
480 04-09-2018 23:00:00 19.775 C 78.6667 % 15.96 C
481 05-09-2018 00:00:00 19.46667 C 79.8333 % 15.89 C
482 05-09-2018 01:00:00 19.11667 C 80.9167 % 15.76 C
483 05-09-2018 02:00:00 18.29167 C 82.8333 % 15.32 C
484 05-09-2018 03:00:00 16.81667 C 86.8333 % 14.61 C
485 05-09-2018 04:00:00 15.93333 C 89.8333 % 14.27 C
486 05-09-2018 05:00:00 16.125 C 91.8333 % 14.8 C
487 05-09-2018 06:00:00 15.79167 C 91.2500 % 14.37 C
488 05-09-2018 07:00:00 15.33333 C 92.5833 % 14.14 C
489 05-09-2018 08:00:00 15.81667 C 93.3333 % 14.74 C
490 05-09-2018 09:00:00 16.65833 C 92.9167 % 15.51 C
491 05-09-2018 10:00:00 18.23333 C 89.7500 % 16.52 C
492 05-09-2018 11:00:00 20.74167 C 79.6667 % 17.1 C
493 05-09-2018 12:00:00 23.475 C 66.6667 % 16.92 C
494 05-09-2018 13:00:00 25.39167 C 56.9167 % 16.23 C
495 05-09-2018 14:00:00 26.75833 C 49.5833 % 15.34 C
496 05-09-2018 15:00:00 27.45 C 47.7500 % 15.38 C
497 05-09-2018 16:00:00 28.13333 C 45.5833 % 15.28 C
498 05-09-2018 17:00:00 28.45 C 45.5833 % 15.57 C
499 05-09-2018 18:00:00 26.33333 C 54.4167 % 16.4 C
500 05-09-2018 19:00:00 24.43333 C 58.5833 % 15.79 C
Sensor: Nr:Datum:Temp:Feuchte:Taupunkt:
Aussen-T/F 501 05-09-2018 20:00:00 22.775 C 64.6667 % 15.77 C
502 05-09-2018 21:00:00 21.98333 C 66.9167 % 15.56 C
503 05-09-2018 22:00:00 20.16667 C 72.5000 % 15.07 C
504 05-09-2018 23:00:00 18.33333 C 79.0000 % 14.63 C
505 06-09-2018 00:00:00 17.25 C 83.4167 % 14.41 C
506 06-09-2018 01:00:00 16.39167 C 86.8333 % 14.19 C
507 06-09-2018 02:00:00 15.84167 C 88.9167 % 14.02 C
508 06-09-2018 03:00:00 15.34167 C 90.7500 % 13.84 C
509 06-09-2018 04:00:00 15.59167 C 92.3333 % 14.35 C
510 06-09-2018 05:00:00 15.275 C 92.1667 % 14.01 C
511 06-09-2018 06:00:00 15.30833 C 93.5000 % 14.27 C
512 06-09-2018 07:00:00 15.98333 C 94.0000 % 15.02 C
513 06-09-2018 08:00:00 16.85833 C 94.7500 % 16.01 C
514 06-09-2018 09:00:00 17.91667 C 94.5833 % 17.03 C
515 06-09-2018 10:00:00 18.79167 C 89.5833 % 17.04 C
516 06-09-2018 11:00:00 19.975 C 82.7500 % 16.95 C
517 06-09-2018 12:00:00 20.63333 C 81.5833 % 17.37 C
518 06-09-2018 13:00:00 20.79167 C 81.6667 % 17.54 C
519 06-09-2018 14:00:00 21.35 C 77.9167 % 17.34 C
520 06-09-2018 15:00:00 21.55 C 76.0000 % 17.14 C
521 06-09-2018 16:00:00 21.175 C 77.0833 % 17 C
522 06-09-2018 17:00:00 21.23333 C 77.0000 % 17.04 C
523 06-09-2018 18:00:00 19.95833 C 84.4167 % 17.25 C
524 06-09-2018 19:00:00 18.55 C 91.0000 % 17.05 C
525 06-09-2018 20:00:00 17.925 C 92.5000 % 16.69 C
Sensor: Nr:Datum:Temp:Feuchte:Taupunkt:
Aussen-T/F 526 06-09-2018 21:00:00 17.36667 C 93.6667 % 16.34 C
527 06-09-2018 22:00:00 16.55833 C 94.0000 % 15.59 C
528 06-09-2018 23:00:00 16.06667 C 94.5000 % 15.18 C
529 07-09-2018 00:00:00 16.19167 C 95.0000 % 15.39 C
530 07-09-2018 01:00:00 16.00833 C 95.0000 % 15.21 C
531 07-09-2018 02:00:00 15.40833 C 95.0000 % 14.61 C
532 07-09-2018 03:00:00 15.39167 C 95.1667 % 14.62 C
533 07-09-2018 04:00:00 15.275 C 95.0000 % 14.48 C
534 07-09-2018 05:00:00 15.25833 C 95.0000 % 14.46 C
535 07-09-2018 06:00:00 14.06667 C 94.4167 % 13.18 C
536 07-09-2018 07:00:00 13.875 C 95.3333 % 13.14 C
537 07-09-2018 08:00:00 14.73333 C 96.0000 % 14.1 C
538 07-09-2018 09:00:00 15.46667 C 96.0000 % 14.83 C
539 07-09-2018 10:00:00 17.05 C 86.7500 % 14.83 C
540 07-09-2018 11:00:00 18.45 C 74.8333 % 13.91 C
541 07-09-2018 12:00:00 19.04167 C 71.6667 % 13.81 C
542 07-09-2018 13:00:00 18.65833 C 74.4167 % 14.02 C
543 07-09-2018 14:00:00 19.35833 C 71.8333 % 14.15 C
544 07-09-2018 15:00:00 19.14167 C 74.5000 % 14.5 C
545 07-09-2018 16:00:00 16.71667 C 83.1667 % 13.85 C
546 07-09-2018 17:00:00 15.75 C 87.1667 % 13.62 C
547 07-09-2018 18:00:00 16.35 C 85.6667 % 13.94 C
548 07-09-2018 19:00:00 16.13333 C 82.4167 % 13.14 C
549 07-09-2018 20:00:00 13.8 C 83.0000 % 10.97 C
550 07-09-2018 21:00:00 12.58333 C 84.5833 % 10.06 C
Sensor: Nr:Datum:Temp:Feuchte:Taupunkt:
Aussen-T/F 551 07-09-2018 22:00:00 11.825 C 86.7500 % 9.69 C
552 07-09-2018 23:00:00 10.9 C 88.0833 % 9.01 C
553 08-09-2018 00:00:00 9.84167 C 89.5833 % 8.21 C
554 08-09-2018 01:00:00 9.43333 C 91.0000 % 8.04 C
555 08-09-2018 02:00:00 9.25833 C 92.0000 % 8.03 C
556 08-09-2018 03:00:00 8.78333 C 92.6667 % 7.66 C
557 08-09-2018 04:00:00 8 C 93.0833 % 6.95 C
558 08-09-2018 05:00:00 7.63333 C 93.6667 % 6.68 C
559 08-09-2018 06:00:00 7.40833 C 94.2500 % 6.55 C
560 08-09-2018 07:00:00 6.80833 C 94.1667 % 5.94 C
561 08-09-2018 08:00:00 7.125 C 95.0000 % 6.38 C
562 08-09-2018 09:00:00 7.88333 C 95.3333 % 7.18 C
563 08-09-2018 10:00:00 10.19167 C 95.2500 % 9.47 C
564 08-09-2018 11:00:00 13.96667 C 78.1667 % 10.23 C
565 08-09-2018 12:00:00 16.25 C 63.8333 % 9.4 C
566 08-09-2018 13:00:00 17.325 C 60.5000 % 9.62 C
567 08-09-2018 14:00:00 18.63333 C 56.3333 % 9.78 C
568 08-09-2018 15:00:00 19.75 C 51.7500 % 9.55 C
569 08-09-2018 16:00:00 21.09167 C 48.6667 % 9.87 C
570 08-09-2018 17:00:00 22.55 C 44.8333 % 9.97 C
571 08-09-2018 18:00:00 21.15 C 52.2500 % 10.99 C
572 08-09-2018 19:00:00 19.05833 C 61.0000 % 11.37 C
573 08-09-2018 20:00:00 16.725 C 69.2500 % 11.07 C
574 08-09-2018 21:00:00 15.93333 C 72.3333 % 10.96 C
575 08-09-2018 22:00:00 15.36667 C 74.6667 % 10.9 C
Sensor: Nr:Datum:Temp:Feuchte:Taupunkt:
Aussen-T/F 576 08-09-2018 23:00:00 14.76667 C 76.7500 % 10.73 C
577 09-09-2018 00:00:00 14.35833 C 78.6667 % 10.7 C
578 09-09-2018 01:00:00 13.50833 C 81.0833 % 10.33 C
579 09-09-2018 02:00:00 12.51667 C 83.5000 % 9.8 C
580 09-09-2018 03:00:00 11.825 C 86.4167 % 9.63 C
581 09-09-2018 04:00:00 11.15833 C 88.4167 % 9.32 C
582 09-09-2018 05:00:00 10.99167 C 89.9167 % 9.4 C
583 09-09-2018 06:00:00 11.375 C 90.0000 % 9.8 C
584 09-09-2018 07:00:00 11.56667 C 90.0000 % 9.98 C
585 09-09-2018 08:00:00 12.275 C 89.2500 % 10.56 C
586 09-09-2018 09:00:00 13.99167 C 83.7500 % 11.29 C
587 09-09-2018 10:00:00 15.76667 C 78.6667 % 12.07 C
588 09-09-2018 11:00:00 18.56667 C 67.7500 % 12.49 C
589 09-09-2018 12:00:00 19.75 C 60.4167 % 11.87 C
590 09-09-2018 13:00:00 20.675 C 54.2500 % 11.11 C
591 09-09-2018 14:00:00 22.26667 C 48.2500 % 10.81 C
592 09-09-2018 15:00:00 23.83333 C 45.6667 % 11.41 C
593 09-09-2018 16:00:00 24.56667 C 46.3333 % 12.3 C
594 09-09-2018 17:00:00 25.69167 C 44.0833 % 12.56 C
595 09-09-2018 18:00:00 24.75 C 49.7500 % 13.55 C
596 09-09-2018 19:00:00 21.94167 C 55.7500 % 12.7 C
597 09-09-2018 20:00:00 19.225 C 62.5833 % 11.91 C
598 09-09-2018 21:00:00 16.75833 C 68.9167 % 11.03 C
599 09-09-2018 22:00:00 15.24167 C 73.7500 % 10.59 C
600 09-09-2018 23:00:00 14.01667 C 78.8333 % 10.4 C
Sensor: Nr:Datum:Temp:Feuchte:Taupunkt:
Aussen-T/F 601 10-09-2018 00:00:00 13.275 C 80.8333 % 10.06 C
602 10-09-2018 01:00:00 12.61667 C 82.2500 % 9.67 C
603 10-09-2018 02:00:00 11.825 C 85.0000 % 9.39 C
604 10-09-2018 03:00:00 11.66667 C 86.5833 % 9.51 C
605 10-09-2018 04:00:00 12.05 C 86.4167 % 9.85 C
606 10-09-2018 05:00:00 11.375 C 87.5000 % 9.38 C
607 10-09-2018 06:00:00 10.70833 C 89.3333 % 9.03 C
608 10-09-2018 07:00:00 11.075 C 90.7500 % 9.62 C
609 10-09-2018 08:00:00 12.75833 C 89.6667 % 11.11 C
610 10-09-2018 09:00:00 14.56667 C 84.5833 % 12 C
611 10-09-2018 10:00:00 16.33333 C 77.4167 % 12.38 C
612 10-09-2018 11:00:00 18.425 C 69.9167 % 12.84 C
613 10-09-2018 12:00:00 21.10833 C 59.1667 % 12.83 C
614 10-09-2018 13:00:00 23.475 C 52.3333 % 13.15 C
615 10-09-2018 14:00:00 26.03333 C 47.5000 % 14.01 C
616 10-09-2018 15:00:00 26.73333 C 46.0000 % 14.15 C
617 10-09-2018 16:00:00 25.58333 C 47.4167 % 13.57 C
618 10-09-2018 17:00:00 24.24167 C 51.0833 % 13.49 C
619 10-09-2018 18:00:00 23.58333 C 53.8333 % 13.69 C
620 10-09-2018 19:00:00 22.19167 C 57.5833 % 13.43 C
621 10-09-2018 20:00:00 19.95833 C 65.6667 % 13.34 C
622 10-09-2018 21:00:00 18.025 C 72.9167 % 13.1 C
623 10-09-2018 22:00:00 16.91667 C 76.2500 % 12.71 C
624 10-09-2018 23:00:00 15.475 C 81.7500 % 12.37 C
625 11-09-2018 00:00:00 14.80833 C 84.0833 % 12.15 C
Sensor: Nr:Datum:Temp:Feuchte:Taupunkt:
Aussen-T/F 626 11-09-2018 01:00:00 14.30833 C 86.5000 % 12.09 C
627 11-09-2018 02:00:00 14.01667 C 87.1667 % 11.92 C
628 11-09-2018 03:00:00 13.29167 C 88.4167 % 11.42 C
629 11-09-2018 04:00:00 12.48333 C 91.2500 % 11.1 C
630 11-09-2018 05:00:00 12.21667 C 91.7500 % 10.92 C
631 11-09-2018 06:00:00 11.775 C 92.6667 % 10.63 C
632 11-09-2018 07:00:00 11.7 C 93.0833 % 10.62 C
633 11-09-2018 08:00:00 12.70833 C 93.3333 % 11.66 C
634 11-09-2018 09:00:00 14.275 C 90.5833 % 12.76 C
635 11-09-2018 10:00:00 18 C 76.9167 % 13.89 C
636 11-09-2018 11:00:00 19.23333 C 71.5000 % 13.96 C
637 11-09-2018 12:00:00 21.03333 C 65.5833 % 14.34 C
638 11-09-2018 13:00:00 22.96667 C 57.5833 % 14.15 C
639 11-09-2018 14:00:00 24.55 C 52.0000 % 14.05 C
640 11-09-2018 15:00:00 25.96667 C 46.1667 % 13.51 C
641 11-09-2018 16:00:00 27.33333 C 41.9167 % 13.26 C
642 11-09-2018 17:00:00 29.025 C 38.7500 % 13.57 C
643 11-09-2018 18:00:00 28.70833 C 38.8333 % 13.32 C
644 11-09-2018 19:00:00 26.03333 C 45.7500 % 13.43 C
645 11-09-2018 20:00:00 21.575 C 57.1667 % 12.74 C
646 11-09-2018 21:00:00 19.86667 C 62.6667 % 12.54 C
647 11-09-2018 22:00:00 19.00833 C 65.4167 % 12.38 C
648 11-09-2018 23:00:00 17.725 C 70.5833 % 12.31 C
649 12-09-2018 00:00:00 16.59167 C 74.6667 % 12.08 C
650 12-09-2018 01:00:00 15.36667 C 78.8333 % 11.72 C
Sensor: Nr:Datum:Temp:Feuchte:Taupunkt:
Aussen-T/F 651 12-09-2018 02:00:00 14.25 C 82.3333 % 11.28 C
652 12-09-2018 03:00:00 13.725 C 84.4167 % 11.15 C
653 12-09-2018 04:00:00 12.98333 C 86.4167 % 10.77 C
654 12-09-2018 05:00:00 12.5 C 87.7500 % 10.53 C
655 12-09-2018 06:00:00 11.94167 C 89.0833 % 10.2 C
656 12-09-2018 07:00:00 11.625 C 91.0000 % 10.21 C
657 12-09-2018 08:00:00 11.95833 C 91.9167 % 10.69 C
658 12-09-2018 09:00:00 13.29167 C 90.1667 % 11.72 C
659 12-09-2018 10:00:00 16.56667 C 80.1667 % 13.14 C
660 12-09-2018 11:00:00 20.44167 C 65.9167 % 13.86 C
661 12-09-2018 12:00:00 22.975 C 57.7500 % 14.2 C
662 12-09-2018 13:00:00 24.75 C 51.5000 % 14.08 C
663 12-09-2018 14:00:00 26.36667 C 47.2500 % 14.23 C
664 12-09-2018 15:00:00 27.25833 C 45.2500 % 14.37 C
665 12-09-2018 16:00:00 27.8 C 45.1667 % 14.84 C
666 12-09-2018 17:00:00 29.19167 C 43.0833 % 15.36 C
667 12-09-2018 18:00:00 28.11667 C 45.5000 % 15.24 C
668 12-09-2018 19:00:00 24.6 C 56.7500 % 15.45 C
669 12-09-2018 20:00:00 20.99167 C 72.6667 % 15.9 C
670 12-09-2018 21:00:00 19.26667 C 78.6667 % 15.47 C
671 12-09-2018 22:00:00 18.21667 C 81.6667 % 15.03 C
672 12-09-2018 23:00:00 17.3 C 83.0000 % 14.39 C
673 13-09-2018 00:00:00 16.75 C 84.0000 % 14.03 C
674 13-09-2018 01:00:00 16.33333 C 84.9167 % 13.79 C
675 13-09-2018 02:00:00 16.08333 C 85.0000 % 13.56 C
Sensor: Nr:Datum:Temp:Feuchte:Taupunkt:
Aussen-T/F 676 13-09-2018 03:00:00 15.825 C 85.5833 % 13.41 C
677 13-09-2018 04:00:00 15.8 C 86.0000 % 13.46 C
678 13-09-2018 05:00:00 15.8 C 86.0000 % 13.46 C
679 13-09-2018 06:00:00 15.65833 C 86.0000 % 13.33 C
680 13-09-2018 07:00:00 15.225 C 87.6667 % 13.19 C
681 13-09-2018 08:00:00 15.55833 C 88.0833 % 13.59 C
682 13-09-2018 09:00:00 15.50833 C 89.5000 % 13.79 C
683 13-09-2018 10:00:00 15.75833 C 91.0000 % 14.29 C
684 13-09-2018 11:00:00 16.15833 C 89.7500 % 14.47 C
685 13-09-2018 12:00:00 17.06667 C 87.1667 % 14.92 C
686 13-09-2018 13:00:00 17.3 C 85.0000 % 14.76 C
687 13-09-2018 14:00:00 17.31667 C 84.3333 % 14.65 C
688 13-09-2018 15:00:00 17.50833 C 83.0833 % 14.61 C
689 13-09-2018 16:00:00 16.925 C 84.9167 % 14.37 C
690 13-09-2018 17:00:00 16.83333 C 85.0000 % 14.3 C
691 13-09-2018 18:00:00 17.075 C 83.3333 % 14.23 C
692 13-09-2018 19:00:00 16.91667 C 83.2500 % 14.06 C
693 13-09-2018 20:00:00 16.83333 C 83.5000 % 14.02 C
694 13-09-2018 21:00:00 16.64167 C 84.0833 % 13.94 C
695 13-09-2018 22:00:00 16.26667 C 83.3333 % 13.44 C
696 13-09-2018 23:00:00 15.55833 C 85.4167 % 13.12 C
697 14-09-2018 00:00:00 14.83333 C 86.5000 % 12.6 C
698 14-09-2018 01:00:00 14.10833 C 89.7500 % 12.45 C
699 14-09-2018 02:00:00 14.16667 C 90.2500 % 12.59 C
700 14-09-2018 03:00:00 14.13333 C 90.1667 % 12.55 C
Sensor: Nr:Datum:Temp:Feuchte:Taupunkt:
Aussen-T/F 701 14-09-2018 04:00:00 14.2 C 90.5000 % 12.67 C
702 14-09-2018 05:00:00 14.19167 C 90.0000 % 12.58 C
703 14-09-2018 06:00:00 13.88333 C 90.1667 % 12.3 C
704 14-09-2018 07:00:00 13.81667 C 91.0000 % 12.37 C
705 14-09-2018 08:00:00 14.25 C 89.1667 % 12.49 C
706 14-09-2018 09:00:00 15.11667 C 83.0833 % 12.27 C
707 14-09-2018 10:00:00 15.65833 C 78.9167 % 12.01 C
708 14-09-2018 11:00:00 16.48333 C 70.9167 % 11.19 C
709 14-09-2018 12:00:00 18.575 C 60.6667 % 10.83 C
710 14-09-2018 13:00:00 19.65833 C 55.9167 % 10.62 C
711 14-09-2018 14:00:00 20.55 C 53.4167 % 10.76 C
712 14-09-2018 15:00:00 21.04167 C 52.1667 % 10.86 C
713 14-09-2018 16:00:00 21.21667 C 52.2500 % 11.05 C
714 14-09-2018 17:00:00 21.425 C 51.8333 % 11.12 C
715 14-09-2018 18:00:00 21.24167 C 49.5833 % 10.28 C
716 14-09-2018 19:00:00 20.23333 C 50.5833 % 9.66 C
717 14-09-2018 20:00:00 18.79167 C 55.5000 % 9.7 C
718 14-09-2018 21:00:00 17.38333 C 59.9167 % 9.53 C
719 14-09-2018 22:00:00 16.075 C 64.1667 % 9.31 C
720 14-09-2018 23:00:00 15.80833 C 64.9167 % 9.23 C
721 15-09-2018 00:00:00 15.225 C 66.7500 % 9.09 C
722 15-09-2018 01:00:00 13.85 C 71.3333 % 8.76 C
723 15-09-2018 02:00:00 12.48333 C 76.9167 % 8.55 C
724 15-09-2018 03:00:00 12.39167 C 78.9167 % 8.84 C
725 15-09-2018 04:00:00 12.8 C 79.0000 % 9.25 C
Sensor: Nr:Datum:Temp:Feuchte:Taupunkt:
Aussen-T/F 726 15-09-2018 05:00:00 12.55 C 79.1667 % 9.04 C
727 15-09-2018 06:00:00 11.60833 C 82.5833 % 8.75 C
728 15-09-2018 07:00:00 11.6 C 83.9167 % 8.98 C
729 15-09-2018 08:00:00 11.00833 C 86.0833 % 8.77 C
730 15-09-2018 09:00:00 11.8 C 86.0833 % 9.55 C
731 15-09-2018 10:00:00 14.1 C 78.0000 % 10.33 C
732 15-09-2018 11:00:00 16.225 C 70.7500 % 10.91 C
733 15-09-2018 12:00:00 17.65833 C 64.3333 % 10.85 C
734 15-09-2018 13:00:00 18.525 C 60.2500 % 10.68 C
735 15-09-2018 14:00:00 19.14167 C 58.5000 % 10.82 C
736 15-09-2018 15:00:00 20.10833 C 55.0000 % 10.79 C
737 15-09-2018 16:00:00 19.94167 C 54.8333 % 10.59 C
738 15-09-2018 17:00:00 20.28333 C 53.0833 % 10.42 C
739 15-09-2018 18:00:00 19.98333 C 52.3333 % 9.93 C
740 15-09-2018 19:00:00 18.30833 C 57.7500 % 9.84 C
741 15-09-2018 20:00:00 15.49167 C 64.8333 % 8.91 C
742 15-09-2018 21:00:00 13.74167 C 72.0000 % 8.79 C
743 15-09-2018 22:00:00 12.58333 C 76.7500 % 8.62 C
744 15-09-2018 23:00:00 11.95833 C 78.9167 % 8.42 C
745 16-09-2018 00:00:00 11.01667 C 81.3333 % 7.95 C
746 16-09-2018 01:00:00 10.15833 C 84.1667 % 7.61 C
747 16-09-2018 02:00:00 9.375 C 86.9167 % 7.31 C
748 16-09-2018 03:00:00 8.975 C 88.8333 % 7.23 C
749 16-09-2018 04:00:00 8.39167 C 90.0833 % 6.86 C
750 16-09-2018 05:00:00 7.91667 C 91.2500 % 6.58 C
Sensor: Nr:Datum:Temp:Feuchte:Taupunkt:
Aussen-T/F 751 16-09-2018 06:00:00 7.45833 C 92.0000 % 6.25 C
752 16-09-2018 07:00:00 7.10833 C 92.8333 % 6.03 C
753 16-09-2018 08:00:00 7.425 C 93.7500 % 6.49 C
754 16-09-2018 09:00:00 8.34167 C 94.5833 % 7.52 C
755 16-09-2018 10:00:00 10.04167 C 94.7500 % 9.24 C
756 16-09-2018 11:00:00 13.275 C 87.2500 % 11.2 C
757 16-09-2018 12:00:00 18.05 C 62.7500 % 10.84 C
758 16-09-2018 13:00:00 21.06667 C 49.5833 % 10.12 C
759 16-09-2018 14:00:00 22.525 C 44.1667 % 9.73 C
760 16-09-2018 15:00:00 23.44167 C 41.5000 % 9.62 C
761 16-09-2018 16:00:00 24.13333 C 38.6667 % 9.19 C
762 16-09-2018 17:00:00 24.79167 C 38.2500 % 9.62 C
763 16-09-2018 18:00:00 24.05 C 45.5833 % 11.58 C
764 16-09-2018 19:00:00 20.46667 C 51.9167 % 10.26 C
765 16-09-2018 20:00:00 18.35 C 57.5833 % 9.84 C
766 16-09-2018 21:00:00 17.43333 C 62.1667 % 10.12 C
767 16-09-2018 22:00:00 15.39167 C 69.2500 % 9.79 C
768 16-09-2018 23:00:00 14.05833 C 74.5833 % 9.62 C
769 17-09-2018 00:00:00 12.96667 C 78.4167 % 9.31 C
770 17-09-2018 01:00:00 12.35 C 79.9167 % 8.99 C
771 17-09-2018 02:00:00 11.50833 C 82.7500 % 8.68 C
772 17-09-2018 03:00:00 11.13333 C 84.4167 % 8.61 C
773 17-09-2018 04:00:00 10.33333 C 86.6667 % 8.21 C
774 17-09-2018 05:00:00 9.5 C 89.0000 % 7.78 C
775 17-09-2018 06:00:00 9.06667 C 90.4167 % 7.58 C
Sensor: Nr:Datum:Temp:Feuchte:Taupunkt:
Aussen-T/F 776 17-09-2018 07:00:00 8.79167 C 91.9167 % 7.55 C
777 17-09-2018 08:00:00 9.34167 C 92.2500 % 8.15 C
778 17-09-2018 09:00:00 10.06667 C 92.5833 % 8.92 C
779 17-09-2018 10:00:00 11.68333 C 90.5000 % 10.18 C
780 17-09-2018 11:00:00 14.74167 C 80.9167 % 11.5 C
781 17-09-2018 12:00:00 18.36667 C 69.5000 % 12.69 C
782 17-09-2018 13:00:00 21.74167 C 55.3333 % 12.4 C
783 17-09-2018 14:00:00 24.70833 C 43.8333 % 11.58 C
784 17-09-2018 15:00:00 25.63333 C 41.2500 % 11.5 C
785 17-09-2018 16:00:00 26.9 C 35.3333 % 10.29 C
786 17-09-2018 17:00:00 28.44167 C 34.2500 % 11.18 C
787 17-09-2018 18:00:00 26.78333 C 40.7500 % 12.34 C
788 17-09-2018 19:00:00 23.31667 C 44.5833 % 10.58 C
789 17-09-2018 20:00:00 20.79167 C 52.7500 % 10.8 C
790 17-09-2018 21:00:00 19.31667 C 60.0833 % 11.38 C
791 17-09-2018 22:00:00 18.24167 C 65.1667 % 11.6 C
792 17-09-2018 23:00:00 17.30833 C 68.1667 % 11.39 C
793 18-09-2018 00:00:00 15.10833 C 75.2500 % 10.76 C
794 18-09-2018 01:00:00 13.625 C 80.9167 % 10.41 C
795 18-09-2018 02:00:00 12.64167 C 83.6667 % 9.95 C
796 18-09-2018 03:00:00 11.98333 C 85.8333 % 9.69 C
797 18-09-2018 04:00:00 11.46667 C 87.6667 % 9.49 C
798 18-09-2018 05:00:00 10.925 C 89.0000 % 9.19 C
799 18-09-2018 06:00:00 10.40833 C 90.1667 % 8.87 C
800 18-09-2018 07:00:00 10.275 C 91.5000 % 8.95 C
Sensor: Nr:Datum:Temp:Feuchte:Taupunkt:
Aussen-T/F 801 18-09-2018 08:00:00 10.59167 C 92.0000 % 9.35 C
802 18-09-2018 09:00:00 11.5 C 92.3333 % 10.3 C
803 18-09-2018 10:00:00 13.825 C 88.5000 % 11.96 C
804 18-09-2018 11:00:00 17.35833 C 76.0833 % 13.1 C
805 18-09-2018 12:00:00 21.95 C 62.6667 % 14.51 C
806 18-09-2018 13:00:00 26.83333 C 49.5000 % 15.38 C
807 18-09-2018 14:00:00 28.59167 C 48.2500 % 16.59 C
808 18-09-2018 15:00:00 29.41667 C 44.3333 % 16.01 C
809 18-09-2018 16:00:00 29.89167 C 41.6667 % 15.46 C
810 18-09-2018 17:00:00 30.55 C 40.5000 % 15.61 C
811 18-09-2018 18:00:00 29.175 C 44.6667 % 15.91 C
812 18-09-2018 19:00:00 26.74167 C 51.1667 % 15.81 C
813 18-09-2018 20:00:00 24.175 C 54.7500 % 14.5 C
814 18-09-2018 21:00:00 22.36667 C 57.7500 % 13.64 C
815 18-09-2018 22:00:00 19.6 C 78.5833 % 15.78 C
816 18-09-2018 23:00:00 18.25 C 78.7500 % 14.5 C
817 19-09-2018 00:00:00 17.74167 C 79.3333 % 14.12 C
818 19-09-2018 01:00:00 17.33333 C 79.7500 % 13.8 C
819 19-09-2018 02:00:00 16.70833 C 82.0833 % 13.64 C
820 19-09-2018 03:00:00 16.49167 C 82.3333 % 13.47 C
821 19-09-2018 04:00:00 16.08333 C 83.4167 % 13.27 C
822 19-09-2018 05:00:00 15.4 C 86.2500 % 13.12 C
823 19-09-2018 06:00:00 14.50833 C 87.7500 % 12.5 C
824 19-09-2018 07:00:00 13.86667 C 90.9167 % 12.41 C
825 19-09-2018 08:00:00 14.25 C 92.3333 % 13.02 C
Sensor: Nr:Datum:Temp:Feuchte:Taupunkt:
Aussen-T/F 826 19-09-2018 09:00:00 15.4 C 92.0000 % 14.11 C
827 19-09-2018 10:00:00 17.56667 C 88.6667 % 15.67 C
828 19-09-2018 11:00:00 21.15 C 74.8333 % 16.51 C
829 19-09-2018 12:00:00 23.81667 C 64.2500 % 16.66 C
830 19-09-2018 13:00:00 25.34167 C 57.5000 % 16.35 C
831 19-09-2018 14:00:00 26.93333 C 51.7500 % 16.17 C
832 19-09-2018 15:00:00 27.68333 C 49.7500 % 16.24 C
833 19-09-2018 16:00:00 27.99167 C 48.1667 % 16.01 C
834 19-09-2018 17:00:00 28.95 C 45.0833 % 15.85 C
835 19-09-2018 18:00:00 28.65833 C 46.3333 % 16.01 C
836 19-09-2018 19:00:00 26.51667 C 52.8333 % 16.11 C
837 19-09-2018 20:00:00 23.71667 C 62.2500 % 16.07 C
838 19-09-2018 21:00:00 21.75833 C 69.4167 % 15.92 C
839 19-09-2018 22:00:00 19.94167 C 75.4167 % 15.47 C
840 19-09-2018 23:00:00 18.5 C 79.6667 % 14.92 C
841 20-09-2018 00:00:00 17.51667 C 82.5833 % 14.52 C
842 20-09-2018 01:00:00 17.06667 C 84.3333 % 14.4 C
843 20-09-2018 02:00:00 16.31667 C 86.4167 % 14.05 C
844 20-09-2018 03:00:00 15.63333 C 87.6667 % 13.6 C
845 20-09-2018 04:00:00 14.39167 C 90.2500 % 12.82 C
846 20-09-2018 05:00:00 13.79167 C 92.0000 % 12.52 C
847 20-09-2018 06:00:00 13.44167 C 93.0833 % 12.35 C
848 20-09-2018 07:00:00 13.275 C 93.5000 % 12.25 C
849 20-09-2018 08:00:00 13.38333 C 94.3333 % 12.49 C
850 20-09-2018 09:00:00 14.38333 C 94.5000 % 13.51 C
Sensor: Nr:Datum:Temp:Feuchte:Taupunkt:
Aussen-T/F 851 20-09-2018 10:00:00 16.05833 C 91.6667 % 14.7 C
852 20-09-2018 11:00:00 20.00833 C 74.0833 % 15.25 C
853 20-09-2018 12:00:00 22.08333 C 65.0833 % 15.22 C
854 20-09-2018 13:00:00 23.51667 C 58.5000 % 14.91 C
855 20-09-2018 14:00:00 25.21667 C 50.0833 % 14.08 C
856 20-09-2018 15:00:00 26.06667 C 43.1667 % 12.58 C
857 20-09-2018 16:00:00 26.63333 C 40.0833 % 11.96 C
858 20-09-2018 17:00:00 27.6 C 38.8333 % 12.34 C
859 20-09-2018 18:00:00 26.85833 C 43.5833 % 13.44 C
860 20-09-2018 19:00:00 23.10833 C 54.0000 % 13.3 C
861 20-09-2018 20:00:00 20.31667 C 62.1667 % 12.84 C
862 20-09-2018 21:00:00 18.8 C 67.7500 % 12.72 C
863 20-09-2018 22:00:00 17.64167 C 72.9167 % 12.73 C
864 20-09-2018 23:00:00 17.00833 C 76.5000 % 12.85 C
865 21-09-2018 00:00:00 16.43333 C 79.5000 % 12.88 C
866 21-09-2018 01:00:00 16.1 C 82.5833 % 13.14 C
867 21-09-2018 02:00:00 15.78333 C 84.4167 % 13.16 C
868 21-09-2018 03:00:00 15.79167 C 85.2500 % 13.32 C
869 21-09-2018 04:00:00 15.625 C 85.5000 % 13.2 C
870 21-09-2018 05:00:00 15.74167 C 86.0000 % 13.41 C
871 21-09-2018 06:00:00 15.78333 C 85.5000 % 13.36 C
872 21-09-2018 07:00:00 16.20833 C 83.8333 % 13.47 C
873 21-09-2018 08:00:00 17.21667 C 82.2500 % 14.16 C
874 21-09-2018 09:00:00 20.75833 C 68.8333 % 14.83 C
875 21-09-2018 10:00:00 22.24167 C 59.0000 % 13.85 C
Sensor: Nr:Datum:Temp:Feuchte:Taupunkt:
Aussen-T/F 876 21-09-2018 11:00:00 22.65 C 56.8333 % 13.66 C
877 21-09-2018 12:00:00 21.86667 C 64.4167 % 14.85 C
878 21-09-2018 13:00:00 17.59167 C 80.2500 % 14.15 C
879 21-09-2018 14:00:00 13.98333 C 91.4167 % 12.61 C
880 21-09-2018 15:00:00 14.51667 C 93.6667 % 13.51 C
881 21-09-2018 16:00:00 14.78333 C 92.7500 % 13.62 C
882 21-09-2018 17:00:00 14.025 C 79.5833 % 10.55 C
883 21-09-2018 18:00:00 14.01667 C 73.0833 % 9.28 C
884 21-09-2018 19:00:00 14.04167 C 69.6667 % 8.59 C
885 21-09-2018 20:00:00 11.88333 C 79.3333 % 8.42 C
886 21-09-2018 21:00:00 10.99167 C 81.8333 % 8.01 C
887 21-09-2018 22:00:00 12.05 C 73.9167 % 7.55 C
888 21-09-2018 23:00:00 12.35 C 71.2500 % 7.3 C
889 22-09-2018 00:00:00 12.4 C 69.5833 % 7 C
890 22-09-2018 01:00:00 12.15 C 70.7500 % 7 C
891 22-09-2018 02:00:00 11.225 C 74.8333 % 6.93 C
892 22-09-2018 03:00:00 10.60833 C 77.6667 % 6.87 C
893 22-09-2018 04:00:00 10.275 C 80.4167 % 7.06 C
894 22-09-2018 05:00:00 10.71667 C 80.0833 % 7.43 C
895 22-09-2018 06:00:00 10.63333 C 80.8333 % 7.48 C
896 22-09-2018 07:00:00 10.59167 C 81.1667 % 7.5 C
897 22-09-2018 08:00:00 10.73333 C 81.8333 % 7.76 C
898 22-09-2018 09:00:00 11.63333 C 79.5833 % 8.23 C
899 22-09-2018 10:00:00 12.6 C 77.0833 % 8.7 C
900 22-09-2018 11:00:00 14.01667 C 72.2500 % 9.1 C
Sensor: Nr:Datum:Temp:Feuchte:Taupunkt:
Aussen-T/F 901 22-09-2018 12:00:00 15.33333 C 68.5000 % 9.58 C
902 22-09-2018 13:00:00 16.56667 C 64.5000 % 9.85 C
903 22-09-2018 14:00:00 17.1 C 60.8333 % 9.49 C
904 22-09-2018 15:00:00 17.05 C 60.0000 % 9.23 C
905 22-09-2018 16:00:00 17.29167 C 57.9167 % 8.94 C
906 22-09-2018 17:00:00 15.05833 C 69.6667 % 9.56 C
907 22-09-2018 18:00:00 12.925 C 83.7500 % 10.24 C
908 22-09-2018 19:00:00 11.975 C 89.0000 % 10.22 C
909 22-09-2018 20:00:00 11.50833 C 92.1667 % 10.28 C
910 22-09-2018 21:00:00 11.31667 C 93.2500 % 10.27 C
911 22-09-2018 22:00:00 11.23333 C 94.0000 % 10.3 C
912 22-09-2018 23:00:00 11.21667 C 94.2500 % 10.33 C
913 23-09-2018 00:00:00 11.26667 C 95.0000 % 10.5 C
914 23-09-2018 01:00:00 11.25 C 95.0000 % 10.48 C
915 23-09-2018 02:00:00 11.23333 C 95.5833 % 10.55 C
916 23-09-2018 03:00:00 11.3 C 96.0000 % 10.69 C
917 23-09-2018 04:00:00 11.3 C 96.0000 % 10.69 C
918 23-09-2018 05:00:00 11.35833 C 96.0000 % 10.74 C
919 23-09-2018 06:00:00 11.45 C 96.0000 % 10.84 C
920 23-09-2018 07:00:00 11.61667 C 96.0000 % 11 C
921 23-09-2018 08:00:00 11.9 C 96.2500 % 11.32 C
922 23-09-2018 09:00:00 12.44167 C 97.0000 % 11.98 C
923 23-09-2018 10:00:00 13.04167 C 97.0000 % 12.58 C
924 23-09-2018 11:00:00 13.8 C 97.0000 % 13.33 C
925 23-09-2018 12:00:00 14.5 C 97.0000 % 14.03 C
Sensor: Nr:Datum:Temp:Feuchte:Taupunkt:
Aussen-T/F 926 23-09-2018 13:00:00 15.45833 C 97.0000 % 14.98 C
927 23-09-2018 14:00:00 18.925 C 97.4167 % 18.51 C
928 23-09-2018 15:00:00 16.93333 C 91.4167 % 15.53 C
929 23-09-2018 16:00:00 13.29167 C 93.7500 % 12.31 C
930 23-09-2018 17:00:00 12.68333 C 92.5000 % 11.5 C
931 23-09-2018 18:00:00 11.94167 C 90.5833 % 10.45 C
932 23-09-2018 19:00:00 11.09167 C 91.2500 % 9.72 C
933 23-09-2018 20:00:00 10.44167 C 90.5000 % 8.96 C
934 23-09-2018 21:00:00 9.55 C 89.6667 % 7.94 C
935 23-09-2018 22:00:00 9.56667 C 91.0833 % 8.19 C
936 23-09-2018 23:00:00 9.59167 C 91.0000 % 8.2 C
937 24-09-2018 00:00:00 9.7 C 91.1667 % 8.33 C
938 24-09-2018 01:00:00 9.69167 C 91.4167 % 8.36 C
939 24-09-2018 02:00:00 9.30833 C 91.4167 % 7.98 C
940 24-09-2018 03:00:00 8.88333 C 92.8333 % 7.79 C
941 24-09-2018 04:00:00 8.59167 C 93.4167 % 7.59 C
942 24-09-2018 05:00:00 8.15833 C 94.0833 % 7.26 C
943 24-09-2018 06:00:00 7.95 C 94.4167 % 7.11 C
944 24-09-2018 07:00:00 7.10833 C 94.5833 % 6.3 C
945 24-09-2018 08:00:00 7.29167 C 95.0833 % 6.56 C
946 24-09-2018 09:00:00 7.475 C 95.5833 % 6.82 C
947 24-09-2018 10:00:00 8.55833 C 95.8333 % 7.93 C
948 24-09-2018 11:00:00 11.31667 C 79.8333 % 7.97 C
949 24-09-2018 12:00:00 12.9 C 70.5833 % 7.69 C
950 24-09-2018 13:00:00 13.51667 C 65.7500 % 7.24 C
Sensor: Nr:Datum:Temp:Feuchte:Taupunkt:
Aussen-T/F 951 24-09-2018 14:00:00 13.65833 C 66.3333 % 7.5 C
952 24-09-2018 15:00:00 14.16667 C 62.4167 % 7.1 C
953 24-09-2018 16:00:00 13.75 C 65.7500 % 7.46 C
954 24-09-2018 17:00:00 13.03333 C 71.9167 % 8.09 C
955 24-09-2018 18:00:00 11.125 C 88.2500 % 9.26 C
956 24-09-2018 19:00:00 9.975 C 87.6667 % 8.03 C
957 24-09-2018 20:00:00 8.925 C 91.0000 % 7.54 C
958 24-09-2018 21:00:00 8.40833 C 92.3333 % 7.24 C
959 24-09-2018 22:00:00 7.76667 C 93.0000 % 6.71 C
960 24-09-2018 23:00:00 6.91667 C 93.7500 % 5.98 C
961 25-09-2018 00:00:00 7.25 C 95.0000 % 6.5 C
962 25-09-2018 01:00:00 6.73333 C 94.8333 % 5.96 C
963 25-09-2018 02:00:00 5.94167 C 95.0000 % 5.2 C
964 25-09-2018 03:00:00 5.35833 C 95.0000 % 4.62 C
965 25-09-2018 04:00:00 5.00833 C 95.3333 % 4.33 C
966 25-09-2018 05:00:00 4.74167 C 95.6667 % 4.11 C
967 25-09-2018 06:00:00 5.2 C 96.0000 % 4.62 C
968 25-09-2018 07:00:00 5.1 C 96.0000 % 4.52 C
969 25-09-2018 08:00:00 5.19167 C 96.0000 % 4.61 C
970 25-09-2018 09:00:00 5.64167 C 96.9167 % 5.19 C
971 25-09-2018 10:00:00 6.16667 C 97.0000 % 5.73 C
972 25-09-2018 11:00:00 7.15 C 97.0000 % 6.71 C
973 25-09-2018 12:00:00 8.21667 C 97.0000 % 7.77 C
974 25-09-2018 13:00:00 10.325 C 88.6667 % 8.54 C
975 25-09-2018 14:00:00 13.325 C 69.9167 % 7.96 C
Sensor: Nr:Datum:Temp:Feuchte:Taupunkt:
Aussen-T/F 976 25-09-2018 15:00:00 13.99167 C 64.7500 % 7.47 C
977 25-09-2018 16:00:00 14.83333 C 55.4167 % 6 C
978 25-09-2018 17:00:00 15.38333 C 57.0000 % 6.92 C
979 25-09-2018 18:00:00 13.44167 C 67.6667 % 7.59 C
980 25-09-2018 19:00:00 11.00833 C 72.2500 % 6.21 C
981 25-09-2018 20:00:00 9.625 C 75.0833 % 5.43 C
982 25-09-2018 21:00:00 8.23333 C 83.2500 % 5.57 C
983 25-09-2018 22:00:00 7.10833 C 87.5833 % 5.19 C
984 25-09-2018 23:00:00 6.33333 C 89.5000 % 4.74 C
985 26-09-2018 00:00:00 5.55 C 91.1667 % 4.23 C
986 26-09-2018 01:00:00 5.05 C 92.3333 % 3.91 C
987 26-09-2018 02:00:00 4.48333 C 93.1667 % 3.48 C
988 26-09-2018 03:00:00 4.18333 C 94.0000 % 3.31 C
989 26-09-2018 04:00:00 4.11667 C 94.5000 % 3.31 C
990 26-09-2018 05:00:00 3.94167 C 94.9167 % 3.2 C
991 26-09-2018 06:00:00 3.60833 C 95.0000 % 2.88 C
992 26-09-2018 07:00:00 3.24167 C 95.0000 % 2.52 C
993 26-09-2018 08:00:00 3.71667 C 95.6667 % 3.09 C
994 26-09-2018 09:00:00 4.88333 C 96.0000 % 4.3 C
995 26-09-2018 10:00:00 6.00833 C 96.0000 % 5.42 C
996 26-09-2018 11:00:00 8.21667 C 91.9167 % 6.98 C
997 26-09-2018 12:00:00 10.99167 C 77.8333 % 7.28 C
998 26-09-2018 13:00:00 13.08333 C 68.0000 % 7.32 C
999 26-09-2018 14:00:00 14.50833 C 60.4167 % 6.95 C
1000 26-09-2018 15:00:00 14.95833 C 59.7500 % 7.21 C
Sensor: Nr:Datum:Temp:Feuchte:Taupunkt:
Aussen-T/F 1001 26-09-2018 16:00:00 15.64167 C 60.7500 % 8.09 C
1002 26-09-2018 17:00:00 16.28333 C 65.1667 % 9.74 C
1003 26-09-2018 18:00:00 17.05 C 64.3333 % 10.27 C
1004 26-09-2018 19:00:00 13.925 C 69.1667 % 8.37 C
1005 26-09-2018 20:00:00 11.6 C 78.0000 % 7.9 C
1006 26-09-2018 21:00:00 9.925 C 82.1667 % 7.03 C
1007 26-09-2018 22:00:00 8.825 C 84.1667 % 6.3 C
1008 26-09-2018 23:00:00 8.10833 C 85.7500 % 5.87 C
1009 27-09-2018 00:00:00 7.59167 C 87.0000 % 5.57 C
1010 27-09-2018 01:00:00 7.225 C 89.3333 % 5.59 C
1011 27-09-2018 02:00:00 6.93333 C 90.9167 % 5.56 C
1012 27-09-2018 03:00:00 6.90833 C 91.5833 % 5.64 C
1013 27-09-2018 04:00:00 6.25 C 92.4167 % 5.11 C
1014 27-09-2018 05:00:00 5.88333 C 93.6667 % 4.94 C
1015 27-09-2018 06:00:00 5.46667 C 94.0000 % 4.58 C
1016 27-09-2018 07:00:00 5.125 C 94.2500 % 4.28 C
1017 27-09-2018 08:00:00 5.25 C 95.0000 % 4.52 C
1018 27-09-2018 09:00:00 5.8 C 95.5833 % 5.15 C
1019 27-09-2018 10:00:00 6.95833 C 96.0000 % 6.37 C
1020 27-09-2018 11:00:00 9.03333 C 95.9167 % 8.42 C
1021 27-09-2018 12:00:00 11.54167 C 92.5000 % 10.37 C
1022 27-09-2018 13:00:00 14.38333 C 85.7500 % 12.03 C
1023 27-09-2018 14:00:00 18.59167 C 70.4167 % 13.11 C
1024 27-09-2018 15:00:00 19.5 C 64.8333 % 12.71 C
1025 27-09-2018 16:00:00 18.84167 C 65.5833 % 12.26 C
Sensor: Nr:Datum:Temp:Feuchte:Taupunkt:
Aussen-T/F 1026 27-09-2018 17:00:00 19.35833 C 63.0833 % 12.16 C
1027 27-09-2018 18:00:00 20.225 C 61.9167 % 12.69 C
1028 27-09-2018 19:00:00 17.625 C 68.3333 % 11.73 C
1029 27-09-2018 20:00:00 15.275 C 75.7500 % 11.02 C
1030 27-09-2018 21:00:00 14.10833 C 79.9167 % 10.7 C
1031 27-09-2018 22:00:00 12.7 C 82.7500 % 9.85 C
1032 27-09-2018 23:00:00 11.275 C 87.6667 % 9.31 C
1033 28-09-2018 00:00:00 11.44167 C 87.5833 % 9.46 C
1034 28-09-2018 01:00:00 10.325 C 89.6667 % 8.7 C
1035 28-09-2018 02:00:00 9.575 C 91.3333 % 8.23 C
1036 28-09-2018 03:00:00 8.78333 C 92.5833 % 7.65 C
1037 28-09-2018 04:00:00 8.26667 C 93.6667 % 7.31 C
1038 28-09-2018 05:00:00 7.70833 C 94.0000 % 6.81 C
1039 28-09-2018 06:00:00 7.44167 C 94.5833 % 6.63 C
1040 28-09-2018 07:00:00 6.93333 C 94.9167 % 6.18 C
1041 28-09-2018 08:00:00 7.175 C 95.7500 % 6.54 C
1042 28-09-2018 09:00:00 7.475 C 96.0000 % 6.88 C
1043 28-09-2018 10:00:00 8.88333 C 96.3333 % 8.33 C
1044 28-09-2018 11:00:00 11.73333 C 95.2500 % 11 C
1045 28-09-2018 12:00:00 14.625 C 80.2500 % 11.26 C
1046 28-09-2018 13:00:00 15.03333 C 78.6667 % 11.36 C
1047 28-09-2018 14:00:00 13.125 C 87.3333 % 11.07 C
1048 28-09-2018 15:00:00 12.67778 C 90.8889 % 11.23 C
1049 28-09-2018 16:00:00 12.5 C 91.5000 % 11.15 C
1050 28-09-2018 17:00:00 12.56667 C 90.9167 % 11.12 C
Sensor: Nr:Datum:Temp:Feuchte:Taupunkt:
Aussen-T/F 1051 28-09-2018 18:00:00 12.63333 C 87.6667 % 10.64 C
1052 28-09-2018 19:00:00 11.7 C 87.7500 % 9.74 C
1053 28-09-2018 20:00:00 10 C 90.6667 % 8.55 C
1054 28-09-2018 21:00:00 9.16667 C 92.2500 % 7.98 C
1055 28-09-2018 22:00:00 8.16667 C 93.0000 % 7.1 C
1056 28-09-2018 23:00:00 7.13333 C 93.7500 % 6.2 C
1057 29-09-2018 00:00:00 6.475 C 94.0833 % 5.59 C
1058 29-09-2018 01:00:00 6.05833 C 94.7500 % 5.28 C
1059 29-09-2018 02:00:00 5.39167 C 94.6667 % 4.61 C
1060 29-09-2018 03:00:00 4.8 C 95.0000 % 4.07 C
1061 29-09-2018 04:00:00 4.31667 C 95.0000 % 3.59 C
1062 29-09-2018 05:00:00 4.10833 C 95.1667 % 3.41 C
1063 29-09-2018 06:00:00 3.81667 C 95.5833 % 3.18 C
1064 29-09-2018 07:00:00 3.33333 C 95.5000 % 2.68 C
1065 29-09-2018 08:00:00 3.49167 C 96.0000 % 2.92 C
1066 29-09-2018 09:00:00 4.175 C 96.2500 % 3.63 C
1067 29-09-2018 10:00:00 5.69167 C 97.0000 % 5.25 C
1068 29-09-2018 11:00:00 7.59167 C 97.0000 % 7.15 C
1069 29-09-2018 12:00:00 9.71667 C 86.4167 % 7.56 C
1070 29-09-2018 13:00:00 12.59167 C 65.7500 % 6.36 C
1071 29-09-2018 14:00:00 14.71667 C 56.5000 % 6.17 C
1072 29-09-2018 15:00:00 14.95833 C 53.0833 % 5.49 C
1073 29-09-2018 16:00:00 15.40833 C 50.8333 % 5.29 C
1074 29-09-2018 17:00:00 16.225 C 52.9167 % 6.62 C
1075 29-09-2018 18:00:00 14.84167 C 62.0833 % 7.66 C
Sensor: Nr:Datum:Temp:Feuchte:Taupunkt:
Aussen-T/F 1076 29-09-2018 19:00:00 11.45 C 68.7500 % 5.92 C
1077 29-09-2018 20:00:00 9.70833 C 72.3333 % 4.98 C
1078 29-09-2018 21:00:00 7.8 C 79.1667 % 4.42 C
1079 29-09-2018 22:00:00 6.51667 C 83.8333 % 3.99 C
1080 29-09-2018 23:00:00 5.875 C 85.6667 % 3.66 C
1081 30-09-2018 00:00:00 4.94167 C 88.1667 % 3.15 C
1082 30-09-2018 01:00:00 4.275 C 90.3333 % 2.84 C
1083 30-09-2018 02:00:00 3.94167 C 91.6667 % 2.71 C
1084 30-09-2018 03:00:00 3.48333 C 92.1667 % 2.33 C
1085 30-09-2018 04:00:00 3.2 C 93.5833 % 2.27 C
1086 30-09-2018 05:00:00 2.725 C 93.6667 % 1.81 C
1087 30-09-2018 06:00:00 2.16667 C 94.0000 % 1.3 C
1088 30-09-2018 07:00:00 1.91667 C 94.5000 % 1.13 C
1089 30-09-2018 08:00:00 2.51667 C 95.0000 % 1.8 C
1090 30-09-2018 09:00:00 3.13333 C 95.3333 % 2.46 C
1091 30-09-2018 10:00:00 3.75833 C 95.5833 % 3.12 C
1092 30-09-2018 11:00:00 5.24 C 96.0000 % 4.66 C
1093 30-09-2018 12:00:00 8.10833 C 94.2500 % 7.24 C
1094 30-09-2018 13:00:00 10.90833 C 85.3333 % 8.55 C
1095 30-09-2018 14:00:00 15.09167 C 61.0833 % 7.66 C
1096 30-09-2018 15:00:00 15.70833 C 55.8333 % 6.92 C
1097 30-09-2018 16:00:00 14.85833 C 62.6667 % 7.81 C
1098 30-09-2018 17:00:00 15.23333 C 64.4167 % 8.57 C
1099 30-09-2018 18:00:00 15.04167 C 65.0000 % 8.52 C
1100 30-09-2018 19:00:00 12.71667 C 68.8333 % 7.15 C
Sensor: Nr:Datum:Temp:Feuchte:Taupunkt:
Aussen-T/F 1101 30-09-2018 20:00:00 11.3 C 73.5000 % 6.74 C
1102 30-09-2018 21:00:00 10.33333 C 77.6667 % 6.61 C
1103 30-09-2018 22:00:00 9.64167 C 80.9167 % 6.53 C
1104 30-09-2018 23:00:00 8.80833 C 82.4167 % 5.98 C
1105 01-10-2018 00:00:00 7.95833 C 85.5833 % 5.69 C
1106 01-10-2018 01:00:00 7.575 C 87.5833 % 5.65 C
1107 01-10-2018 02:00:00 7.28333 C 89.5000 % 5.67 C
1108 01-10-2018 03:00:00 7.35833 C 90.8333 % 5.96 C
1109 01-10-2018 04:00:00 7.3 C 91.3333 % 5.98 C
1110 01-10-2018 05:00:00 7.83333 C 92.0000 % 6.62 C
1111 01-10-2018 06:00:00 8.23333 C 92.0000 % 7.01 C
1112 01-10-2018 07:00:00 8.49167 C 91.7500 % 7.23 C
1113 01-10-2018 08:00:00 8.64167 C 92.0000 % 7.42 C
1114 01-10-2018 09:00:00 9.73333 C 90.7500 % 8.3 C
1115 01-10-2018 10:00:00 10.99167 C 84.3333 % 8.45 C
1116 01-10-2018 11:00:00 11.91667 C 77.3333 % 8.08 C
1117 01-10-2018 12:00:00 12.75833 C 70.5833 % 7.55 C
1118 01-10-2018 13:00:00 12.88333 C 69.0833 % 7.36 C
1119 01-10-2018 14:00:00 13.01667 C 68.4167 % 7.34 C
1120 01-10-2018 15:00:00 12.55 C 71.0000 % 7.44 C
1121 01-10-2018 16:00:00 11.575 C 72.4167 % 6.79 C
1122 01-10-2018 17:00:00 11.19167 C 71.1667 % 6.17 C
1123 01-10-2018 18:00:00 11 C 71.3333 % 6.02 C
1124 01-10-2018 19:00:00 9.94167 C 77.0000 % 6.1 C
1125 01-10-2018 20:00:00 9.83333 C 73.7500 % 5.38 C
Sensor: Nr:Datum:Temp:Feuchte:Taupunkt:
Aussen-T/F 1126 01-10-2018 21:00:00 9.45833 C 76.0833 % 5.46 C
1127 01-10-2018 22:00:00 8.45 C 80.0833 % 5.22 C
1128 01-10-2018 23:00:00 7.23333 C 84.7500 % 4.84 C
1129 02-10-2018 00:00:00 6.975 C 87.0833 % 4.98 C
1130 02-10-2018 01:00:00 7.25833 C 86.9167 % 5.23 C
1131 02-10-2018 02:00:00 7.64167 C 86.8333 % 5.59 C
1132 02-10-2018 03:00:00 7.625 C 86.7500 % 5.56 C
1133 02-10-2018 04:00:00 7.75 C 85.0833 % 5.41 C
1134 02-10-2018 05:00:00 7.71667 C 85.0000 % 5.36 C
1135 02-10-2018 06:00:00 7.75833 C 85.0000 % 5.4 C
1136 02-10-2018 07:00:00 7.86667 C 85.0000 % 5.51 C
1137 02-10-2018 08:00:00 8.31667 C 83.2500 % 5.65 C
1138 02-10-2018 09:00:00 8.79167 C 81.0000 % 5.72 C
1139 02-10-2018 10:00:00 8.7 C 85.4167 % 6.39 C
1140 02-10-2018 11:00:00 8.53333 C 88.0833 % 6.68 C
1141 02-10-2018 12:00:00 8.75 C 88.2500 % 6.92 C
1142 02-10-2018 13:00:00 8.75833 C 90.9167 % 7.36 C
1143 02-10-2018 14:00:00 9.24167 C 90.4167 % 7.76 C
1144 02-10-2018 15:00:00 9.75 C 89.5833 % 8.12 C
1145 02-10-2018 16:00:00 10.24167 C 88.4167 % 8.41 C
1146 02-10-2018 17:00:00 10.75 C 88.3333 % 8.9 C
1147 02-10-2018 18:00:00 10.975 C 88.6667 % 9.18 C
1148 02-10-2018 19:00:00 11.025 C 89.8333 % 9.42 C
1149 02-10-2018 20:00:00 11.275 C 90.0000 % 9.7 C
1150 02-10-2018 21:00:00 11.325 C 90.1667 % 9.77 C
Sensor: Nr:Datum:Temp:Feuchte:Taupunkt:
Aussen-T/F 1151 02-10-2018 22:00:00 11.475 C 91.0000 % 10.06 C
1152 02-10-2018 23:00:00 11.725 C 90.5000 % 10.22 C
1153 03-10-2018 00:00:00 11.79167 C 91.2500 % 10.41 C
1154 03-10-2018 01:00:00 11.6 C 92.0833 % 10.36 C
1155 03-10-2018 02:00:00 11.56667 C 93.1667 % 10.5 C
1156 03-10-2018 03:00:00 11.90833 C 92.9167 % 10.8 C
1157 03-10-2018 04:00:00 11.44167 C 93.4167 % 10.42 C
1158 03-10-2018 05:00:00 11.19167 C 94.0000 % 10.26 C
1159 03-10-2018 06:00:00 10.79167 C 94.3333 % 9.92 C
1160 03-10-2018 07:00:00 10.45833 C 94.9167 % 9.68 C
1161 03-10-2018 08:00:00 10.4 C 95.0000 % 9.63 C
1162 03-10-2018 09:00:00 10.94167 C 94.9167 % 10.16 C
1163 03-10-2018 10:00:00 12.16667 C 91.4167 % 10.81 C
1164 03-10-2018 11:00:00 13.71667 C 78.6667 % 10.08 C
1165 03-10-2018 12:00:00 14.58333 C 72.3333 % 9.67 C
1166 03-10-2018 13:00:00 14.875 C 68.1667 % 9.07 C
1167 03-10-2018 14:00:00 15.45 C 62.1667 % 8.25 C
1168 03-10-2018 15:00:00 15.66667 C 60.4167 % 8.04 C
1169 03-10-2018 16:00:00 15.725 C 59.0833 % 7.76 C
1170 03-10-2018 17:00:00 15.38333 C 60.5833 % 7.81 C
1171 03-10-2018 18:00:00 14.89167 C 64.4167 % 8.25 C
1172 03-10-2018 19:00:00 12.775 C 73.5000 % 8.16 C
1173 03-10-2018 20:00:00 11.18333 C 79.1667 % 7.71 C
1174 03-10-2018 21:00:00 9.59167 C 84.6667 % 7.14 C
1175 03-10-2018 22:00:00 8.55833 C 88.6667 % 6.8 C
Sensor: Nr:Datum:Temp:Feuchte:Taupunkt:
Aussen-T/F 1176 03-10-2018 23:00:00 8.08333 C 90.0000 % 6.54 C
1177 04-10-2018 00:00:00 7.50833 C 91.0000 % 6.14 C
1178 04-10-2018 01:00:00 6.65 C 92.0000 % 5.45 C
1179 04-10-2018 02:00:00 6.04167 C 93.0000 % 5 C
1180 04-10-2018 03:00:00 5.76667 C 94.0000 % 4.88 C
1181 04-10-2018 04:00:00 5.5 C 94.2500 % 4.65 C
1182 04-10-2018 05:00:00 5.125 C 94.4167 % 4.3 C
1183 04-10-2018 06:00:00 4.775 C 95.0000 % 4.04 C
1184 04-10-2018 07:00:00 4.46667 C 95.0000 % 3.74 C
1185 04-10-2018 08:00:00 4.70833 C 95.5833 % 4.06 C
1186 04-10-2018 09:00:00 6.38333 C 96.0000 % 5.79 C
1187 04-10-2018 10:00:00 7.94167 C 94.8333 % 7.17 C
1188 04-10-2018 11:00:00 10.325 C 89.6667 % 8.7 C
1189 04-10-2018 12:00:00 12.05 C 85.6667 % 9.72 C
1190 04-10-2018 13:00:00 12.825 C 85.9167 % 10.53 C
1191 04-10-2018 14:00:00 14.70833 C 79.4167 % 11.19 C
1192 04-10-2018 15:00:00 16.64167 C 67.7500 % 10.66 C
1193 04-10-2018 16:00:00 17.00833 C 66.3333 % 10.69 C
1194 04-10-2018 17:00:00 17.48333 C 67.5000 % 11.41 C
1195 04-10-2018 18:00:00 16.2 C 73.7500 % 11.51 C
1196 04-10-2018 19:00:00 13.575 C 80.9167 % 10.36 C
1197 04-10-2018 20:00:00 11.575 C 86.6667 % 9.43 C
1198 04-10-2018 21:00:00 10.16667 C 89.6667 % 8.55 C
1199 04-10-2018 22:00:00 9.05833 C 91.5000 % 7.75 C
1200 04-10-2018 23:00:00 8.25 C 92.6667 % 7.13 C
Sensor: Nr:Datum:Temp:Feuchte:Taupunkt:
Aussen-T/F 1201 05-10-2018 00:00:00 7.625 C 93.2500 % 6.61 C
1202 05-10-2018 01:00:00 7.35833 C 94.3333 % 6.51 C
1203 05-10-2018 02:00:00 6.625 C 94.2500 % 5.77 C
1204 05-10-2018 03:00:00 5.98333 C 94.9167 % 5.23 C
1205 05-10-2018 04:00:00 5.675 C 95.0000 % 4.94 C
1206 05-10-2018 05:00:00 5.39167 C 95.1667 % 4.68 C
1207 05-10-2018 06:00:00 5.775 C 96.0000 % 5.19 C
1208 05-10-2018 07:00:00 5.69167 C 96.0000 % 5.1 C
1209 05-10-2018 08:00:00 5.56667 C 96.0000 % 4.98 C
1210 05-10-2018 09:00:00 5.675 C 96.0833 % 5.1 C
1211 05-10-2018 10:00:00 6.75833 C 96.8333 % 6.29 C
1212 05-10-2018 11:00:00 7.90833 C 97.0000 % 7.46 C
1213 05-10-2018 12:00:00 10.325 C 97.0000 % 9.87 C
1214 05-10-2018 13:00:00 12.65 C 96.7500 % 12.15 C
1215 05-10-2018 14:00:00 16.525 C 81.6667 % 13.38 C
1216 05-10-2018 15:00:00 19 C 67.9167 % 12.94 C
1217 05-10-2018 16:00:00 19.64167 C 63.0000 % 12.41 C
1218 05-10-2018 17:00:00 18.96667 C 68.7500 % 13.1 C
1219 05-10-2018 18:00:00 18.20833 C 70.5833 % 12.78 C
1220 05-10-2018 19:00:00 15.025 C 79.5833 % 11.53 C
1221 05-10-2018 20:00:00 13.68333 C 84.0833 % 11.05 C
1222 05-10-2018 21:00:00 12.90833 C 85.5000 % 10.54 C
1223 05-10-2018 22:00:00 11.69167 C 87.9167 % 9.76 C
1224 05-10-2018 23:00:00 10.46667 C 91.0000 % 9.06 C
1225 06-10-2018 00:00:00 9.78333 C 92.8333 % 8.68 C
Sensor: Nr:Datum:Temp:Feuchte:Taupunkt:
Aussen-T/F 1226 06-10-2018 01:00:00 9.19167 C 93.7500 % 8.24 C
1227 06-10-2018 02:00:00 8.7 C 94.4167 % 7.85 C
1228 06-10-2018 03:00:00 8.69167 C 95.0833 % 7.95 C
1229 06-10-2018 04:00:00 8.16667 C 95.0000 % 7.41 C
1230 06-10-2018 05:00:00 7.85 C 95.3333 % 7.15 C
1231 06-10-2018 06:00:00 7.34167 C 95.4167 % 6.66 C
1232 06-10-2018 07:00:00 6.975 C 95.8333 % 6.36 C
1233 06-10-2018 08:00:00 7.31667 C 96.0000 % 6.72 C
1234 06-10-2018 09:00:00 7.6 C 96.2500 % 7.04 C
1235 06-10-2018 10:00:00 8.925 C 97.0000 % 8.48 C
1236 06-10-2018 11:00:00 11.25833 C 97.0833 % 10.81 C
1237 06-10-2018 12:00:00 13.38333 C 97.3333 % 12.97 C
1238 06-10-2018 13:00:00 15.61667 C 95.8333 % 14.95 C
1239 06-10-2018 14:00:00 19.64167 C 76.2500 % 15.35 C
1240 06-10-2018 15:00:00 21.15 C 68.7500 % 15.18 C
1241 06-10-2018 16:00:00 21.10833 C 71.4167 % 15.74 C
1242 06-10-2018 17:00:00 20.33333 C 72.6667 % 15.26 C
1243 06-10-2018 18:00:00 19.15833 C 75.1667 % 14.66 C
1244 06-10-2018 19:00:00 17.275 C 80.6667 % 13.92 C
1245 06-10-2018 20:00:00 15.71667 C 84.8333 % 13.17 C
1246 06-10-2018 21:00:00 14.45833 C 88.5000 % 12.58 C
1247 06-10-2018 22:00:00 13.825 C 89.9167 % 12.2 C
1248 06-10-2018 23:00:00 12.99167 C 90.6667 % 11.5 C
1249 07-10-2018 00:00:00 12.16667 C 92.2500 % 10.95 C
1250 07-10-2018 01:00:00 11.55833 C 93.5000 % 10.55 C
Sensor: Nr:Datum:Temp:Feuchte:Taupunkt:
Aussen-T/F 1251 07-10-2018 02:00:00 11.75 C 94.8333 % 10.95 C
1252 07-10-2018 03:00:00 11.95 C 95.0000 % 11.17 C
1253 07-10-2018 04:00:00 12.10833 C 94.9167 % 11.32 C
1254 07-10-2018 05:00:00 11.65 C 94.5833 % 10.81 C
1255 07-10-2018 06:00:00 11.14167 C 94.9167 % 10.36 C
1256 07-10-2018 07:00:00 11.61667 C 96.0833 % 11.01 C
1257 07-10-2018 08:00:00 13.025 C 96.1667 % 12.43 C
1258 07-10-2018 09:00:00 13.38333 C 94.3333 % 12.49 C
1259 07-10-2018 10:00:00 14.08333 C 92.3333 % 12.86 C
1260 07-10-2018 11:00:00 14.71667 C 90.3333 % 13.15 C
1261 07-10-2018 12:00:00 14.21667 C 89.1667 % 12.46 C
1262 07-10-2018 13:00:00 14.275 C 87.0833 % 12.16 C
1263 07-10-2018 14:00:00 14.625 C 84.5000 % 12.04 C
1264 07-10-2018 15:00:00 14.44167 C 82.6667 % 11.53 C
1265 07-10-2018 16:00:00 14.35833 C 80.2500 % 11 C
1266 07-10-2018 17:00:00 14.525 C 78.5833 % 10.85 C
1267 07-10-2018 18:00:00 14.24167 C 79.2500 % 10.7 C
1268 07-10-2018 19:00:00 13.70833 C 82.9167 % 10.86 C
1269 07-10-2018 20:00:00 13.15833 C 84.8333 % 10.67 C
1270 07-10-2018 21:00:00 12.76667 C 86.0000 % 10.49 C
1271 07-10-2018 22:00:00 12.01667 C 85.9167 % 9.74 C
1272 07-10-2018 23:00:00 10.575 C 87.5833 % 8.6 C
1273 08-10-2018 00:00:00 9.575 C 89.1667 % 7.88 C
1274 08-10-2018 01:00:00 8.84167 C 90.5833 % 7.39 C
1275 08-10-2018 02:00:00 8.05833 C 91.4167 % 6.75 C
Sensor: Nr:Datum:Temp:Feuchte:Taupunkt:
Aussen-T/F 1276 08-10-2018 03:00:00 7.35 C 92.6667 % 6.24 C
1277 08-10-2018 04:00:00 6.86667 C 93.5833 % 5.91 C
1278 08-10-2018 05:00:00 6.46667 C 94.0000 % 5.57 C
1279 08-10-2018 06:00:00 6.04167 C 94.5833 % 5.24 C
1280 08-10-2018 07:00:00 6.21667 C 95.0000 % 5.48 C
1281 08-10-2018 08:00:00 6.2 C 95.2500 % 5.5 C
1282 08-10-2018 09:00:00 6.91667 C 96.0000 % 6.32 C
1283 08-10-2018 10:00:00 7.8 C 96.0000 % 7.2 C
1284 08-10-2018 11:00:00 8.78333 C 96.0000 % 8.18 C
1285 08-10-2018 12:00:00 10.5 C 94.7500 % 9.69 C
1286 08-10-2018 13:00:00 12.80833 C 87.9167 % 10.86 C
1287 08-10-2018 14:00:00 15.725 C 76.2500 % 11.56 C
1288 08-10-2018 15:00:00 16.73333 C 73.0000 % 11.87 C
1289 08-10-2018 16:00:00 17.19167 C 73.0833 % 12.33 C
1290 08-10-2018 17:00:00 16.81667 C 77.5833 % 12.88 C
1291 08-10-2018 18:00:00 16.01667 C 79.0000 % 12.38 C
1292 08-10-2018 19:00:00 13.91667 C 81.9167 % 10.88 C
1293 08-10-2018 20:00:00 12.425 C 85.7500 % 10.11 C
1294 08-10-2018 21:00:00 11.19167 C 88.7500 % 9.41 C
1295 08-10-2018 22:00:00 10.19167 C 90.7500 % 8.75 C
1296 08-10-2018 23:00:00 9.45 C 92.2500 % 8.26 C
1297 09-10-2018 00:00:00 9 C 93.0000 % 7.93 C
1298 09-10-2018 01:00:00 8.99167 C 94.2500 % 8.12 C
1299 09-10-2018 02:00:00 8.75833 C 94.5000 % 7.93 C
1300 09-10-2018 03:00:00 8.13333 C 94.8333 % 7.36 C
Sensor: Nr:Datum:Temp:Feuchte:Taupunkt:
Aussen-T/F 1301 09-10-2018 04:00:00 7.85833 C 95.0000 % 7.11 C
1302 09-10-2018 05:00:00 7.325 C 95.0000 % 6.58 C
1303 09-10-2018 06:00:00 6.78333 C 95.2500 % 6.08 C
1304 09-10-2018 07:00:00 6.85833 C 96.0000 % 6.27 C
1305 09-10-2018 08:00:00 7.15833 C 96.0000 % 6.56 C
1306 09-10-2018 09:00:00 7.60833 C 96.3333 % 7.06 C
1307 09-10-2018 10:00:00 8.45 C 96.8333 % 7.98 C
1308 09-10-2018 11:00:00 9.66667 C 97.0000 % 9.21 C
1309 09-10-2018 12:00:00 11.475 C 96.9167 % 11 C
1310 09-10-2018 13:00:00 13.20833 C 94.5833 % 12.36 C
1311 09-10-2018 14:00:00 16.06667 C 89.0833 % 14.27 C
1312 09-10-2018 15:00:00 17.925 C 84.3333 % 15.24 C
1313 09-10-2018 16:00:00 19.35 C 79.9167 % 15.8 C
1314 09-10-2018 17:00:00 19 C 80.7500 % 15.62 C
1315 09-10-2018 18:00:00 18.65833 C 78.7500 % 14.9 C
1316 09-10-2018 19:00:00 16.78333 C 83.0833 % 13.9 C
1317 09-10-2018 20:00:00 15.31667 C 85.8333 % 12.96 C
1318 09-10-2018 21:00:00 13.35833 C 90.7500 % 11.88 C
1319 09-10-2018 22:00:00 12.56667 C 93.0000 % 11.47 C
1320 09-10-2018 23:00:00 11.70833 C 93.4167 % 10.68 C
1321 10-10-2018 00:00:00 10.75833 C 94.1667 % 9.86 C
1322 10-10-2018 01:00:00 10.30833 C 95.0000 % 9.54 C
1323 10-10-2018 02:00:00 9.63333 C 95.0000 % 8.87 C
1324 10-10-2018 03:00:00 8.825 C 95.1667 % 8.09 C
1325 10-10-2018 04:00:00 8.91667 C 96.0000 % 8.31 C
Sensor: Nr:Datum:Temp:Feuchte:Taupunkt:
Aussen-T/F 1326 10-10-2018 05:00:00 9.55 C 96.1667 % 8.97 C
1327 10-10-2018 06:00:00 9.58333 C 96.4167 % 9.04 C
1328 10-10-2018 07:00:00 9.31667 C 97.0000 % 8.87 C
1329 10-10-2018 08:00:00 9.54167 C 97.0000 % 9.09 C
1330 10-10-2018 09:00:00 9.84167 C 97.0000 % 9.39 C
1331 10-10-2018 10:00:00 10.675 C 97.0833 % 10.23 C
1332 10-10-2018 11:00:00 11.63333 C 97.2500 % 11.21 C
1333 10-10-2018 12:00:00 12.60833 C 97.6667 % 12.25 C
1334 10-10-2018 13:00:00 14.74167 C 98.0000 % 14.43 C
1335 10-10-2018 14:00:00 16.8 C 95.0000 % 15.99 C
1336 10-10-2018 15:00:00 19.51667 C 75.9167 % 15.16 C
1337 10-10-2018 16:00:00 20.89167 C 70.2500 % 15.27 C
1338 10-10-2018 17:00:00 19.85 C 74.7500 % 15.24 C
1339 10-10-2018 18:00:00 18.5 C 78.1667 % 14.63 C
1340 10-10-2018 19:00:00 16.575 C 82.0000 % 13.49 C
1341 10-10-2018 20:00:00 15.65833 C 84.0000 % 12.96 C
1342 10-10-2018 21:00:00 14.90833 C 86.0000 % 12.59 C
1343 10-10-2018 22:00:00 14.675 C 86.4167 % 12.43 C
1344 10-10-2018 23:00:00 13.8 C 87.3333 % 11.73 C
1345 11-10-2018 00:00:00 12.575 C 90.2500 % 11.02 C
1346 11-10-2018 01:00:00 11.74167 C 92.0833 % 10.5 C
1347 11-10-2018 02:00:00 11.54167 C 93.5833 % 10.54 C
1348 11-10-2018 03:00:00 10.93333 C 93.1667 % 9.87 C
1349 11-10-2018 04:00:00 10.36667 C 94.2500 % 9.48 C
1350 11-10-2018 05:00:00 9.7 C 94.5833 % 8.87 C
Sensor: Nr:Datum:Temp:Feuchte:Taupunkt:
Aussen-T/F 1351 11-10-2018 06:00:00 9.05 C 95.0833 % 8.31 C
1352 11-10-2018 07:00:00 8.79167 C 95.3333 % 8.09 C
1353 11-10-2018 08:00:00 8.83333 C 96.0000 % 8.23 C
1354 11-10-2018 09:00:00 9.325 C 96.0000 % 8.72 C
1355 11-10-2018 10:00:00 10.21667 C 97.0000 % 9.76 C
1356 11-10-2018 11:00:00 12.39167 C 97.0000 % 11.93 C
1357 11-10-2018 12:00:00 14.29167 C 97.0000 % 13.82 C
1358 11-10-2018 13:00:00 16.50833 C 95.4167 % 15.77 C
1359 11-10-2018 14:00:00 19.25833 C 84.5833 % 16.6 C
1360 11-10-2018 15:00:00 20.78333 C 75.3333 % 16.26 C
1361 11-10-2018 16:00:00 21.79167 C 71.4167 % 16.39 C
1362 11-10-2018 17:00:00 21.08333 C 73.7500 % 16.22 C
1363 11-10-2018 18:00:00 21.075 C 68.5833 % 15.07 C
1364 11-10-2018 19:00:00 17.94167 C 76.8333 % 13.82 C
1365 11-10-2018 20:00:00 16.38333 C 83.8333 % 13.64 C
1366 11-10-2018 21:00:00 16.30833 C 84.4167 % 13.68 C
1367 11-10-2018 22:00:00 15.95833 C 85.1667 % 13.47 C
1368 11-10-2018 23:00:00 14.35833 C 87.7500 % 12.35 C
1369 12-10-2018 00:00:00 13.3 C 90.4167 % 11.77 C
1370 12-10-2018 01:00:00 12.40833 C 91.7500 % 11.11 C
1371 12-10-2018 02:00:00 12.14167 C 93.5833 % 11.14 C
1372 12-10-2018 03:00:00 11.74167 C 94.0000 % 10.81 C
1373 12-10-2018 04:00:00 11.23333 C 94.1667 % 10.33 C
1374 12-10-2018 05:00:00 11.01667 C 95.0000 % 10.25 C
1375 12-10-2018 06:00:00 11.14167 C 95.6667 % 10.48 C
Sensor: Nr:Datum:Temp:Feuchte:Taupunkt:
Aussen-T/F 1376 12-10-2018 07:00:00 11.175 C 95.9167 % 10.55 C
1377 12-10-2018 08:00:00 10.94167 C 96.0000 % 10.33 C
1378 12-10-2018 09:00:00 11.575 C 96.2500 % 11 C
1379 12-10-2018 10:00:00 13.14167 C 97.0000 % 12.68 C
1380 12-10-2018 11:00:00 14.73333 C 97.0000 % 14.26 C
1381 12-10-2018 12:00:00 17.425 C 91.9167 % 16.1 C
1382 12-10-2018 13:00:00 21.075 C 77.0000 % 16.89 C
1383 12-10-2018 14:00:00 23.36667 C 67.3333 % 16.97 C
1384 12-10-2018 15:00:00 23.325 C 67.8333 % 17.05 C
1385 12-10-2018 16:00:00 23.075 C 68.8333 % 17.04 C
1386 12-10-2018 17:00:00 22.61667 C 70.8333 % 17.05 C
1387 12-10-2018 18:00:00 21.13333 C 73.4167 % 16.19 C
1388 12-10-2018 19:00:00 19.41667 C 76.5000 % 15.18 C
1389 12-10-2018 20:00:00 18.5 C 78.8333 % 14.76 C
1390 12-10-2018 21:00:00 16.85 C 83.4167 % 14.02 C
1391 12-10-2018 22:00:00 15.425 C 87.2500 % 13.32 C
1392 12-10-2018 23:00:00 14.33333 C 90.3333 % 12.77 C
1393 13-10-2018 00:00:00 13.825 C 91.9167 % 12.53 C
1394 13-10-2018 01:00:00 13.21667 C 92.8333 % 12.08 C
1395 13-10-2018 02:00:00 12.625 C 93.5000 % 11.6 C
1396 13-10-2018 03:00:00 12.10833 C 94.0000 % 11.17 C
1397 13-10-2018 04:00:00 11.70833 C 94.7500 % 10.9 C
1398 13-10-2018 05:00:00 11.39167 C 95.0000 % 10.62 C
1399 13-10-2018 06:00:00 11.01667 C 95.5000 % 10.33 C
1400 13-10-2018 07:00:00 10.875 C 95.8333 % 10.24 C
Sensor: Nr:Datum:Temp:Feuchte:Taupunkt:
Aussen-T/F 1401 13-10-2018 08:00:00 10.73333 C 96.0000 % 10.12 C
1402 13-10-2018 09:00:00 10.96667 C 96.5000 % 10.43 C
1403 13-10-2018 10:00:00 12.43333 C 97.0000 % 11.97 C
1404 13-10-2018 11:00:00 14.5 C 97.0000 % 14.03 C
1405 13-10-2018 12:00:00 16.78333 C 94.3333 % 15.87 C
1406 13-10-2018 13:00:00 20.225 C 78.9167 % 16.45 C
1407 13-10-2018 14:00:00 23.175 C 64.7500 % 16.17 C
1408 13-10-2018 15:00:00 23.3 C 60.6667 % 15.27 C
1409 13-10-2018 16:00:00 22.79167 C 59.8333 % 14.58 C
1410 13-10-2018 17:00:00 21.26667 C 64.0833 % 14.21 C
1411 13-10-2018 18:00:00 20.575 C 65.5833 % 13.91 C
1412 13-10-2018 19:00:00 18.60833 C 70.3333 % 13.11 C
1413 13-10-2018 20:00:00 16.60833 C 77.9167 % 12.74 C
1414 13-10-2018 21:00:00 15.74167 C 80.0000 % 12.3 C
1415 13-10-2018 22:00:00 15.325 C 81.0833 % 12.1 C
1416 13-10-2018 23:00:00 14.11667 C 84.0833 % 11.47 C
1417 14-10-2018 00:00:00 13.05833 C 87.0833 % 10.96 C
1418 14-10-2018 01:00:00 12.225 C 89.5000 % 10.55 C
1419 14-10-2018 02:00:00 11.40833 C 91.5833 % 10.09 C
1420 14-10-2018 03:00:00 10.75 C 92.7500 % 9.63 C
1421 14-10-2018 04:00:00 10.375 C 93.9167 % 9.44 C
1422 14-10-2018 05:00:00 9.91667 C 94.0833 % 9.01 C
1423 14-10-2018 06:00:00 9.58333 C 94.9167 % 8.81 C
1424 14-10-2018 07:00:00 9.45833 C 95.1667 % 8.72 C
1425 14-10-2018 08:00:00 9.5 C 95.8333 % 8.87 C
Sensor: Nr:Datum:Temp:Feuchte:Taupunkt:
Aussen-T/F 1426 14-10-2018 09:00:00 9.90833 C 96.0000 % 9.3 C
1427 14-10-2018 10:00:00 10.91667 C 96.3333 % 10.36 C
1428 14-10-2018 11:00:00 13.375 C 96.7500 % 12.87 C
1429 14-10-2018 12:00:00 16.69167 C 86.6667 % 14.46 C
1430 14-10-2018 13:00:00 19.36667 C 76.2500 % 15.08 C
1431 14-10-2018 14:00:00 22.03333 C 62.1667 % 14.46 C
1432 14-10-2018 15:00:00 22.4 C 59.0000 % 14 C
1433 14-10-2018 16:00:00 21.825 C 61.8333 % 14.18 C
1434 14-10-2018 17:00:00 20.61667 C 66.6667 % 14.2 C
1435 14-10-2018 18:00:00 19.39167 C 69.6667 % 13.71 C
1436 14-10-2018 19:00:00 17.775 C 73.0833 % 12.89 C
1437 14-10-2018 20:00:00 17.14167 C 75.0833 % 12.69 C
1438 14-10-2018 21:00:00 16.53333 C 77.3333 % 12.56 C
1439 14-10-2018 22:00:00 16.03333 C 79.2500 % 12.44 C
1440 14-10-2018 23:00:00 14.90833 C 81.5000 % 11.77 C
1441 15-10-2018 00:00:00 13.15833 C 86.1667 % 10.9 C
1442 15-10-2018 01:00:00 12.3 C 90.0833 % 10.72 C
1443 15-10-2018 02:00:00 11.975 C 90.3333 % 10.44 C
1444 15-10-2018 03:00:00 11.125 C 91.6667 % 9.82 C
1445 15-10-2018 04:00:00 10.76667 C 93.2500 % 9.72 C
1446 15-10-2018 05:00:00 10.49167 C 93.5833 % 9.5 C
1447 15-10-2018 06:00:00 9.81667 C 94.0833 % 8.91 C
1448 15-10-2018 07:00:00 9.40833 C 94.6667 % 8.6 C
1449 15-10-2018 08:00:00 9.18333 C 95.0000 % 8.43 C
1450 15-10-2018 09:00:00 9.45 C 95.5833 % 8.78 C
Sensor: Nr:Datum:Temp:Feuchte:Taupunkt:
Aussen-T/F 1451 15-10-2018 10:00:00 10.30833 C 96.2500 % 9.74 C
1452 15-10-2018 11:00:00 12.20833 C 97.0000 % 11.75 C
1453 15-10-2018 12:00:00 13.95833 C 96.4167 % 13.4 C
1454 15-10-2018 13:00:00 16.875 C 88.0833 % 14.89 C
1455 15-10-2018 14:00:00 20.65833 C 69.8333 % 14.96 C
1456 15-10-2018 15:00:00 20.3 C 67.5833 % 14.11 C
1457 15-10-2018 16:00:00 20.175 C 66.1667 % 13.66 C
1458 15-10-2018 17:00:00 19.94167 C 63.1667 % 12.73 C
1459 15-10-2018 18:00:00 19.40833 C 61.5833 % 11.84 C
1460 15-10-2018 19:00:00 17.16667 C 70.0833 % 11.67 C
1461 15-10-2018 20:00:00 15.15 C 76.9167 % 11.13 C
1462 15-10-2018 21:00:00 13.75833 C 81.2500 % 10.6 C
1463 15-10-2018 22:00:00 12.48333 C 84.8333 % 10 C
1464 15-10-2018 23:00:00 11.73333 C 86.5833 % 9.57 C
1465 16-10-2018 00:00:00 10.84167 C 88.9167 % 9.09 C
1466 16-10-2018 01:00:00 10.14167 C 90.5000 % 8.66 C
1467 16-10-2018 02:00:00 9.65 C 91.9167 % 8.4 C
1468 16-10-2018 03:00:00 9.11667 C 92.7500 % 8.01 C
1469 16-10-2018 04:00:00 8.56667 C 93.5000 % 7.58 C
1470 16-10-2018 05:00:00 8.44167 C 94.1667 % 7.56 C
1471 16-10-2018 06:00:00 8.175 C 94.7500 % 7.38 C
1472 16-10-2018 07:00:00 8.11667 C 95.0000 % 7.37 C
1473 16-10-2018 08:00:00 8.10833 C 95.0833 % 7.37 C
1474 16-10-2018 09:00:00 8.71667 C 95.9167 % 8.1 C
1475 16-10-2018 10:00:00 9.78333 C 96.0000 % 9.18 C
Sensor: Nr:Datum:Temp:Feuchte:Taupunkt:
Aussen-T/F 1476 16-10-2018 11:00:00 11.36667 C 96.2500 % 10.79 C
1477 16-10-2018 12:00:00 13.05833 C 93.5000 % 12.03 C
1478 16-10-2018 13:00:00 15.81667 C 85.4167 % 13.38 C
1479 16-10-2018 14:00:00 18.89167 C 75.4167 % 14.45 C
1480 16-10-2018 15:00:00 19.38333 C 72.9167 % 14.4 C
1481 16-10-2018 16:00:00 19.625 C 71.2500 % 14.28 C
1482 16-10-2018 17:00:00 19.48333 C 69.5833 % 13.78 C
1483 16-10-2018 18:00:00 18.95 C 68.6667 % 13.07 C
1484 16-10-2018 19:00:00 17.225 C 72.5000 % 12.24 C
1485 16-10-2018 20:00:00 15.13333 C 80.4167 % 11.79 C
1486 16-10-2018 21:00:00 14.10833 C 85.3333 % 11.69 C
1487 16-10-2018 22:00:00 13.675 C 86.8333 % 11.52 C
1488 16-10-2018 23:00:00 12.575 C 88.5833 % 10.74 C
1489 17-10-2018 00:00:00 11.85833 C 90.6667 % 10.38 C
1490 17-10-2018 01:00:00 11.175 C 91.4167 % 9.83 C
1491 17-10-2018 02:00:00 10.325 C 92.3333 % 9.14 C
1492 17-10-2018 03:00:00 9.64167 C 93.5833 % 8.66 C
1493 17-10-2018 04:00:00 9.11667 C 94.0833 % 8.22 C
1494 17-10-2018 05:00:00 8.825 C 95.0000 % 8.07 C
1495 17-10-2018 06:00:00 8.55 C 95.0833 % 7.81 C
1496 17-10-2018 07:00:00 8.06667 C 95.2500 % 7.35 C
1497 17-10-2018 08:00:00 7.96667 C 95.9167 % 7.36 C
1498 17-10-2018 09:00:00 9.1 C 96.3333 % 8.55 C
1499 17-10-2018 10:00:00 10.04167 C 96.4167 % 9.5 C
1500 17-10-2018 11:00:00 11.46667 C 96.9167 % 10.99 C
Sensor: Nr:Datum:Temp:Feuchte:Taupunkt:
Aussen-T/F 1501 17-10-2018 12:00:00 13.18333 C 95.5833 % 12.49 C
1502 17-10-2018 13:00:00 15.725 C 91.0833 % 14.27 C
1503 17-10-2018 14:00:00 18.29167 C 78.8333 % 14.56 C
1504 17-10-2018 15:00:00 18.65833 C 76.8333 % 14.51 C
1505 17-10-2018 16:00:00 18.68333 C 75.4167 % 14.25 C
1506 17-10-2018 17:00:00 18.79167 C 73.0000 % 13.85 C
1507 17-10-2018 18:00:00 18.15 C 71.8333 % 12.99 C
1508 17-10-2018 19:00:00 16.29167 C 77.3333 % 12.32 C
1509 17-10-2018 20:00:00 14.45 C 83.6667 % 11.72 C
1510 17-10-2018 21:00:00 13.76667 C 86.1667 % 11.5 C
1511 17-10-2018 22:00:00 13.19167 C 88.0000 % 11.25 C
1512 17-10-2018 23:00:00 12.56667 C 89.3333 % 10.86 C
1513 18-10-2018 00:00:00 11.99167 C 91.3333 % 10.62 C
1514 18-10-2018 01:00:00 11.36667 C 92.3333 % 10.17 C
1515 18-10-2018 02:00:00 11.49167 C 94.3333 % 10.61 C
1516 18-10-2018 03:00:00 11.56667 C 94.2500 % 10.67 C
1517 18-10-2018 04:00:00 10.84167 C 94.4167 % 9.98 C
1518 18-10-2018 05:00:00 12.76667 C 96.2500 % 12.18 C
1519 18-10-2018 06:00:00 13.2 C 95.5000 % 12.5 C
1520 18-10-2018 07:00:00 13 C 95.0833 % 12.23 C
1521 18-10-2018 08:00:00 13.25833 C 95.0000 % 12.48 C
1522 18-10-2018 09:00:00 13.39167 C 94.2500 % 12.49 C
1523 18-10-2018 10:00:00 13.525 C 92.5000 % 12.33 C
1524 18-10-2018 11:00:00 14.24167 C 90.0833 % 12.64 C
1525 18-10-2018 12:00:00 15.20833 C 86.0833 % 12.9 C
Sensor: Nr:Datum:Temp:Feuchte:Taupunkt:
Aussen-T/F 1526 18-10-2018 13:00:00 16.1 C 82.5000 % 13.12 C
1527 18-10-2018 14:00:00 16.4 C 82.3333 % 13.38 C
1528 18-10-2018 15:00:00 16.75833 C 81.3333 % 13.55 C
1529 18-10-2018 16:00:00 17.00833 C 80.3333 % 13.6 C
1530 18-10-2018 17:00:00 17.05 C 78.8333 % 13.35 C
1531 18-10-2018 18:00:00 16.36667 C 80.0000 % 12.91 C
1532 18-10-2018 19:00:00 14.86667 C 84.2500 % 12.24 C
1533 18-10-2018 20:00:00 14.3 C 86.5833 % 12.09 C
1534 18-10-2018 21:00:00 14.275 C 86.0000 % 11.97 C
1535 18-10-2018 22:00:00 14.26667 C 85.0833 % 11.8 C
1536 18-10-2018 23:00:00 13.86667 C 84.6667 % 11.33 C
1537 19-10-2018 00:00:00 12.925 C 84.2500 % 10.33 C
1538 19-10-2018 01:00:00 11.90833 C 85.7500 % 9.6 C
1539 19-10-2018 02:00:00 10.90833 C 88.4167 % 9.07 C
1540 19-10-2018 03:00:00 10.00833 C 89.5000 % 8.36 C
1541 19-10-2018 04:00:00 8.975 C 91.5833 % 7.68 C
1542 19-10-2018 05:00:00 8.375 C 93.2500 % 7.35 C
1543 19-10-2018 06:00:00 8.14167 C 94.0833 % 7.25 C
1544 19-10-2018 07:00:00 8.44167 C 95.0000 % 7.69 C
1545 19-10-2018 08:00:00 9.01667 C 95.7500 % 8.38 C
1546 19-10-2018 09:00:00 9.875 C 95.5833 % 9.2 C
1547 19-10-2018 10:00:00 10.54167 C 94.0833 % 9.63 C
1548 19-10-2018 11:00:00 11.55833 C 91.0833 % 10.15 C
1549 19-10-2018 12:00:00 12.86667 C 86.7500 % 10.71 C
1550 19-10-2018 13:00:00 14.28333 C 83.0000 % 11.44 C
Sensor: Nr:Datum:Temp:Feuchte:Taupunkt:
Aussen-T/F 1551 19-10-2018 14:00:00 15.35 C 79.5000 % 11.83 C
1552 19-10-2018 15:00:00 15.94167 C 77.9167 % 12.1 C
1553 19-10-2018 16:00:00 16.2 C 78.3333 % 12.43 C
1554 19-10-2018 17:00:00 15.50833 C 81.6667 % 12.39 C
1555 19-10-2018 18:00:00 14.1 C 84.6667 % 11.56 C
1556 19-10-2018 19:00:00 13.3 C 87.9167 % 11.34 C
1557 19-10-2018 20:00:00 13.475 C 87.0000 % 11.36 C
1558 19-10-2018 21:00:00 13.25833 C 87.4167 % 11.21 C
1559 19-10-2018 22:00:00 12.75 C 87.9167 % 10.8 C
1560 19-10-2018 23:00:00 12.4 C 88.9167 % 10.63 C
1561 20-10-2018 00:00:00 11.54167 C 90.1667 % 9.99 C
1562 20-10-2018 01:00:00 11.64167 C 91.6667 % 10.33 C
1563 20-10-2018 02:00:00 11.975 C 90.3333 % 10.44 C
1564 20-10-2018 03:00:00 11.89167 C 88.4167 % 10.04 C
1565 20-10-2018 04:00:00 11.35833 C 90.5833 % 9.88 C
1566 20-10-2018 05:00:00 10.95 C 89.5000 % 9.29 C
1567 20-10-2018 06:00:00 9.58333 C 90.6667 % 8.13 C
1568 20-10-2018 07:00:00 9.275 C 93.6667 % 8.31 C
1569 20-10-2018 08:00:00 9.58333 C 94.0000 % 8.67 C
1570 20-10-2018 09:00:00 9.74167 C 93.9167 % 8.81 C
1571 20-10-2018 10:00:00 10.225 C 92.4167 % 9.05 C
1572 20-10-2018 11:00:00 10.58333 C 90.5000 % 9.1 C
1573 20-10-2018 12:00:00 11.175 C 88.3333 % 9.32 C
1574 20-10-2018 13:00:00 12.475 C 83.4167 % 9.74 C
1575 20-10-2018 14:00:00 14.05 C 75.5833 % 9.81 C
Sensor: Nr:Datum:Temp:Feuchte:Taupunkt:
Aussen-T/F 1576 20-10-2018 15:00:00 14.43333 C 70.5000 % 9.14 C
1577 20-10-2018 16:00:00 14.575 C 69.5000 % 9.07 C
1578 20-10-2018 17:00:00 14.15833 C 72.1667 % 9.22 C
1579 20-10-2018 18:00:00 12.54167 C 77.0833 % 8.64 C
1580 20-10-2018 19:00:00 10.61667 C 82.9167 % 7.84 C
1581 20-10-2018 20:00:00 9.56667 C 86.1667 % 7.37 C
1582 20-10-2018 21:00:00 8.84167 C 87.3333 % 6.86 C
1583 20-10-2018 22:00:00 7.53333 C 89.5000 % 5.92 C
1584 20-10-2018 23:00:00 6.53333 C 91.5000 % 5.25 C
1585 21-10-2018 00:00:00 5.84167 C 92.8333 % 4.77 C
1586 21-10-2018 01:00:00 5.24167 C 93.5833 % 4.29 C
1587 21-10-2018 02:00:00 5.14167 C 94.4167 % 4.32 C
1588 21-10-2018 03:00:00 4.45833 C 94.0000 % 3.58 C
1589 21-10-2018 04:00:00 3.99167 C 94.9167 % 3.25 C
1590 21-10-2018 05:00:00 4.24167 C 95.5833 % 3.6 C
1591 21-10-2018 06:00:00 4.825 C 96.0000 % 4.24 C
1592 21-10-2018 07:00:00 4.775 C 96.0000 % 4.19 C
1593 21-10-2018 08:00:00 4.55833 C 96.0000 % 3.98 C
1594 21-10-2018 09:00:00 4.84167 C 96.2500 % 4.3 C
1595 21-10-2018 10:00:00 5.45833 C 96.5833 % 4.96 C
1596 21-10-2018 11:00:00 6.25833 C 97.0000 % 5.82 C
1597 21-10-2018 12:00:00 7.18333 C 97.0000 % 6.74 C
1598 21-10-2018 13:00:00 8.78333 C 96.6667 % 8.28 C
1599 21-10-2018 14:00:00 10.68333 C 93.7500 % 9.72 C
1600 21-10-2018 15:00:00 11.65833 C 88.0000 % 9.74 C
Sensor: Nr:Datum:Temp:Feuchte:Taupunkt:
Aussen-T/F 1601 21-10-2018 16:00:00 12.66667 C 81.6667 % 9.62 C
1602 21-10-2018 17:00:00 12.41667 C 80.3333 % 9.13 C
1603 21-10-2018 18:00:00 12.20833 C 77.3333 % 8.36 C
1604 21-10-2018 19:00:00 10.75833 C 80.4167 % 7.53 C
1605 21-10-2018 20:00:00 8.75833 C 86.0833 % 6.56 C
1606 21-10-2018 21:00:00 7.64167 C 88.4167 % 5.85 C
1607 21-10-2018 22:00:00 6.83333 C 90.0000 % 5.31 C
1608 21-10-2018 23:00:00 6.13333 C 91.9167 % 4.92 C
1609 22-10-2018 00:00:00 5.79167 C 92.5833 % 4.69 C
1610 22-10-2018 01:00:00 5.16667 C 93.0833 % 4.14 C
1611 22-10-2018 02:00:00 4.58333 C 93.7500 % 3.67 C
1612 22-10-2018 03:00:00 4.275 C 94.2500 % 3.43 C
1613 22-10-2018 04:00:00 3.775 C 94.8333 % 3.03 C
1614 22-10-2018 05:00:00 3.45833 C 95.0000 % 2.73 C
1615 22-10-2018 06:00:00 3.16667 C 95.0833 % 2.46 C
1616 22-10-2018 07:00:00 3.25 C 95.5000 % 2.6 C
1617 22-10-2018 08:00:00 4.08333 C 96.0000 % 3.5 C
1618 22-10-2018 09:00:00 5.19167 C 96.0000 % 4.61 C
1619 22-10-2018 10:00:00 6.48333 C 95.3333 % 5.79 C
1620 22-10-2018 11:00:00 8.03333 C 90.9167 % 6.64 C
1621 22-10-2018 12:00:00 9.2 C 86.5000 % 7.07 C
1622 22-10-2018 13:00:00 10.43333 C 87.0000 % 8.37 C
1623 22-10-2018 14:00:00 11.1 C 86.3333 % 8.91 C
1624 22-10-2018 15:00:00 12.14167 C 84.6667 % 9.64 C
1625 22-10-2018 16:00:00 12.575 C 84.1667 % 9.98 C
Sensor: Nr:Datum:Temp:Feuchte:Taupunkt:
Aussen-T/F 1626 22-10-2018 17:00:00 12.525 C 82.3333 % 9.6 C
1627 22-10-2018 18:00:00 11.95833 C 82.2500 % 9.03 C
1628 22-10-2018 19:00:00 10.54167 C 87.3333 % 8.53 C
1629 22-10-2018 20:00:00 10.28333 C 88.0000 % 8.39 C
1630 22-10-2018 21:00:00 9.44167 C 89.7500 % 7.85 C
1631 22-10-2018 22:00:00 9.03333 C 91.0000 % 7.64 C
1632 22-10-2018 23:00:00 7.59167 C 91.3333 % 6.27 C
1633 23-10-2018 00:00:00 6.48333 C 93.4167 % 5.5 C
1634 23-10-2018 01:00:00 6.08333 C 94.3333 % 5.24 C
1635 23-10-2018 02:00:00 5.1 C 94.4167 % 4.28 C
1636 23-10-2018 03:00:00 5.30833 C 95.7500 % 4.69 C
1637 23-10-2018 04:00:00 5.09167 C 95.9167 % 4.5 C
1638 23-10-2018 05:00:00 4.8 C 96.0000 % 4.22 C
1639 23-10-2018 06:00:00 4.6 C 96.0000 % 4.02 C
1640 23-10-2018 07:00:00 4.80833 C 96.1667 % 4.25 C
1641 23-10-2018 08:00:00 4.91667 C 96.5833 % 4.42 C
1642 23-10-2018 09:00:00 5.64167 C 97.0000 % 5.2 C
1643 23-10-2018 10:00:00 6.75833 C 96.4167 % 6.23 C
1644 23-10-2018 11:00:00 8.1 C 90.5000 % 6.64 C
1645 23-10-2018 12:00:00 9.63333 C 82.2500 % 6.76 C
1646 23-10-2018 13:00:00 10.18333 C 79.5000 % 6.8 C
1647 23-10-2018 14:00:00 11.325 C 75.2500 % 7.11 C
1648 23-10-2018 15:00:00 12.40833 C 71.5000 % 7.41 C
1649 23-10-2018 16:00:00 13.61667 C 67.8333 % 7.79 C
1650 23-10-2018 17:00:00 13.73333 C 65.4167 % 7.37 C
Sensor: Nr:Datum:Temp:Feuchte:Taupunkt:
Aussen-T/F 1651 23-10-2018 18:00:00 13 C 68.7500 % 7.4 C
1652 23-10-2018 19:00:00 12.99167 C 72.0000 % 8.07 C
1653 23-10-2018 20:00:00 13.41667 C 71.7500 % 8.43 C
1654 23-10-2018 21:00:00 13.175 C 75.5833 % 8.96 C
1655 23-10-2018 22:00:00 13.05833 C 79.2500 % 9.55 C
1656 23-10-2018 23:00:00 12.8 C 81.0833 % 9.64 C
1657 24-10-2018 00:00:00 12.6 C 82.8333 % 9.76 C
1658 24-10-2018 01:00:00 12.6 C 83.9167 % 9.96 C
1659 24-10-2018 02:00:00 12.65833 C 85.1667 % 10.23 C
1660 24-10-2018 03:00:00 13.05 C 83.5000 % 10.32 C
1661 24-10-2018 04:00:00 13.325 C 83.9167 % 10.67 C
1662 24-10-2018 05:00:00 13.46667 C 85.6667 % 11.11 C
1663 24-10-2018 06:00:00 13.9 C 86.5833 % 11.7 C
1664 24-10-2018 07:00:00 14.61667 C 84.2500 % 11.99 C
1665 24-10-2018 08:00:00 15.13333 C 82.5833 % 12.19 C
1666 24-10-2018 09:00:00 15.45 C 82.0000 % 12.39 C
1667 24-10-2018 10:00:00 15.475 C 83.1667 % 12.63 C
1668 24-10-2018 11:00:00 14.94167 C 87.0833 % 12.81 C
1669 24-10-2018 12:00:00 14.8 C 89.2500 % 13.05 C
1670 24-10-2018 13:00:00 15.34167 C 86.7500 % 13.15 C
1671 24-10-2018 14:00:00 15.39167 C 83.6667 % 12.64 C
1672 24-10-2018 15:00:00 15.30833 C 82.3333 % 12.32 C
1673 24-10-2018 16:00:00 14.83333 C 85.0000 % 12.34 C
1674 24-10-2018 17:00:00 14.15 C 89.2500 % 12.41 C
1675 24-10-2018 18:00:00 13.88333 C 89.0000 % 12.1 C
Sensor: Nr:Datum:Temp:Feuchte:Taupunkt:
Aussen-T/F 1676 24-10-2018 19:00:00 13.8 C 88.1667 % 11.88 C
1677 24-10-2018 20:00:00 13.7 C 89.9167 % 12.08 C
1678 24-10-2018 21:00:00 13.25 C 92.5000 % 12.06 C
1679 24-10-2018 22:00:00 13.05 C 93.2500 % 11.99 C
1680 24-10-2018 23:00:00 13.1 C 92.5833 % 11.93 C
1681 25-10-2018 00:00:00 13.03333 C 92.3333 % 11.82 C
1682 25-10-2018 01:00:00 13 C 93.0000 % 11.9 C
1683 25-10-2018 02:00:00 12.93333 C 93.0000 % 11.83 C
1684 25-10-2018 03:00:00 12.9 C 93.0000 % 11.8 C
1685 25-10-2018 04:00:00 12.90833 C 93.0000 % 11.8 C
1686 25-10-2018 05:00:00 12.9 C 92.1667 % 11.66 C
1687 25-10-2018 06:00:00 12.9 C 91.7500 % 11.59 C
1688 25-10-2018 07:00:00 12.825 C 92.1667 % 11.59 C
1689 25-10-2018 08:00:00 12.725 C 93.0000 % 11.62 C
1690 25-10-2018 09:00:00 12.94167 C 90.5000 % 11.43 C
1691 25-10-2018 10:00:00 13.56667 C 81.8333 % 10.53 C
1692 25-10-2018 11:00:00 14.05833 C 78.2500 % 10.33 C
1693 25-10-2018 12:00:00 14.03333 C 77.9167 % 10.24 C
1694 25-10-2018 13:00:00 14.45833 C 75.5000 % 10.19 C
1695 25-10-2018 14:00:00 14.30833 C 76.0000 % 10.14 C
1696 25-10-2018 15:00:00 14.075 C 74.4167 % 9.6 C
1697 25-10-2018 16:00:00 13.6 C 74.3333 % 9.12 C
1698 25-10-2018 17:00:00 13.21667 C 74.3333 % 8.76 C
1699 25-10-2018 18:00:00 12.55 C 75.7500 % 8.39 C
1700 25-10-2018 19:00:00 12.00833 C 76.5000 % 8.01 C
Sensor: Nr:Datum:Temp:Feuchte:Taupunkt:
Aussen-T/F 1701 25-10-2018 20:00:00 11.73333 C 76.5833 % 7.76 C
1702 25-10-2018 21:00:00 11.525 C 77.5000 % 7.73 C
1703 25-10-2018 22:00:00 11.25833 C 78.8333 % 7.72 C
1704 25-10-2018 23:00:00 11.275 C 78.4167 % 7.66 C
1705 26-10-2018 00:00:00 11.05 C 79.9167 % 7.72 C
1706 26-10-2018 01:00:00 10.78333 C 81.0000 % 7.66 C
1707 26-10-2018 02:00:00 10.53333 C 81.8333 % 7.56 C
1708 26-10-2018 03:00:00 10.34167 C 81.9167 % 7.39 C
1709 26-10-2018 04:00:00 10.125 C 81.9167 % 7.18 C
1710 26-10-2018 05:00:00 9.78333 C 83.5833 % 7.14 C
1711 26-10-2018 06:00:00 9.5 C 84.8333 % 7.08 C
1712 26-10-2018 07:00:00 9.325 C 85.8333 % 7.08 C
1713 26-10-2018 08:00:00 9.30833 C 86.0833 % 7.1 C
1714 26-10-2018 09:00:00 9.59167 C 85.5833 % 7.3 C
1715 26-10-2018 10:00:00 10.09167 C 81.4167 % 7.06 C
1716 26-10-2018 11:00:00 10.55833 C 76.5833 % 6.62 C
1717 26-10-2018 12:00:00 10.85 C 73.5000 % 6.31 C
1718 26-10-2018 13:00:00 11.19167 C 73.0833 % 6.56 C
1719 26-10-2018 14:00:00 11.375 C 73.2500 % 6.76 C
1720 26-10-2018 15:00:00 11.525 C 73.3333 % 6.93 C
1721 26-10-2018 16:00:00 11.18333 C 74.4167 % 6.81 C
1722 26-10-2018 17:00:00 10.975 C 76.5833 % 7.03 C
1723 26-10-2018 18:00:00 10.525 C 79.9167 % 7.21 C
1724 26-10-2018 19:00:00 10.19167 C 82.0000 % 7.26 C
1725 26-10-2018 20:00:00 9.825 C 83.0833 % 7.09 C
Sensor: Nr:Datum:Temp:Feuchte:Taupunkt:
Aussen-T/F 1726 26-10-2018 21:00:00 9.39167 C 84.7500 % 6.96 C
1727 26-10-2018 22:00:00 9.59167 C 85.0000 % 7.2 C
1728 26-10-2018 23:00:00 7.50833 C 90.5000 % 6.06 C
1729 27-10-2018 00:00:00 7.11667 C 93.3333 % 6.12 C
1730 27-10-2018 01:00:00 6.81667 C 94.0000 % 5.92 C
1731 27-10-2018 02:00:00 6.34167 C 94.4167 % 5.51 C
1732 27-10-2018 03:00:00 6.48333 C 95.0000 % 5.74 C
1733 27-10-2018 04:00:00 5.73333 C 95.0000 % 5 C
1734 27-10-2018 05:00:00 5.15 C 95.0000 % 4.42 C
1735 27-10-2018 06:00:00 4.45833 C 95.0000 % 3.73 C
1736 27-10-2018 07:00:00 4.15833 C 95.7500 % 3.54 C
1737 27-10-2018 08:00:00 3.83333 C 96.0000 % 3.26 C
1738 27-10-2018 09:00:00 3.93333 C 96.0000 % 3.36 C
1739 27-10-2018 10:00:00 4.49167 C 96.3333 % 3.96 C
1740 27-10-2018 11:00:00 6.25833 C 95.2500 % 5.56 C
1741 27-10-2018 12:00:00 7.375 C 89.5833 % 5.78 C
1742 27-10-2018 13:00:00 8.08333 C 86.0833 % 5.9 C
1743 27-10-2018 14:00:00 8.50833 C 82.4167 % 5.69 C
1744 27-10-2018 15:00:00 8.75833 C 80.2500 % 5.55 C
1745 27-10-2018 16:00:00 8.75 C 80.4167 % 5.57 C
1746 27-10-2018 17:00:00 8.41667 C 81.1667 % 5.38 C
1747 27-10-2018 18:00:00 7.69167 C 85.9167 % 5.49 C
1748 27-10-2018 19:00:00 7.15833 C 88.7500 % 5.43 C
1749 27-10-2018 20:00:00 6.24167 C 89.1667 % 4.59 C
1750 27-10-2018 21:00:00 5.29167 C 91.0833 % 3.96 C
Sensor: Nr:Datum:Temp:Feuchte:Taupunkt:
Aussen-T/F 1751 27-10-2018 22:00:00 4.90833 C 92.8333 % 3.85 C
1752 27-10-2018 23:00:00 4.55 C 93.6667 % 3.62 C
1753 28-10-2018 00:00:00 4.29167 C 94.0833 % 3.43 C
1754 28-10-2018 01:00:00 4.54167 C 95.0000 % 3.81 C
1755 28-10-2018 02:00:00 4.725 C 95.0000 % 3.99 C
1756 28-10-2018 04:00:00 4.03478 C 94.3913 % 3.22 C
1757 28-10-2018 05:00:00 3.56154 C 94.8462 % 2.81 C
1758 28-10-2018 06:00:00 3.40833 C 95.0000 % 2.69 C
1759 28-10-2018 07:00:00 3.88333 C 94.5833 % 3.1 C
1760 28-10-2018 08:00:00 4.03333 C 92.7500 % 2.97 C
1761 28-10-2018 09:00:00 5.25833 C 85.1667 % 2.97 C
1762 28-10-2018 10:00:00 6.11667 C 78.0833 % 2.59 C
1763 28-10-2018 11:00:00 6.40833 C 74.8333 % 2.28 C
1764 28-10-2018 12:00:00 6.775 C 72.7500 % 2.24 C
1765 28-10-2018 13:00:00 7.03333 C 71.9167 % 2.32 C
1766 28-10-2018 14:00:00 7.34167 C 71.3333 % 2.51 C
1767 28-10-2018 15:00:00 7.43333 C 71.6667 % 2.66 C
1768 28-10-2018 16:00:00 7.44167 C 72.0833 % 2.75 C
1769 28-10-2018 17:00:00 7.18333 C 74.1667 % 2.9 C
1770 28-10-2018 18:00:00 6.90833 C 75.6667 % 2.92 C
1771 28-10-2018 19:00:00 6.7 C 76.9167 % 2.95 C
1772 28-10-2018 20:00:00 6.41667 C 79.0000 % 3.05 C
1773 28-10-2018 21:00:00 6.275 C 79.5000 % 3 C
1774 28-10-2018 22:00:00 6.2 C 80.9167 % 3.17 C
1775 28-10-2018 23:00:00 6.3 C 81.3333 % 3.34 C
Sensor: Nr:Datum:Temp:Feuchte:Taupunkt:
Aussen-T/F 1776 29-10-2018 00:00:00 6.31667 C 82.1667 % 3.5 C
1777 29-10-2018 01:00:00 6.86667 C 79.0000 % 3.48 C
1778 29-10-2018 02:00:00 6.9 C 79.0000 % 3.52 C
1779 29-10-2018 03:00:00 6.55 C 83.0833 % 3.89 C
1780 29-10-2018 04:00:00 5.93333 C 87.6667 % 4.05 C
1781 29-10-2018 05:00:00 5.975 C 87.0833 % 3.99 C
1782 29-10-2018 06:00:00 6.19167 C 85.5000 % 3.95 C
1783 29-10-2018 07:00:00 6.28333 C 85.0000 % 3.95 C
1784 29-10-2018 08:00:00 6.26667 C 85.0000 % 3.94 C
1785 29-10-2018 09:00:00 6.33333 C 84.9167 % 3.99 C
1786 29-10-2018 10:00:00 6.49167 C 84.0000 % 3.99 C
1787 29-10-2018 11:00:00 6.70833 C 83.4167 % 4.1 C
1788 29-10-2018 12:00:00 6.8 C 83.7500 % 4.25 C
1789 29-10-2018 13:00:00 6.86667 C 83.0833 % 4.2 C
1790 29-10-2018 14:00:00 6.9 C 82.9167 % 4.2 C
1791 29-10-2018 15:00:00 6.89167 C 82.4167 % 4.11 C
1792 29-10-2018 16:00:00 6.85833 C 83.0833 % 4.19 C
1793 29-10-2018 17:00:00 6.65833 C 84.0000 % 4.15 C
1794 29-10-2018 18:00:00 6.425 C 84.5000 % 4.01 C
1795 29-10-2018 19:00:00 6.31667 C 85.5833 % 4.08 C
1796 29-10-2018 20:00:00 6.33333 C 86.0000 % 4.17 C
1797 29-10-2018 21:00:00 6.175 C 89.2500 % 4.54 C
1798 29-10-2018 22:00:00 5.74167 C 91.9167 % 4.53 C
1799 29-10-2018 23:00:00 5.6 C 93.2500 % 4.6 C
1800 30-10-2018 00:00:00 5.65833 C 94.0000 % 4.77 C
Sensor: Nr:Datum:Temp:Feuchte:Taupunkt:
Aussen-T/F 1801 30-10-2018 01:00:00 5.7 C 94.2500 % 4.85 C
1802 30-10-2018 02:00:00 5.675 C 95.0000 % 4.94 C
1803 30-10-2018 03:00:00 5.7 C 95.4167 % 5.03 C
1804 30-10-2018 04:00:00 5.80833 C 96.0000 % 5.22 C
1805 30-10-2018 05:00:00 6.00833 C 96.0000 % 5.42 C
1806 30-10-2018 06:00:00 6.13333 C 96.0000 % 5.54 C
1807 30-10-2018 07:00:00 6.59167 C 96.2500 % 6.04 C
1808 30-10-2018 08:00:00 6.64167 C 96.0000 % 6.05 C
1809 30-10-2018 09:00:00 6.26667 C 94.8333 % 5.5 C
1810 30-10-2018 10:00:00 5.8 C 90.5000 % 4.37 C
1811 30-10-2018 11:00:00 5.85833 C 85.6667 % 3.65 C
1812 30-10-2018 12:00:00 5.69167 C 84.8333 % 3.34 C
1813 30-10-2018 13:00:00 5.59167 C 85.1667 % 3.3 C
1814 30-10-2018 14:00:00 5.16667 C 87.4167 % 3.25 C
1815 30-10-2018 15:00:00 4.275 C 91.0833 % 2.95 C
1816 30-10-2018 16:00:00 5.09167 C 93.8333 % 4.18 C
1817 30-10-2018 17:00:00 6.51667 C 94.1667 % 5.65 C
1818 30-10-2018 18:00:00 7.54167 C 92.8333 % 6.46 C
1819 30-10-2018 19:00:00 7.475 C 92.0000 % 6.26 C
1820 30-10-2018 20:00:00 7.475 C 90.6667 % 6.05 C
1821 30-10-2018 21:00:00 7.90833 C 86.8333 % 5.85 C
1822 30-10-2018 22:00:00 8.09167 C 84.6667 % 5.67 C
1823 30-10-2018 23:00:00 8.075 C 84.6667 % 5.65 C
1824 31-10-2018 00:00:00 7.63333 C 86.7500 % 5.57 C
1825 31-10-2018 01:00:00 7.05833 C 88.5833 % 5.3 C
Sensor: Nr:Datum:Temp:Feuchte:Taupunkt:
Aussen-T/F 1826 31-10-2018 02:00:00 7.05 C 87.8333 % 5.17 C
1827 31-10-2018 03:00:00 7.19167 C 87.3333 % 5.23 C
1828 31-10-2018 04:00:00 6.75 C 88.5000 % 4.99 C
1829 31-10-2018 05:00:00 5.1 C 90.0000 % 3.6 C
1830 31-10-2018 06:00:00 4.00833 C 91.7500 % 2.79 C
1831 31-10-2018 07:00:00 3.325 C 92.9167 % 2.29 C
1832 31-10-2018 08:00:00 4.00833 C 94.4167 % 3.19 C
1833 31-10-2018 09:00:00 4.90833 C 94.0000 % 4.03 C
1834 31-10-2018 10:00:00 6.725 C 90.0833 % 5.22 C
1835 31-10-2018 11:00:00 8.51667 C 83.0000 % 5.8 C
1836 31-10-2018 12:00:00 9.65 C 77.9167 % 5.99 C
1837 31-10-2018 13:00:00 10.225 C 74.5000 % 5.9 C
1838 31-10-2018 14:00:00 10.69167 C 73.0833 % 6.07 C
1839 31-10-2018 15:00:00 10.78333 C 77.5000 % 7.01 C
1840 31-10-2018 16:00:00 9.68333 C 82.9167 % 6.93 C
1841 31-10-2018 17:00:00 8.9 C 84.5000 % 6.43 C
1842 31-10-2018 18:00:00 8.46667 C 86.5833 % 6.36 C
1843 31-10-2018 19:00:00 8.31667 C 88.0000 % 6.45 C
1844 31-10-2018 20:00:00 8.39167 C 89.1667 % 6.71 C
1845 31-10-2018 21:00:00 8.1 C 90.6667 % 6.67 C
1846 31-10-2018 22:00:00 7.04167 C 91.6667 % 5.78 C
1847 31-10-2018 23:00:00 6.36667 C 92.0000 % 5.16 C
1848 01-11-2018 00:00:00 5.46667 C 92.7500 % 4.39 C
1849 01-11-2018 01:00:00 4.79167 C 93.6667 % 3.86 C
1850 01-11-2018 02:00:00 4.075 C 94.0000 % 3.2 C
Sensor: Nr:Datum:Temp:Feuchte:Taupunkt:
Aussen-T/F 1851 01-11-2018 03:00:00 3.775 C 94.7500 % 3.01 C
1852 01-11-2018 04:00:00 4.05833 C 95.3333 % 3.38 C
1853 01-11-2018 05:00:00 3.15833 C 95.0000 % 2.44 C
1854 01-11-2018 06:00:00 3.13333 C 95.7500 % 2.52 C
1855 01-11-2018 07:00:00 3.35833 C 96.0000 % 2.78 C
1856 01-11-2018 08:00:00 4 C 96.0000 % 3.42 C
1857 01-11-2018 09:00:00 4.66667 C 96.2500 % 4.12 C
1858 01-11-2018 10:00:00 5.375 C 96.6667 % 4.89 C
1859 01-11-2018 11:00:00 6.15833 C 96.2500 % 5.61 C
1860 01-11-2018 12:00:00 6.93333 C 95.0833 % 6.2 C
1861 01-11-2018 13:00:00 7.775 C 93.4167 % 6.78 C
1862 01-11-2018 14:00:00 8.48333 C 92.7500 % 7.38 C
1863 01-11-2018 15:00:00 8.94167 C 93.5833 % 7.96 C
1864 01-11-2018 16:00:00 9.075 C 94.0000 % 8.16 C
1865 01-11-2018 17:00:00 7.66667 C 93.5833 % 6.7 C
1866 01-11-2018 18:00:00 7.41667 C 95.5000 % 6.75 C
1867 01-11-2018 19:00:00 6.8 C 95.1667 % 6.08 C
1868 01-11-2018 20:00:00 6.675 C 96.0000 % 6.08 C
1869 01-11-2018 21:00:00 7.31667 C 96.4167 % 6.79 C
1870 01-11-2018 22:00:00 8.75833 C 97.0000 % 8.31 C
1871 01-11-2018 23:00:00 9.30833 C 97.0000 % 8.86 C
1872 02-11-2018 00:00:00 9.05 C 96.8333 % 8.57 C
1873 02-11-2018 01:00:00 9.13333 C 97.0000 % 8.68 C
1874 02-11-2018 02:00:00 9.225 C 97.0000 % 8.77 C
1875 02-11-2018 03:00:00 9.18333 C 96.9167 % 8.72 C
Sensor: Nr:Datum:Temp:Feuchte:Taupunkt:
Aussen-T/F 1876 02-11-2018 04:00:00 9.1 C 97.0000 % 8.65 C
1877 02-11-2018 05:00:00 9.06667 C 97.0000 % 8.62 C
1878 02-11-2018 06:00:00 8.925 C 97.0000 % 8.48 C
1879 02-11-2018 07:00:00 8.775 C 96.0833 % 8.19 C
1880 02-11-2018 08:00:00 8.65833 C 96.0000 % 8.06 C
1881 02-11-2018 09:00:00 8.89167 C 96.0833 % 8.3 C
1882 02-11-2018 10:00:00 10.2 C 93.5000 % 9.2 C
1883 02-11-2018 11:00:00 11.23333 C 87.0833 % 9.17 C
1884 02-11-2018 12:00:00 11.61667 C 82.9167 % 8.82 C
1885 02-11-2018 13:00:00 10.90833 C 85.3333 % 8.55 C
1886 02-11-2018 14:00:00 9.90833 C 91.8333 % 8.64 C
1887 02-11-2018 15:00:00 9.59167 C 93.5833 % 8.61 C
1888 02-11-2018 16:00:00 8.96667 C 93.4167 % 7.96 C
1889 02-11-2018 17:00:00 8.58333 C 93.4167 % 7.58 C
1890 02-11-2018 18:00:00 8.25 C 93.9167 % 7.33 C
1891 02-11-2018 19:00:00 7.68333 C 94.7500 % 6.9 C
1892 02-11-2018 20:00:00 7.14167 C 95.0000 % 6.4 C
1893 02-11-2018 21:00:00 7 C 95.2500 % 6.29 C
1894 02-11-2018 22:00:00 6.35 C 95.0833 % 5.62 C
1895 02-11-2018 23:00:00 5.34167 C 95.1667 % 4.63 C
1896 03-11-2018 00:00:00 4.4 C 95.0833 % 3.68 C
1897 03-11-2018 01:00:00 3.35833 C 95.4167 % 2.7 C
1898 03-11-2018 02:00:00 2.75833 C 95.8333 % 2.16 C
1899 03-11-2018 03:00:00 2.325 C 96.0000 % 1.75 C
1900 03-11-2018 04:00:00 2.71667 C 96.2500 % 2.18 C
Sensor: Nr:Datum:Temp:Feuchte:Taupunkt:
Aussen-T/F 1901 03-11-2018 05:00:00 2.69167 C 96.1667 % 2.14 C
1902 03-11-2018 06:00:00 2.80833 C 96.5000 % 2.31 C
1903 03-11-2018 07:00:00 2.8 C 96.9167 % 2.36 C
1904 03-11-2018 08:00:00 3.04167 C 97.0000 % 2.61 C
1905 03-11-2018 09:00:00 3.25833 C 97.0000 % 2.83 C
1906 03-11-2018 10:00:00 3.65833 C 97.0000 % 3.23 C
1907 03-11-2018 11:00:00 3.95833 C 97.0000 % 3.53 C
1908 03-11-2018 12:00:00 4.51667 C 97.0000 % 4.08 C
1909 03-11-2018 13:00:00 4.95 C 97.0000 % 4.51 C
1910 03-11-2018 14:00:00 5.28333 C 97.0000 % 4.85 C
1911 03-11-2018 15:00:00 5.09167 C 96.8333 % 4.63 C
1912 03-11-2018 16:00:00 4.83333 C 96.1667 % 4.28 C
1913 03-11-2018 17:00:00 4.3 C 96.0000 % 3.72 C
1914 03-11-2018 18:00:00 3.66667 C 96.0000 % 3.09 C
1915 03-11-2018 19:00:00 2.84167 C 96.0000 % 2.27 C
1916 03-11-2018 20:00:00 2.78333 C 96.3333 % 2.26 C
1917 03-11-2018 21:00:00 2.75833 C 96.4167 % 2.25 C
1918 03-11-2018 22:00:00 2.66667 C 97.0000 % 2.24 C
1919 03-11-2018 23:00:00 2.65833 C 97.0000 % 2.23 C
1920 04-11-2018 00:00:00 2.61667 C 97.0000 % 2.19 C
1921 04-11-2018 01:00:00 2.89167 C 97.0000 % 2.46 C
1922 04-11-2018 02:00:00 3.20833 C 97.0000 % 2.78 C
1923 04-11-2018 03:00:00 3.475 C 97.0000 % 3.04 C
1924 04-11-2018 04:00:00 3.76667 C 97.0000 % 3.34 C
1925 04-11-2018 05:00:00 4.01667 C 97.0000 % 3.58 C
Sensor: Nr:Datum:Temp:Feuchte:Taupunkt:
Aussen-T/F 1926 04-11-2018 06:00:00 4.2 C 97.0000 % 3.77 C
1927 04-11-2018 07:00:00 4.40833 C 97.0000 % 3.97 C
1928 04-11-2018 08:00:00 4.71667 C 97.0000 % 4.28 C
1929 04-11-2018 09:00:00 5.14167 C 97.0000 % 4.71 C
1930 04-11-2018 10:00:00 5.875 C 97.0000 % 5.44 C
1931 04-11-2018 11:00:00 6.74167 C 96.2500 % 6.19 C
1932 04-11-2018 12:00:00 7.58333 C 94.2500 % 6.72 C
1933 04-11-2018 13:00:00 8.33333 C 92.5000 % 7.19 C
1934 04-11-2018 14:00:00 9.18333 C 90.8333 % 7.77 C
1935 04-11-2018 15:00:00 9.95 C 90.5833 % 8.48 C
1936 04-11-2018 16:00:00 10.15833 C 91.8333 % 8.89 C
1937 04-11-2018 17:00:00 9.85833 C 93.5000 % 8.86 C
1938 04-11-2018 18:00:00 9.7 C 94.0000 % 8.78 C
1939 04-11-2018 19:00:00 9.7 C 94.9167 % 8.93 C
1940 04-11-2018 20:00:00 9.70833 C 95.0000 % 8.95 C
1941 04-11-2018 21:00:00 9.8 C 95.0000 % 9.04 C
1942 04-11-2018 22:00:00 9.8 C 95.0000 % 9.04 C
1943 04-11-2018 23:00:00 9.80833 C 95.0000 % 9.05 C
1944 05-11-2018 00:00:00 9.8 C 95.0000 % 9.04 C
1945 05-11-2018 01:00:00 9.775 C 95.0000 % 9.01 C
1946 05-11-2018 02:00:00 9.7 C 95.0000 % 8.94 C
1947 05-11-2018 03:00:00 9.7 C 95.0000 % 8.94 C
1948 05-11-2018 04:00:00 9.7 C 95.0000 % 8.94 C
1949 05-11-2018 05:00:00 9.78333 C 95.0000 % 9.02 C
1950 05-11-2018 06:00:00 9.86667 C 95.0000 % 9.1 C
Sensor: Nr:Datum:Temp:Feuchte:Taupunkt:
Aussen-T/F 1951 05-11-2018 07:00:00 9.925 C 95.0000 % 9.16 C
1952 05-11-2018 08:00:00 10.175 C 95.0000 % 9.41 C
1953 05-11-2018 09:00:00 10.66667 C 95.0000 % 9.9 C
1954 05-11-2018 10:00:00 11.10833 C 93.7500 % 10.14 C
1955 05-11-2018 11:00:00 12.00833 C 89.8333 % 10.39 C
1956 05-11-2018 12:00:00 12.83333 C 85.9167 % 10.54 C
1957 05-11-2018 13:00:00 13.23333 C 83.3333 % 10.47 C
1958 05-11-2018 14:00:00 13.525 C 82.0833 % 10.53 C
1959 05-11-2018 15:00:00 13.6 C 82.0833 % 10.6 C
1960 05-11-2018 16:00:00 12.21667 C 86.4167 % 10.02 C
1961 05-11-2018 17:00:00 10.54167 C 90.8333 % 9.11 C
1962 05-11-2018 18:00:00 9.86667 C 92.6667 % 8.74 C
1963 05-11-2018 19:00:00 9.6 C 94.0000 % 8.68 C
1964 05-11-2018 20:00:00 8.93333 C 94.3333 % 8.07 C
1965 05-11-2018 21:00:00 8.025 C 94.5833 % 7.21 C
1966 05-11-2018 22:00:00 7.96667 C 95.5000 % 7.29 C
1967 05-11-2018 23:00:00 6.83333 C 95.1667 % 6.11 C
1968 06-11-2018 00:00:00 6.51667 C 95.9167 % 5.91 C
1969 06-11-2018 01:00:00 6.6 C 96.3333 % 6.06 C
1970 06-11-2018 02:00:00 6.41667 C 96.6667 % 5.93 C
1971 06-11-2018 03:00:00 6.21667 C 96.5833 % 5.71 C
1972 06-11-2018 04:00:00 5.73333 C 96.6667 % 5.25 C
1973 06-11-2018 05:00:00 5.69167 C 97.0000 % 5.25 C
1974 06-11-2018 06:00:00 5.90833 C 97.0000 % 5.47 C
1975 06-11-2018 07:00:00 6.15 C 97.0000 % 5.71 C
Sensor: Nr:Datum:Temp:Feuchte:Taupunkt:
Aussen-T/F 1976 06-11-2018 08:00:00 5.99167 C 97.0000 % 5.55 C
1977 06-11-2018 09:00:00 6.8 C 97.1667 % 6.38 C
1978 06-11-2018 10:00:00 7.8 C 97.6667 % 7.45 C
1979 06-11-2018 11:00:00 8.975 C 98.0000 % 8.68 C
1980 06-11-2018 12:00:00 10.34167 C 97.3333 % 9.94 C
1981 06-11-2018 13:00:00 11.46667 C 95.9167 % 10.84 C
1982 06-11-2018 14:00:00 12.35833 C 94.5000 % 11.5 C
1983 06-11-2018 15:00:00 12.79167 C 92.0000 % 11.53 C
1984 06-11-2018 16:00:00 12.25833 C 90.8333 % 10.81 C
1985 06-11-2018 17:00:00 11.10833 C 92.2500 % 9.9 C
1986 06-11-2018 18:00:00 10.2 C 93.4167 % 9.19 C
1987 06-11-2018 19:00:00 9.34167 C 94.1667 % 8.45 C
1988 06-11-2018 20:00:00 8.89167 C 95.0833 % 8.15 C
1989 06-11-2018 21:00:00 8.7 C 95.6667 % 8.05 C
1990 06-11-2018 22:00:00 8.075 C 95.8333 % 7.45 C
1991 06-11-2018 23:00:00 7.7 C 96.0000 % 7.1 C
1992 07-11-2018 00:00:00 7.425 C 96.4167 % 6.89 C
1993 07-11-2018 01:00:00 6.76667 C 96.0000 % 6.17 C
1994 07-11-2018 02:00:00 6.28333 C 96.2500 % 5.73 C
1995 07-11-2018 03:00:00 6.09167 C 96.8333 % 5.63 C
1996 07-11-2018 04:00:00 6.24167 C 96.9167 % 5.79 C
1997 07-11-2018 05:00:00 5.475 C 97.0000 % 5.04 C
1998 07-11-2018 06:00:00 4.925 C 97.0000 % 4.49 C
1999 07-11-2018 07:00:00 4.65833 C 97.0000 % 4.22 C
2000 07-11-2018 08:00:00 5.03333 C 97.0000 % 4.6 C
Sensor: Nr:Datum:Temp:Feuchte:Taupunkt:
Aussen-T/F 2001 07-11-2018 09:00:00 6.2 C 97.5833 % 5.85 C
2002 07-11-2018 10:00:00 7.95 C 98.0000 % 7.65 C
2003 07-11-2018 11:00:00 9.61667 C 98.0000 % 9.32 C
2004 07-11-2018 12:00:00 10.94167 C 96.5000 % 10.41 C
2005 07-11-2018 13:00:00 13.63333 C 82.4167 % 10.7 C
2006 07-11-2018 14:00:00 15.05833 C 75.9167 % 10.85 C
2007 07-11-2018 15:00:00 13.925 C 80.4167 % 10.61 C
2008 07-11-2018 16:00:00 12.73333 C 84.7500 % 10.23 C
2009 07-11-2018 17:00:00 12.21667 C 87.9167 % 10.28 C
2010 07-11-2018 18:00:00 11.90833 C 88.5833 % 10.08 C
2011 07-11-2018 19:00:00 11.85 C 88.0833 % 9.94 C
2012 07-11-2018 20:00:00 11.58333 C 91.1667 % 10.19 C
2013 07-11-2018 21:00:00 11.15833 C 92.2500 % 9.95 C
2014 07-11-2018 22:00:00 11.1 C 93.0000 % 10.01 C
2015 07-11-2018 23:00:00 10.93333 C 93.0000 % 9.85 C
2016 08-11-2018 00:00:00 10.76667 C 93.3333 % 9.73 C
2017 08-11-2018 01:00:00 10.53333 C 93.7500 % 9.57 C
2018 08-11-2018 02:00:00 10.74167 C 94.0000 % 9.82 C
2019 08-11-2018 03:00:00 11.025 C 93.9167 % 10.08 C
2020 08-11-2018 04:00:00 10.975 C 92.7500 % 9.85 C
2021 08-11-2018 05:00:00 10.76667 C 91.1667 % 9.39 C
2022 08-11-2018 06:00:00 10.625 C 92.2500 % 9.42 C
2023 08-11-2018 07:00:00 10.73333 C 90.4167 % 9.23 C
2024 08-11-2018 08:00:00 10.93333 C 89.7500 % 9.32 C
2025 08-11-2018 09:00:00 11.69167 C 86.5000 % 9.52 C
Sensor: Nr:Datum:Temp:Feuchte:Taupunkt:
Aussen-T/F 2026 08-11-2018 10:00:00 12.225 C 83.8333 % 9.57 C
2027 08-11-2018 11:00:00 12.625 C 81.9167 % 9.62 C
2028 08-11-2018 12:00:00 12.98333 C 78.5833 % 9.35 C
2029 08-11-2018 13:00:00 12.70833 C 78.5000 % 9.07 C
2030 08-11-2018 14:00:00 11.33333 C 82.8333 % 8.52 C
2031 08-11-2018 15:00:00 10.95 C 84.3333 % 8.41 C
2032 08-11-2018 16:00:00 11 C 85.3333 % 8.64 C
2033 08-11-2018 17:00:00 9.83333 C 86.2500 % 7.65 C
2034 08-11-2018 18:00:00 8.425 C 89.4167 % 6.79 C
2035 08-11-2018 19:00:00 7.775 C 91.9167 % 6.55 C
2036 08-11-2018 20:00:00 7.19167 C 93.4167 % 6.2 C
2037 08-11-2018 21:00:00 7.40833 C 94.6667 % 6.61 C
2038 08-11-2018 22:00:00 8.225 C 95.0000 % 7.47 C
2039 08-11-2018 23:00:00 8.725 C 93.7500 % 7.78 C
2040 09-11-2018 00:00:00 8.55833 C 93.8333 % 7.62 C
2041 09-11-2018 01:00:00 8.45 C 94.0000 % 7.54 C
2042 09-11-2018 02:00:00 8.31667 C 94.1667 % 7.44 C
2043 09-11-2018 03:00:00 8.36667 C 94.6667 % 7.56 C
2044 09-11-2018 04:00:00 7.58333 C 94.1667 % 6.71 C
2045 09-11-2018 05:00:00 6.475 C 94.9167 % 5.72 C
2046 09-11-2018 06:00:00 5.79167 C 95.3333 % 5.1 C
2047 09-11-2018 07:00:00 5.425 C 96.0000 % 4.84 C
2048 09-11-2018 08:00:00 5.56667 C 96.3333 % 5.03 C
2049 09-11-2018 09:00:00 6.28333 C 97.0000 % 5.84 C
2050 09-11-2018 10:00:00 7.4 C 97.0000 % 6.96 C
Sensor: Nr:Datum:Temp:Feuchte:Taupunkt:
Aussen-T/F 2051 09-11-2018 11:00:00 9.64167 C 97.8333 % 9.32 C
2052 09-11-2018 12:00:00 11.325 C 97.7500 % 10.98 C
2053 09-11-2018 13:00:00 12.40833 C 95.4167 % 11.7 C
2054 09-11-2018 14:00:00 14.075 C 85.0833 % 11.61 C
2055 09-11-2018 15:00:00 14.25833 C 82.9167 % 11.4 C
2056 09-11-2018 16:00:00 13.075 C 85.8333 % 10.76 C
2057 09-11-2018 17:00:00 12.075 C 88.1667 % 10.18 C
2058 09-11-2018 18:00:00 11.93333 C 89.5000 % 10.26 C
2059 09-11-2018 19:00:00 11.39167 C 91.9167 % 10.13 C
2060 09-11-2018 20:00:00 11.1 C 93.0000 % 10.01 C
2061 09-11-2018 21:00:00 11.08333 C 91.9167 % 9.82 C
2062 09-11-2018 22:00:00 10.29167 C 92.0000 % 9.05 C
2063 09-11-2018 23:00:00 10.15 C 92.9167 % 9.06 C
2064 10-11-2018 00:00:00 10 C 93.1667 % 8.95 C
2065 10-11-2018 01:00:00 9.95 C 93.5000 % 8.95 C
2066 10-11-2018 02:00:00 11.525 C 87.2500 % 9.48 C
2067 10-11-2018 03:00:00 11.54167 C 85.2500 % 9.15 C
2068 10-11-2018 04:00:00 11.63333 C 83.6667 % 8.97 C
2069 10-11-2018 05:00:00 11.29167 C 83.5833 % 8.62 C
2070 10-11-2018 06:00:00 10.89167 C 85.5833 % 8.57 C
2071 10-11-2018 07:00:00 10.875 C 85.7500 % 8.59 C
2072 10-11-2018 08:00:00 11.05 C 85.9167 % 8.79 C
2073 10-11-2018 09:00:00 10.625 C 89.6667 % 9 C
2074 10-11-2018 10:00:00 11.09167 C 90.3333 % 9.57 C
2075 10-11-2018 11:00:00 12.08333 C 88.2500 % 10.2 C
Sensor: Nr:Datum:Temp:Feuchte:Taupunkt:
Aussen-T/F 2076 10-11-2018 12:00:00 13.625 C 85.8333 % 11.3 C
2077 10-11-2018 13:00:00 14.45 C 83.3333 % 11.66 C
2078 10-11-2018 14:00:00 13.85 C 87.9167 % 11.88 C
2079 10-11-2018 15:00:00 13.2 C 91.8333 % 11.9 C
2080 10-11-2018 16:00:00 12.70833 C 93.4167 % 11.67 C
2081 10-11-2018 17:00:00 12.15 C 94.7500 % 11.33 C
2082 10-11-2018 18:00:00 12.09167 C 95.2500 % 11.36 C
2083 10-11-2018 19:00:00 12.33333 C 95.0833 % 11.57 C
2084 10-11-2018 20:00:00 12.7 C 95.1667 % 11.95 C
2085 10-11-2018 21:00:00 12.375 C 95.7500 % 11.72 C
2086 10-11-2018 22:00:00 11.83333 C 96.0000 % 11.22 C
2087 10-11-2018 23:00:00 11.80833 C 96.7500 % 11.31 C
2088 11-11-2018 00:00:00 11.41667 C 96.5000 % 10.88 C
2089 11-11-2018 01:00:00 10.50833 C 96.3333 % 9.95 C
2090 11-11-2018 02:00:00 10.18333 C 96.7500 % 9.69 C
2091 11-11-2018 03:00:00 9.3 C 96.9167 % 8.84 C
2092 11-11-2018 04:00:00 9.8 C 97.0000 % 9.35 C
2093 11-11-2018 05:00:00 9.93333 C 97.0000 % 9.48 C
2094 11-11-2018 06:00:00 10.225 C 97.2500 % 9.81 C
2095 11-11-2018 07:00:00 10.14167 C 97.0000 % 9.69 C
2096 11-11-2018 08:00:00 10.08333 C 97.3333 % 9.68 C
2097 11-11-2018 09:00:00 10.85 C 96.9167 % 10.38 C
2098 11-11-2018 10:00:00 12.1 C 91.6667 % 10.79 C
2099 11-11-2018 11:00:00 13.55 C 84.5000 % 10.99 C
2100 11-11-2018 12:00:00 14.36667 C 81.3333 % 11.21 C
Sensor: Nr:Datum:Temp:Feuchte:Taupunkt:
Aussen-T/F 2101 11-11-2018 13:00:00 15.36667 C 76.9167 % 11.34 C
2102 11-11-2018 14:00:00 15.25833 C 75.9167 % 11.04 C
2103 11-11-2018 15:00:00 15.20833 C 77.2500 % 11.26 C
2104 11-11-2018 16:00:00 14.46667 C 82.2500 % 11.48 C
2105 11-11-2018 17:00:00 13.35833 C 87.4167 % 11.31 C
2106 11-11-2018 18:00:00 12.76667 C 88.3333 % 10.89 C
2107 11-11-2018 19:00:00 12.43333 C 89.8333 % 10.81 C
2108 11-11-2018 20:00:00 12.675 C 90.3333 % 11.13 C
2109 11-11-2018 21:00:00 12.11667 C 92.0833 % 10.87 C
2110 11-11-2018 22:00:00 11.66667 C 93.8333 % 10.71 C
2111 11-11-2018 23:00:00 11.33333 C 93.6667 % 10.35 C
2112 12-11-2018 00:00:00 11.11667 C 94.0833 % 10.2 C
2113 12-11-2018 01:00:00 10.975 C 94.9167 % 10.19 C
2114 12-11-2018 02:00:00 11.10833 C 95.0000 % 10.34 C
2115 12-11-2018 03:00:00 11.13333 C 95.3333 % 10.42 C
2116 12-11-2018 04:00:00 11.175 C 95.3333 % 10.46 C
2117 12-11-2018 05:00:00 10.91667 C 95.9167 % 10.29 C
2118 12-11-2018 06:00:00 10.975 C 96.0000 % 10.36 C
2119 12-11-2018 07:00:00 10.38333 C 95.5833 % 9.71 C
2120 12-11-2018 08:00:00 10.50833 C 96.5833 % 9.99 C
2121 12-11-2018 09:00:00 12.45833 C 96.9167 % 11.98 C
2122 12-11-2018 10:00:00 15.50833 C 84.6667 % 12.94 C
2123 12-11-2018 11:00:00 17.60833 C 72.8333 % 12.68 C
2124 12-11-2018 12:00:00 18.24167 C 71.0000 % 12.9 C
2125 12-11-2018 13:00:00 18.325 C 72.2500 % 13.25 C
Sensor: Nr:Datum:Temp:Feuchte:Taupunkt:
Aussen-T/F 2126 12-11-2018 14:00:00 17.95833 C 77.6667 % 14 C
2127 12-11-2018 15:00:00 18.29167 C 77.1667 % 14.23 C
2128 12-11-2018 16:00:00 16.975 C 84.9167 % 14.42 C
2129 12-11-2018 17:00:00 15.05 C 92.8333 % 13.9 C
2130 12-11-2018 18:00:00 14.30833 C 94.4167 % 13.42 C
2131 12-11-2018 19:00:00 13.825 C 95.1667 % 13.06 C
2132 12-11-2018 20:00:00 13.8 C 96.0000 % 13.17 C
2133 12-11-2018 21:00:00 13.45833 C 95.4167 % 12.74 C
2134 12-11-2018 22:00:00 12.525 C 94.8333 % 11.72 C
2135 12-11-2018 23:00:00 12.19167 C 95.8333 % 11.55 C
2136 13-11-2018 00:00:00 11.725 C 96.0000 % 11.11 C
2137 13-11-2018 01:00:00 11.50833 C 96.0000 % 10.89 C
2138 13-11-2018 02:00:00 11.30833 C 96.4167 % 10.76 C
2139 13-11-2018 03:00:00 10.94167 C 96.1667 % 10.36 C
2140 13-11-2018 04:00:00 10.65 C 96.6667 % 10.14 C
2141 13-11-2018 05:00:00 10.675 C 97.0000 % 10.22 C
2142 13-11-2018 06:00:00 10.71667 C 97.0000 % 10.26 C
2143 13-11-2018 07:00:00 10.7 C 97.0000 % 10.24 C
2144 13-11-2018 08:00:00 10.375 C 97.0000 % 9.92 C
2145 13-11-2018 09:00:00 10.36667 C 97.0000 % 9.91 C
2146 13-11-2018 10:00:00 10.875 C 95.6667 % 10.21 C
2147 13-11-2018 11:00:00 11.6 C 91.8333 % 10.32 C
2148 13-11-2018 12:00:00 11.78333 C 89.2500 % 10.07 C
2149 13-11-2018 13:00:00 11.975 C 87.0000 % 9.88 C
2150 13-11-2018 14:00:00 12.20833 C 83.5833 % 9.51 C
Sensor: Nr:Datum:Temp:Feuchte:Taupunkt:
Aussen-T/F 2151 13-11-2018 15:00:00 12.38333 C 81.0833 % 9.23 C
2152 13-11-2018 16:00:00 11.85 C 81.0833 % 8.71 C
2153 13-11-2018 17:00:00 10.05 C 87.3333 % 8.04 C
2154 13-11-2018 18:00:00 8.90833 C 91.2500 % 7.56 C
2155 13-11-2018 19:00:00 8.65833 C 92.3333 % 7.49 C
2156 13-11-2018 20:00:00 8.41667 C 93.0000 % 7.35 C
2157 13-11-2018 21:00:00 8.34167 C 93.5000 % 7.36 C
2158 13-11-2018 22:00:00 7.91667 C 92.7500 % 6.82 C
2159 13-11-2018 23:00:00 7.125 C 94.0000 % 6.23 C
2160 14-11-2018 00:00:00 6.025 C 94.5000 % 5.21 C
2161 14-11-2018 01:00:00 5.29167 C 95.0000 % 4.56 C
2162 14-11-2018 02:00:00 4.75833 C 95.2500 % 4.06 C
2163 14-11-2018 03:00:00 4.24167 C 95.8333 % 3.64 C
2164 14-11-2018 04:00:00 4.49167 C 96.2500 % 3.95 C
2165 14-11-2018 05:00:00 4.45 C 96.2500 % 3.91 C
2166 14-11-2018 06:00:00 4.9 C 97.0000 % 4.46 C
2167 14-11-2018 07:00:00 5.49167 C 97.0000 % 5.05 C
2168 14-11-2018 08:00:00 5.8 C 97.0000 % 5.36 C
2169 14-11-2018 09:00:00 6.30833 C 97.0000 % 5.87 C
2170 14-11-2018 10:00:00 6.525 C 97.0000 % 6.08 C
2171 14-11-2018 11:00:00 6.44167 C 97.0000 % 6 C
2172 14-11-2018 12:00:00 7.025 C 97.1667 % 6.61 C
2173 14-11-2018 13:00:00 7.21667 C 97.0833 % 6.79 C
2174 14-11-2018 14:00:00 8.16667 C 97.8333 % 7.85 C
2175 14-11-2018 15:00:00 8.68333 C 97.2500 % 8.27 C
Sensor: Nr:Datum:Temp:Feuchte:Taupunkt:
Aussen-T/F 2176 14-11-2018 16:00:00 8.125 C 96.8333 % 7.65 C
2177 14-11-2018 17:00:00 6.54167 C 96.0000 % 5.95 C
2178 14-11-2018 18:00:00 5.13333 C 96.0000 % 4.55 C
2179 14-11-2018 19:00:00 5.65 C 97.0000 % 5.21 C
2180 14-11-2018 20:00:00 6.625 C 97.0000 % 6.18 C
2181 14-11-2018 21:00:00 6.86667 C 97.0000 % 6.42 C
2182 14-11-2018 22:00:00 6.69167 C 97.0000 % 6.25 C
2183 14-11-2018 23:00:00 6.93333 C 97.0000 % 6.49 C
2184 15-11-2018 00:00:00 7.225 C 97.0000 % 6.78 C
2185 15-11-2018 01:00:00 7.3 C 97.0000 % 6.86 C
2186 15-11-2018 02:00:00 7.3 C 96.8333 % 6.83 C
2187 15-11-2018 03:00:00 7.23333 C 96.0000 % 6.64 C
2188 15-11-2018 04:00:00 7.2 C 95.5000 % 6.53 C
2189 15-11-2018 05:00:00 7.16667 C 94.5000 % 6.34 C
2190 15-11-2018 06:00:00 7.00833 C 93.8333 % 6.08 C
2191 15-11-2018 07:00:00 6.70833 C 93.0000 % 5.66 C
2192 15-11-2018 08:00:00 6.58333 C 92.5000 % 5.46 C
2193 15-11-2018 09:00:00 6.525 C 91.5833 % 5.26 C
2194 15-11-2018 10:00:00 6.86667 C 90.1667 % 5.37 C
2195 15-11-2018 11:00:00 7.25 C 88.6667 % 5.51 C
2196 15-11-2018 12:00:00 7.40833 C 87.9167 % 5.54 C
2197 15-11-2018 13:00:00 7.55833 C 87.0000 % 5.54 C
2198 15-11-2018 14:00:00 7.54167 C 86.6667 % 5.47 C
2199 15-11-2018 15:00:00 7.34167 C 86.9167 % 5.31 C
2200 15-11-2018 16:00:00 7.14167 C 87.6667 % 5.24 C
Sensor: Nr:Datum:Temp:Feuchte:Taupunkt:
Aussen-T/F 2201 15-11-2018 17:00:00 6.88333 C 89.0000 % 5.2 C
2202 15-11-2018 18:00:00 6.78333 C 89.8333 % 5.23 C
2203 15-11-2018 19:00:00 6.675 C 90.0000 % 5.15 C
2204 15-11-2018 20:00:00 6.6 C 91.2500 % 5.28 C
2205 15-11-2018 21:00:00 6.6 C 92.0000 % 5.4 C
2206 15-11-2018 22:00:00 6.425 C 91.7500 % 5.18 C
2207 15-11-2018 23:00:00 6.23333 C 91.0000 % 4.88 C
2208 16-11-2018 00:00:00 6.3 C 91.0000 % 4.94 C
2209 16-11-2018 01:00:00 6.34167 C 91.0000 % 4.98 C
2210 16-11-2018 02:00:00 6.425 C 90.7500 % 5.03 C
2211 16-11-2018 03:00:00 6.575 C 90.1667 % 5.08 C
2212 16-11-2018 04:00:00 6.6 C 90.1667 % 5.11 C
2213 16-11-2018 05:00:00 6.5 C 90.0833 % 4.99 C
2214 16-11-2018 06:00:00 6.375 C 89.5000 % 4.78 C
2215 16-11-2018 07:00:00 6.275 C 89.5833 % 4.69 C
2216 16-11-2018 08:00:00 6.44167 C 88.4167 % 4.67 C
2217 16-11-2018 09:00:00 6.95 C 87.3333 % 4.99 C
2218 16-11-2018 10:00:00 7.18333 C 86.1667 % 5.03 C
2219 16-11-2018 11:00:00 6.7 C 88.9167 % 5.01 C
2220 16-11-2018 12:00:00 6.81667 C 90.5000 % 5.37 C
2221 16-11-2018 13:00:00 7.275 C 90.7500 % 5.87 C
2222 16-11-2018 14:00:00 7.66667 C 87.0833 % 5.66 C
2223 16-11-2018 15:00:00 7.81667 C 84.5833 % 5.39 C
2224 16-11-2018 16:00:00 6.89167 C 85.4167 % 4.62 C
2225 16-11-2018 17:00:00 5.81667 C 88.0000 % 3.99 C
Sensor: Nr:Datum:Temp:Feuchte:Taupunkt:
Aussen-T/F 2226 16-11-2018 18:00:00 5.10833 C 90.0000 % 3.61 C
2227 16-11-2018 19:00:00 4.56667 C 91.0833 % 3.24 C
2228 16-11-2018 20:00:00 4 C 92.5000 % 2.9 C
2229 16-11-2018 21:00:00 3.39167 C 93.5000 % 2.45 C
2230 16-11-2018 22:00:00 2.575 C 93.9167 % 1.7 C
2231 16-11-2018 23:00:00 1.675 C 94.5000 % 0.89 C
2232 17-11-2018 00:00:00 1.1 C 95.0000 % 0.39 C
2233 17-11-2018 01:00:00 0.73333 C 95.2500 % 0.06 C
2234 17-11-2018 02:00:00 0.24167 C 95.5000 % -0.39 C
2235 17-11-2018 03:00:00 0.20833 C 96.0000 % -0.35 C
2236 17-11-2018 04:00:00 0.38333 C 96.0000 % -0.18 C
2237 17-11-2018 05:00:00 0.36667 C 96.0000 % -0.19 C
2238 17-11-2018 06:00:00 0.05833 C 96.0000 % -0.5 C
2239 17-11-2018 07:00:00 -0.03333 C 96.0833 % -0.58 C
2240 17-11-2018 08:00:00 -0.125 C 96.4167 % -0.63 C
2241 17-11-2018 09:00:00 0.425 C 97.0000 % 0.01 C
2242 17-11-2018 10:00:00 1.2 C 97.0000 % 0.78 C
2243 17-11-2018 11:00:00 1.94167 C 97.0000 % 1.52 C
2244 17-11-2018 12:00:00 2.925 C 97.0000 % 2.5 C
2245 17-11-2018 13:00:00 4.08333 C 96.7500 % 3.61 C
2246 17-11-2018 14:00:00 5.75833 C 90.0000 % 4.25 C
2247 17-11-2018 15:00:00 7.34167 C 76.1667 % 3.43 C
2248 17-11-2018 16:00:00 7.30833 C 72.9167 % 2.78 C
2249 17-11-2018 17:00:00 5.275 C 80.4167 % 2.19 C
2250 17-11-2018 18:00:00 4.39167 C 82.6667 % 1.71 C
Sensor: Nr:Datum:Temp:Feuchte:Taupunkt:
Aussen-T/F 2251 17-11-2018 19:00:00 4.6 C 79.4167 % 1.35 C
2252 17-11-2018 20:00:00 5.3 C 73.0000 % 0.86 C
2253 17-11-2018 21:00:00 4.79167 C 72.9167 % 0.36 C
2254 17-11-2018 22:00:00 4.25833 C 75.0833 % 0.25 C
2255 17-11-2018 23:00:00 3.56667 C 78.4167 % 0.17 C
2256 18-11-2018 00:00:00 2.675 C 82.8333 % 0.06 C
2257 18-11-2018 01:00:00 2.38333 C 84.3333 % 0.02 C
2258 18-11-2018 02:00:00 2.025 C 86.0000 % -0.06 C
2259 18-11-2018 03:00:00 1.675 C 86.8333 % -0.28 C
2260 18-11-2018 04:00:00 1.13333 C 88.0833 % -0.61 C
2261 18-11-2018 05:00:00 0.95 C 87.2500 % -0.92 C
2262 18-11-2018 06:00:00 -0.025 C 88.5833 % -1.68 C
2263 18-11-2018 07:00:00 -0.9 C 91.2500 % -2.14 C
2264 18-11-2018 08:00:00 -0.31667 C 90.9167 % -1.62 C
2265 18-11-2018 09:00:00 -0.15833 C 90.3333 % -1.55 C
2266 18-11-2018 10:00:00 0.025 C 91.0833 % -1.25 C
2267 18-11-2018 11:00:00 0.93333 C 91.0833 % -0.35 C
2268 18-11-2018 12:00:00 1.825 C 88.9167 % 0.2 C
2269 18-11-2018 13:00:00 2.75 C 87.0000 % 0.81 C
2270 18-11-2018 14:00:00 4.30833 C 75.6667 % 0.4 C
2271 18-11-2018 15:00:00 4.94167 C 71.5000 % 0.23 C
2272 18-11-2018 16:00:00 4.74167 C 71.5833 % 0.06 C
2273 18-11-2018 17:00:00 3.71667 C 70.9167 % -1.06 C
2274 18-11-2018 18:00:00 2.90833 C 66.4167 % -2.72 C
2275 18-11-2018 19:00:00 2.48333 C 64.1667 % -3.58 C
Sensor: Nr:Datum:Temp:Feuchte:Taupunkt:
Aussen-T/F 2276 18-11-2018 20:00:00 2.2 C 62.0000 % -4.31 C
2277 18-11-2018 21:00:00 2.05 C 65.3333 % -3.76 C
2278 18-11-2018 22:00:00 1.33333 C 67.0000 % -4.1 C
2279 18-11-2018 23:00:00 0.9 C 66.9167 % -4.54 C
2280 19-11-2018 00:00:00 1.525 C 73.3333 % -2.72 C
2281 19-11-2018 01:00:00 0.80833 C 84.1667 % -1.55 C
2282 19-11-2018 02:00:00 1.58333 C 86.1667 % -0.47 C
2283 19-11-2018 03:00:00 1.93333 C 86.5000 % -0.08 C
2284 19-11-2018 04:00:00 1.95833 C 84.4167 % -0.38 C
2285 19-11-2018 05:00:00 1.76667 C 83.8333 % -0.67 C
2286 19-11-2018 06:00:00 1.68333 C 83.8333 % -0.75 C
2287 19-11-2018 07:00:00 1.58333 C 84.7500 % -0.7 C
2288 19-11-2018 08:00:00 1.33333 C 87.8333 % -0.46 C
2289 19-11-2018 09:00:00 2.175 C 87.5833 % 0.33 C
2290 19-11-2018 10:00:00 4.35833 C 85.1667 % 2.09 C
2291 19-11-2018 11:00:00 5.59167 C 82.0000 % 2.77 C
2292 19-11-2018 12:00:00 5.30833 C 83.1667 % 2.69 C
2293 19-11-2018 13:00:00 5.75 C 77.6667 % 2.16 C
2294 19-11-2018 14:00:00 5.76667 C 76.3333 % 1.93 C
2295 19-11-2018 15:00:00 5.35833 C 79.2500 % 2.06 C
2296 19-11-2018 16:00:00 5.1 C 78.4167 % 1.66 C
2297 19-11-2018 17:00:00 4.85833 C 77.5833 % 1.28 C
2298 19-11-2018 18:00:00 4.8 C 78.4167 % 1.37 C
2299 19-11-2018 19:00:00 4.55833 C 80.5000 % 1.5 C
2300 19-11-2018 20:00:00 4.59167 C 79.2500 % 1.32 C
Sensor: Nr:Datum:Temp:Feuchte:Taupunkt:
Aussen-T/F 2301 19-11-2018 21:00:00 4.61667 C 77.1667 % 0.97 C
2302 19-11-2018 22:00:00 4.46667 C 75.9167 % 0.6 C
2303 19-11-2018 23:00:00 4.20833 C 75.9167 % 0.35 C
2304 20-11-2018 00:00:00 3.83333 C 76.9167 % 0.17 C
2305 20-11-2018 01:00:00 3.5 C 77.0000 % -0.14 C
2306 20-11-2018 02:00:00 3.29167 C 77.0833 % -0.33 C
2307 20-11-2018 03:00:00 3.125 C 77.3333 % -0.45 C
2308 20-11-2018 04:00:00 2.88333 C 78.0833 % -0.55 C
2309 20-11-2018 05:00:00 2.8 C 78.1667 % -0.62 C
2310 20-11-2018 06:00:00 2.8 C 78.0000 % -0.65 C
2311 20-11-2018 07:00:00 2.88333 C 77.8333 % -0.59 C
2312 20-11-2018 08:00:00 3.04167 C 77.9167 % -0.42 C
2313 20-11-2018 09:00:00 3.36667 C 77.4167 % -0.2 C
2314 20-11-2018 10:00:00 3.76667 C 76.5833 % 0.04 C
2315 20-11-2018 11:00:00 4.29167 C 75.5833 % 0.37 C
2316 20-11-2018 12:00:00 4.60833 C 74.7500 % 0.52 C
2317 20-11-2018 13:00:00 4.78333 C 75.1667 % 0.77 C
2318 20-11-2018 14:00:00 4.825 C 76.0000 % 0.96 C
2319 20-11-2018 15:00:00 4.675 C 77.4167 % 1.07 C
2320 20-11-2018 16:00:00 4.41667 C 79.7500 % 1.23 C
2321 20-11-2018 17:00:00 4.10833 C 83.1667 % 1.52 C
2322 20-11-2018 18:00:00 3.50833 C 85.3333 % 1.28 C
2323 20-11-2018 19:00:00 2.63333 C 88.7500 % 0.97 C
2324 20-11-2018 20:00:00 3.025 C 88.8333 % 1.37 C
2325 20-11-2018 21:00:00 3.09167 C 89.0000 % 1.46 C
Sensor: Nr:Datum:Temp:Feuchte:Taupunkt:
Aussen-T/F 2326 20-11-2018 22:00:00 2.94167 C 88.2500 % 1.19 C
2327 20-11-2018 23:00:00 2.03333 C 90.2500 % 0.61 C
2328 21-11-2018 00:00:00 1.36667 C 91.5833 % 0.15 C
2329 21-11-2018 01:00:00 1.85 C 93.0000 % 0.84 C
2330 21-11-2018 02:00:00 2.425 C 92.1667 % 1.29 C
2331 21-11-2018 03:00:00 1.875 C 91.3333 % 0.62 C
2332 21-11-2018 04:00:00 1.61667 C 92.5000 % 0.54 C
2333 21-11-2018 05:00:00 0.875 C 92.6667 % -0.17 C
2334 21-11-2018 06:00:00 0.3 C 93.1667 % -0.67 C
2335 21-11-2018 07:00:00 0.26667 C 94.0000 % -0.58 C
2336 21-11-2018 08:00:00 0.29167 C 94.3333 % -0.51 C
2337 21-11-2018 09:00:00 1.58333 C 94.5833 % 0.81 C
2338 21-11-2018 10:00:00 2.75833 C 89.8333 % 1.26 C
2339 21-11-2018 11:00:00 3.43333 C 86.2500 % 1.36 C
2340 21-11-2018 12:00:00 3.825 C 84.0833 % 1.39 C
2341 21-11-2018 13:00:00 4.025 C 83.3333 % 1.46 C
2342 21-11-2018 14:00:00 4.1 C 82.5000 % 1.4 C
2343 21-11-2018 15:00:00 3.86667 C 83.0000 % 1.25 C
2344 21-11-2018 16:00:00 3.59167 C 83.6667 % 1.09 C
2345 21-11-2018 17:00:00 3.3 C 84.7500 % 0.99 C
2346 21-11-2018 18:00:00 3.3 C 85.5833 % 1.12 C
2347 21-11-2018 19:00:00 3.25 C 85.2500 % 1.02 C
2348 21-11-2018 20:00:00 3.14167 C 86.5833 % 1.13 C
2349 21-11-2018 21:00:00 3.05833 C 87.6667 % 1.22 C
2350 21-11-2018 22:00:00 2.975 C 88.0000 % 1.19 C
Sensor: Nr:Datum:Temp:Feuchte:Taupunkt:
Aussen-T/F 2351 21-11-2018 23:00:00 3 C 88.9167 % 1.36 C
2352 22-11-2018 00:00:00 3.05833 C 89.0000 % 1.43 C
2353 22-11-2018 01:00:00 3.1 C 89.0000 % 1.47 C
2354 22-11-2018 02:00:00 3.1 C 89.4167 % 1.53 C
2355 22-11-2018 03:00:00 3.1 C 90.0000 % 1.62 C
2356 22-11-2018 04:00:00 3.04167 C 90.0000 % 1.57 C
2357 22-11-2018 05:00:00 2.9 C 90.0000 % 1.43 C
2358 22-11-2018 06:00:00 2.78333 C 90.0833 % 1.32 C
2359 22-11-2018 07:00:00 2.53333 C 91.0833 % 1.23 C
2360 22-11-2018 08:00:00 2.71667 C 92.0000 % 1.55 C
2361 22-11-2018 09:00:00 3.45833 C 91.0000 % 2.13 C
2362 22-11-2018 10:00:00 4.4 C 84.5833 % 2.04 C
2363 22-11-2018 11:00:00 5.225 C 80.2500 % 2.11 C
2364 22-11-2018 12:00:00 5.50833 C 79.0000 % 2.16 C
2365 22-11-2018 13:00:00 5.81667 C 78.0000 % 2.29 C
2366 22-11-2018 14:00:00 5.4 C 79.4167 % 2.13 C
2367 22-11-2018 15:00:00 4.6 C 82.5000 % 1.88 C
2368 22-11-2018 16:00:00 3.175 C 86.1667 % 1.09 C
2369 22-11-2018 17:00:00 2.225 C 89.7500 % 0.72 C
2370 22-11-2018 18:00:00 2.5 C 90.5833 % 1.12 C
2371 22-11-2018 19:00:00 1.55 C 90.4167 % 0.16 C
2372 22-11-2018 20:00:00 0.975 C 91.9167 % -0.19 C
2373 22-11-2018 21:00:00 0.18333 C 92.5833 % -0.87 C
2374 22-11-2018 22:00:00 -0.41667 C 93.5000 % -1.33 C
2375 22-11-2018 23:00:00 -0.98333 C 93.9167 % -1.84 C
Sensor: Nr:Datum:Temp:Feuchte:Taupunkt:
Aussen-T/F 2376 23-11-2018 00:00:00 -1.29167 C 94.1667 % -2.11 C
2377 23-11-2018 01:00:00 -1.69167 C 94.4167 % -2.47 C
2378 23-11-2018 02:00:00 -1.84167 C 95.0000 % -2.53 C
2379 23-11-2018 03:00:00 -2.09167 C 95.0000 % -2.78 C
2380 23-11-2018 04:00:00 -2.10833 C 95.0000 % -2.8 C
2381 23-11-2018 05:00:00 -2.33333 C 95.0000 % -3.02 C
2382 23-11-2018 06:00:00 -2.175 C 95.2500 % -2.83 C
2383 23-11-2018 07:00:00 -2.20833 C 95.1667 % -2.88 C
2384 23-11-2018 08:00:00 -2.8 C 95.0000 % -3.49 C
2385 23-11-2018 09:00:00 -2.31667 C 95.9167 % -2.88 C
2386 23-11-2018 10:00:00 -1.98333 C 96.0000 % -2.53 C
2387 23-11-2018 11:00:00 -1.04167 C 96.0000 % -1.6 C
2388 23-11-2018 12:00:00 0.575 C 96.7500 % 0.12 C
2389 23-11-2018 13:00:00 2.20833 C 97.0000 % 1.78 C
2390 23-11-2018 14:00:00 3.125 C 96.3333 % 2.6 C
2391 23-11-2018 15:00:00 3.40833 C 95.6667 % 2.78 C
2392 23-11-2018 16:00:00 3.09167 C 95.0000 % 2.37 C
2393 23-11-2018 17:00:00 2.75 C 95.0000 % 2.03 C
2394 23-11-2018 18:00:00 2.45 C 95.0000 % 1.73 C
2395 23-11-2018 19:00:00 2.25833 C 95.0000 % 1.54 C
2396 23-11-2018 20:00:00 1.825 C 95.0000 % 1.11 C
2397 23-11-2018 21:00:00 1.49167 C 95.0000 % 0.78 C
2398 23-11-2018 22:00:00 1.36667 C 95.4167 % 0.72 C
2399 23-11-2018 23:00:00 1.94167 C 96.0000 % 1.37 C
2400 24-11-2018 00:00:00 2.24167 C 96.0000 % 1.67 C
Sensor: Nr:Datum:Temp:Feuchte:Taupunkt:
Aussen-T/F 2401 24-11-2018 01:00:00 2.375 C 96.0000 % 1.8 C
2402 24-11-2018 02:00:00 2.46667 C 96.0000 % 1.9 C
2403 24-11-2018 03:00:00 2.54167 C 96.0000 % 1.97 C
2404 24-11-2018 04:00:00 2.65833 C 96.0000 % 2.09 C
2405 24-11-2018 05:00:00 2.75833 C 96.0000 % 2.19 C
2406 24-11-2018 06:00:00 2.99167 C 96.0000 % 2.42 C
2407 24-11-2018 07:00:00 3.1 C 96.0000 % 2.53 C
2408 24-11-2018 08:00:00 3.125 C 96.0000 % 2.55 C
2409 24-11-2018 09:00:00 3.51667 C 96.0000 % 2.94 C
2410 24-11-2018 10:00:00 4.20833 C 96.8333 % 3.75 C
2411 24-11-2018 11:00:00 5.00833 C 97.0000 % 4.57 C
2412 24-11-2018 12:00:00 5.78333 C 97.0000 % 5.34 C
2413 24-11-2018 13:00:00 6.38333 C 97.0000 % 5.94 C
2414 24-11-2018 14:00:00 7.05 C 96.4167 % 6.52 C
2415 24-11-2018 15:00:00 7.38333 C 96.7500 % 6.9 C
2416 24-11-2018 16:00:00 7.26667 C 96.0000 % 6.67 C
2417 24-11-2018 17:00:00 7.2 C 96.0000 % 6.61 C
2418 24-11-2018 18:00:00 6.95 C 95.9167 % 6.34 C
2419 24-11-2018 19:00:00 5.90833 C 95.8333 % 5.3 C
2420 24-11-2018 20:00:00 6.10833 C 96.3333 % 5.57 C
2421 24-11-2018 21:00:00 6.05 C 96.7500 % 5.57 C
2422 24-11-2018 22:00:00 5.45 C 96.0000 % 4.86 C
2423 24-11-2018 23:00:00 5.425 C 96.5833 % 4.93 C
2424 25-11-2018 00:00:00 5.81667 C 97.0000 % 5.38 C
2425 25-11-2018 01:00:00 5.75833 C 97.0000 % 5.32 C
Sensor: Nr:Datum:Temp:Feuchte:Taupunkt:
Aussen-T/F 2426 25-11-2018 02:00:00 5.8 C 97.0000 % 5.36 C
2427 25-11-2018 03:00:00 5.75833 C 97.0000 % 5.32 C
2428 25-11-2018 04:00:00 5.26667 C 96.9167 % 4.82 C
2429 25-11-2018 05:00:00 4.48333 C 96.8333 % 4.03 C
2430 25-11-2018 06:00:00 4.63333 C 97.0000 % 4.2 C
2431 25-11-2018 07:00:00 3.48333 C 96.4167 % 2.97 C
2432 25-11-2018 08:00:00 3.60833 C 97.0000 % 3.18 C
2433 25-11-2018 09:00:00 4.475 C 97.0000 % 4.04 C
2434 25-11-2018 10:00:00 5.2 C 97.2500 % 4.8 C
2435 25-11-2018 11:00:00 6.20833 C 97.5000 % 5.84 C
2436 25-11-2018 12:00:00 6.49167 C 97.0000 % 6.05 C
2437 25-11-2018 13:00:00 7.14167 C 96.3333 % 6.6 C
2438 25-11-2018 14:00:00 7.70833 C 93.4167 % 6.71 C
2439 25-11-2018 15:00:00 7.875 C 92.3333 % 6.71 C
2440 25-11-2018 16:00:00 7.63333 C 93.1667 % 6.6 C
2441 25-11-2018 17:00:00 7.28333 C 94.0000 % 6.38 C
2442 25-11-2018 18:00:00 6.86667 C 94.0000 % 5.97 C
2443 25-11-2018 19:00:00 6.7 C 94.9167 % 5.94 C
2444 25-11-2018 20:00:00 6.53333 C 95.0000 % 5.79 C
2445 25-11-2018 21:00:00 6.40833 C 95.2500 % 5.71 C
2446 25-11-2018 22:00:00 6.28333 C 95.7500 % 5.66 C
2447 25-11-2018 23:00:00 6.29167 C 96.0000 % 5.7 C
2448 26-11-2018 00:00:00 6.35 C 96.0000 % 5.76 C
2449 26-11-2018 01:00:00 6.425 C 96.0000 % 5.83 C
2450 26-11-2018 02:00:00 6.4 C 95.7500 % 5.77 C
Sensor: Nr:Datum:Temp:Feuchte:Taupunkt:
Aussen-T/F 2451 26-11-2018 03:00:00 6.4 C 94.7500 % 5.62 C
2452 26-11-2018 04:00:00 6.40833 C 93.5000 % 5.44 C
2453 26-11-2018 05:00:00 6.38333 C 92.9167 % 5.32 C
2454 26-11-2018 06:00:00 6.24167 C 92.0833 % 5.05 C
2455 26-11-2018 07:00:00 5.90833 C 92.3333 % 4.76 C
2456 26-11-2018 08:00:00 5.86667 C 93.1667 % 4.85 C
2457 26-11-2018 09:00:00 6.275 C 92.6667 % 5.18 C
2458 26-11-2018 10:00:00 6.88333 C 90.0000 % 5.36 C
2459 26-11-2018 11:00:00 7.56667 C 84.7500 % 5.17 C
2460 26-11-2018 12:00:00 7.96667 C 80.8333 % 4.88 C
2461 26-11-2018 13:00:00 8.03333 C 79.1667 % 4.65 C
2462 26-11-2018 14:00:00 7.86667 C 81.0833 % 4.83 C
2463 26-11-2018 15:00:00 7.86667 C 78.3333 % 4.34 C
2464 26-11-2018 16:00:00 7.40833 C 80.9167 % 4.35 C
2465 26-11-2018 17:00:00 6.9 C 82.5833 % 4.15 C
2466 26-11-2018 18:00:00 6.3 C 86.3333 % 4.19 C
2467 26-11-2018 19:00:00 6.21667 C 86.5000 % 4.14 C
2468 26-11-2018 20:00:00 6.13333 C 86.5000 % 4.05 C
2469 26-11-2018 21:00:00 6.03333 C 86.1667 % 3.9 C
2470 26-11-2018 22:00:00 6.09167 C 83.5833 % 3.53 C
2471 26-11-2018 23:00:00 5.825 C 83.5833 % 3.27 C
2472 27-11-2018 00:00:00 5.55833 C 82.9167 % 2.89 C
2473 27-11-2018 01:00:00 5.31667 C 84.1667 % 2.87 C
2474 27-11-2018 02:00:00 4.9 C 85.2500 % 2.64 C
2475 27-11-2018 03:00:00 4.49167 C 86.9167 % 2.51 C
Sensor: Nr:Datum:Temp:Feuchte:Taupunkt:
Aussen-T/F 2476 27-11-2018 04:00:00 4.34167 C 87.0000 % 2.37 C
2477 27-11-2018 05:00:00 4 C 87.0000 % 2.04 C
2478 27-11-2018 06:00:00 3.33333 C 87.9167 % 1.53 C
2479 27-11-2018 07:00:00 3.26667 C 89.5000 % 1.71 C
2480 27-11-2018 08:00:00 3.46667 C 90.0000 % 1.99 C
2481 27-11-2018 09:00:00 3.73333 C 90.0000 % 2.25 C
2482 27-11-2018 10:00:00 4.55 C 87.6667 % 2.69 C
2483 27-11-2018 11:00:00 5.49167 C 81.6667 % 2.61 C
2484 27-11-2018 12:00:00 5.75 C 78.0833 % 2.24 C
2485 27-11-2018 13:00:00 5.75 C 75.7500 % 1.81 C
2486 27-11-2018 14:00:00 5.275 C 77.9167 % 1.74 C
2487 27-11-2018 15:00:00 5.15 C 78.0000 % 1.64 C
2488 27-11-2018 16:00:00 4.95833 C 77.8333 % 1.42 C
2489 27-11-2018 17:00:00 4.38333 C 78.1667 % 0.92 C
2490 27-11-2018 18:00:00 3.35 C 81.0000 % 0.41 C
2491 27-11-2018 19:00:00 3.71667 C 78.6667 % 0.36 C
2492 27-11-2018 20:00:00 2.66667 C 81.1667 % -0.23 C
2493 27-11-2018 21:00:00 1.29167 C 87.1667 % -0.6 C
2494 27-11-2018 22:00:00 1.85 C 89.5000 % 0.31 C
2495 27-11-2018 23:00:00 2.4 C 88.8333 % 0.75 C
2496 28-11-2018 00:00:00 2.6 C 89.0000 % 0.97 C
2497 28-11-2018 01:00:00 2.56667 C 89.5000 % 1.02 C
2498 28-11-2018 02:00:00 1.825 C 89.5000 % 0.29 C
2499 28-11-2018 03:00:00 0.75 C 91.4167 % -0.48 C
2500 28-11-2018 04:00:00 0.25 C 93.1667 % -0.72 C
Sensor: Nr:Datum:Temp:Feuchte:Taupunkt:
Aussen-T/F 2501 28-11-2018 05:00:00 0.39167 C 94.0000 % -0.46 C
2502 28-11-2018 06:00:00 0.34167 C 94.5000 % -0.44 C
2503 28-11-2018 07:00:00 0.50833 C 95.0000 % -0.2 C
2504 28-11-2018 08:00:00 0.88333 C 95.3333 % 0.22 C
2505 28-11-2018 09:00:00 2.59167 C 96.0833 % 2.03 C
2506 28-11-2018 10:00:00 4.00833 C 93.0833 % 2.99 C
2507 28-11-2018 11:00:00 4.98333 C 88.1667 % 3.19 C
2508 28-11-2018 12:00:00 5.54167 C 85.8333 % 3.36 C
2509 28-11-2018 13:00:00 6.125 C 84.8333 % 3.77 C
2510 28-11-2018 14:00:00 6.60833 C 83.4167 % 4 C
2511 28-11-2018 15:00:00 6.15 C 85.1667 % 3.85 C
2512 28-11-2018 16:00:00 5.68333 C 88.5833 % 3.95 C
2513 28-11-2018 17:00:00 5.38333 C 91.6667 % 4.14 C
2514 28-11-2018 18:00:00 5.21667 C 93.7500 % 4.29 C
2515 28-11-2018 19:00:00 5.2 C 94.9167 % 4.45 C
2516 28-11-2018 20:00:00 5.2 C 95.1667 % 4.49 C
2517 28-11-2018 21:00:00 5.19167 C 95.9167 % 4.59 C
2518 28-11-2018 22:00:00 5.425 C 96.0000 % 4.84 C
2519 28-11-2018 23:00:00 5.375 C 96.0000 % 4.79 C
2520 29-11-2018 00:00:00 5.51667 C 96.0000 % 4.93 C
2521 29-11-2018 01:00:00 5.56667 C 96.0000 % 4.98 C
2522 29-11-2018 02:00:00 5.41667 C 96.9167 % 4.97 C
2523 29-11-2018 03:00:00 5.575 C 97.0000 % 5.14 C
2524 29-11-2018 04:00:00 5.63333 C 97.0000 % 5.2 C
2525 29-11-2018 05:00:00 5.5 C 96.8333 % 5.04 C
Sensor: Nr:Datum:Temp:Feuchte:Taupunkt:
Aussen-T/F 2526 29-11-2018 06:00:00 5.23333 C 96.0000 % 4.65 C
2527 29-11-2018 07:00:00 5.225 C 95.3333 % 4.54 C
2528 29-11-2018 08:00:00 5.36667 C 93.8333 % 4.46 C
2529 29-11-2018 09:00:00 5.46667 C 92.3333 % 4.32 C
2530 29-11-2018 10:00:00 5.95 C 91.2500 % 4.64 C
2531 29-11-2018 11:00:00 6.50833 C 89.2500 % 4.87 C
2532 29-11-2018 12:00:00 6.78333 C 88.0000 % 4.94 C
2533 29-11-2018 13:00:00 6.49091 C 89.1818 % 4.84 C
2534 29-11-2018 14:00:00 6.725 C 89.0833 % 5.06 C
2535 29-11-2018 15:00:00 6.725 C 88.1667 % 4.91 C
2536 29-11-2018 16:00:00 6.34167 C 87.7500 % 4.46 C
2537 29-11-2018 17:00:00 5.65833 C 88.5000 % 3.91 C
2538 29-11-2018 18:00:00 5.075 C 90.7500 % 3.69 C
2539 29-11-2018 19:00:00 5.025 C 92.7500 % 3.95 C
2540 29-11-2018 20:00:00 5.23333 C 93.4167 % 4.26 C
2541 29-11-2018 21:00:00 4.94167 C 93.0833 % 3.92 C
2542 29-11-2018 22:00:00 5 C 94.4167 % 4.18 C
2543 29-11-2018 23:00:00 5.4 C 93.4167 % 4.43 C
2544 30-11-2018 00:00:00 5.76667 C 94.0000 % 4.88 C
2545 30-11-2018 01:00:00 6.31667 C 93.9167 % 5.41 C
2546 30-11-2018 02:00:00 6.25833 C 93.6667 % 5.31 C
2547 30-11-2018 03:00:00 6.45833 C 94.0000 % 5.56 C
2548 30-11-2018 04:00:00 6.68333 C 94.5000 % 5.86 C
2549 30-11-2018 05:00:00 6.36667 C 95.0000 % 5.63 C
2550 30-11-2018 06:00:00 6.33333 C 96.0000 % 5.74 C
Sensor: Nr:Datum:Temp:Feuchte:Taupunkt:
Aussen-T/F 2551 30-11-2018 07:00:00 6.73333 C 96.0000 % 6.14 C
2552 30-11-2018 08:00:00 6.49167 C 96.0000 % 5.9 C
2553 30-11-2018 09:00:00 6.74167 C 97.0000 % 6.3 C
2554 30-11-2018 10:00:00 7.29167 C 97.0000 % 6.85 C
2555 30-11-2018 11:00:00 7.88333 C 97.0000 % 7.44 C
2556 30-11-2018 12:00:00 8.425 C 96.8333 % 7.95 C
2557 30-11-2018 13:00:00 9.04167 C 96.3333 % 8.49 C
2558 30-11-2018 14:00:00 9.58333 C 94.9167 % 8.81 C
2559 30-11-2018 15:00:00 9.3 C 92.7500 % 8.19 C
2560 30-11-2018 16:00:00 9 C 92.4167 % 7.84 C
2561 30-11-2018 17:00:00 8.85 C 93.0000 % 7.78 C
2562 30-11-2018 18:00:00 8.475 C 93.1667 % 7.44 C
2563 30-11-2018 19:00:00 8.28333 C 94.0833 % 7.39 C
2564 30-11-2018 20:00:00 7.44167 C 94.3333 % 6.59 C
2565 30-11-2018 21:00:00 8.15 C 93.7500 % 7.2 C
2566 30-11-2018 22:00:00 7.05833 C 93.0000 % 6.01 C
2567 30-11-2018 23:00:00 5.75 C 93.8333 % 4.84 C
2568 01-12-2018 00:00:00 5.3 C 95.3333 % 4.62 C
2569 01-12-2018 01:00:00 5.35 C 96.0000 % 4.76 C
2570 01-12-2018 02:00:00 5.86667 C 96.1667 % 5.3 C
2571 01-12-2018 03:00:00 5.25 C 96.0000 % 4.67 C
2572 01-12-2018 04:00:00 5.13333 C 96.0000 % 4.55 C
2573 01-12-2018 05:00:00 4.90833 C 96.2500 % 4.36 C
2574 01-12-2018 06:00:00 5.53333 C 97.0000 % 5.1 C
2575 01-12-2018 07:00:00 6.125 C 97.0000 % 5.69 C
Sensor: Nr:Datum:Temp:Feuchte:Taupunkt:
Aussen-T/F 2576 01-12-2018 08:00:00 6.575 C 96.3333 % 6.03 C
2577 01-12-2018 09:00:00 7.225 C 96.0000 % 6.63 C
2578 01-12-2018 10:00:00 7.95833 C 95.0000 % 7.21 C
2579 01-12-2018 11:00:00 8.975 C 89.8333 % 7.4 C
2580 01-12-2018 12:00:00 9.75 C 86.2500 % 7.57 C
2581 01-12-2018 13:00:00 9.79167 C 83.0833 % 7.06 C
2582 01-12-2018 14:00:00 9.5 C 82.7500 % 6.72 C
2583 01-12-2018 15:00:00 9.475 C 83.9167 % 6.9 C
2584 01-12-2018 16:00:00 9.00833 C 85.0833 % 6.64 C
2585 01-12-2018 17:00:00 8.60833 C 88.4167 % 6.81 C
2586 01-12-2018 18:00:00 7.71667 C 92.9167 % 6.65 C
2587 01-12-2018 19:00:00 7.875 C 91.5000 % 6.58 C
2588 01-12-2018 20:00:00 8.34167 C 88.4167 % 6.54 C
2589 01-12-2018 21:00:00 8.41667 C 88.8333 % 6.68 C
2590 01-12-2018 22:00:00 8.38333 C 90.2500 % 6.88 C
2591 01-12-2018 23:00:00 8.69167 C 89.6667 % 7.09 C
2592 02-12-2018 00:00:00 9.1 C 88.5000 % 7.3 C
2593 02-12-2018 01:00:00 9.425 C 87.6667 % 7.49 C
2594 02-12-2018 02:00:00 9.76667 C 87.0000 % 7.71 C
2595 02-12-2018 03:00:00 9.91667 C 87.0000 % 7.86 C
2596 02-12-2018 04:00:00 9.59167 C 90.5000 % 8.12 C
2597 02-12-2018 05:00:00 8.75833 C 94.5833 % 7.94 C
2598 02-12-2018 06:00:00 8.74167 C 95.7500 % 8.1 C
2599 02-12-2018 07:00:00 8.95 C 96.0000 % 8.35 C
2600 02-12-2018 08:00:00 9.15 C 96.7500 % 8.66 C
Sensor: Nr:Datum:Temp:Feuchte:Taupunkt:
Aussen-T/F 2601 02-12-2018 09:00:00 9.60833 C 97.0000 % 9.16 C
2602 02-12-2018 10:00:00 10.1 C 96.5833 % 9.58 C
2603 02-12-2018 11:00:00 10.9 C 95.6667 % 10.24 C
2604 02-12-2018 12:00:00 12.15833 C 94.0000 % 11.22 C
2605 02-12-2018 13:00:00 13.1 C 91.5833 % 11.76 C
2606 02-12-2018 14:00:00 13.38333 C 92.0000 % 12.11 C
2607 02-12-2018 15:00:00 13.58333 C 92.0000 % 12.31 C
2608 02-12-2018 16:00:00 13.25 C 92.8333 % 12.12 C
2609 02-12-2018 17:00:00 13.06667 C 94.2500 % 12.16 C
2610 02-12-2018 18:00:00 13.70833 C 92.0833 % 12.45 C
2611 02-12-2018 19:00:00 13.71667 C 92.7500 % 12.56 C
2612 02-12-2018 20:00:00 13.00833 C 93.5000 % 11.98 C
2613 02-12-2018 21:00:00 12.8 C 94.8333 % 11.99 C
2614 02-12-2018 22:00:00 12.48333 C 95.0833 % 11.72 C
2615 02-12-2018 23:00:00 12.46667 C 96.1667 % 11.87 C
2616 03-12-2018 00:00:00 12.86667 C 96.1667 % 12.27 C
2617 03-12-2018 01:00:00 12.40833 C 95.5833 % 11.72 C
2618 03-12-2018 02:00:00 12.1 C 95.2500 % 11.36 C
2619 03-12-2018 03:00:00 11.78333 C 95.8333 % 11.14 C
2620 03-12-2018 04:00:00 12.39167 C 96.0833 % 11.79 C
2621 03-12-2018 05:00:00 12.325 C 96.0000 % 11.71 C
2622 03-12-2018 06:00:00 11.93333 C 96.3333 % 11.37 C
2623 03-12-2018 07:00:00 11.98333 C 96.9167 % 11.51 C
2624 03-12-2018 08:00:00 11.84167 C 97.0000 % 11.38 C
2625 03-12-2018 09:00:00 12.175 C 97.0000 % 11.71 C
Sensor: Nr:Datum:Temp:Feuchte:Taupunkt:
Aussen-T/F 2626 03-12-2018 10:00:00 12.33333 C 97.0000 % 11.87 C
2627 03-12-2018 11:00:00 12.825 C 97.0000 % 12.36 C
2628 03-12-2018 12:00:00 12.875 C 96.1667 % 12.28 C
2629 03-12-2018 13:00:00 12.40833 C 94.0000 % 11.47 C
2630 03-12-2018 14:00:00 12.13333 C 94.4167 % 11.26 C
2631 03-12-2018 15:00:00 11.825 C 94.0000 % 10.89 C
2632 03-12-2018 16:00:00 11.55 C 94.5000 % 10.7 C
2633 03-12-2018 17:00:00 11.225 C 95.2500 % 10.49 C
2634 03-12-2018 18:00:00 11.05833 C 96.0000 % 10.45 C
2635 03-12-2018 19:00:00 10.88333 C 96.0000 % 10.27 C
2636 03-12-2018 20:00:00 10.86667 C 96.0000 % 10.25 C
2637 03-12-2018 21:00:00 10.23333 C 95.2500 % 9.51 C
2638 03-12-2018 22:00:00 9.73333 C 95.8333 % 9.1 C
2639 03-12-2018 23:00:00 10.65 C 94.9167 % 9.87 C
2640 04-12-2018 00:00:00 10.775 C 94.0000 % 9.85 C
2641 04-12-2018 01:00:00 10.58333 C 92.9167 % 9.49 C
2642 04-12-2018 02:00:00 10.28333 C 89.7500 % 8.68 C
2643 04-12-2018 03:00:00 9.7 C 88.2500 % 7.85 C
2644 04-12-2018 04:00:00 8.74167 C 89.7500 % 7.15 C
2645 04-12-2018 05:00:00 8.325 C 90.2500 % 6.82 C
2646 04-12-2018 06:00:00 7.74167 C 91.5833 % 6.46 C
2647 04-12-2018 07:00:00 7.625 C 91.5833 % 6.34 C
2648 04-12-2018 08:00:00 7.25 C 91.8333 % 6.01 C
2649 04-12-2018 09:00:00 7.275 C 89.6667 % 5.69 C
2650 04-12-2018 10:00:00 7.59167 C 88.0000 % 5.74 C
Sensor: Nr:Datum:Temp:Feuchte:Taupunkt:
Aussen-T/F 2651 04-12-2018 11:00:00 7.975 C 88.4167 % 6.18 C
2652 04-12-2018 12:00:00 8.28333 C 85.6667 % 6.03 C
2653 04-12-2018 13:00:00 8.075 C 85.9167 % 5.86 C
2654 04-12-2018 14:00:00 7.79167 C 88.0833 % 5.95 C
2655 04-12-2018 15:00:00 7.4 C 84.3333 % 4.94 C
2656 04-12-2018 16:00:00 5.05833 C 88.9167 % 3.39 C
2657 04-12-2018 17:00:00 3.59167 C 92.5000 % 2.49 C
2658 04-12-2018 18:00:00 2.75833 C 94.2500 % 1.93 C
2659 04-12-2018 19:00:00 2.35833 C 94.9167 % 1.63 C
2660 04-12-2018 20:00:00 2.00833 C 95.2500 % 1.33 C
2661 04-12-2018 21:00:00 1.54167 C 95.3333 % 0.88 C
2662 04-12-2018 22:00:00 1.425 C 96.0000 % 0.86 C
2663 04-12-2018 23:00:00 1.53333 C 96.0000 % 0.97 C
2664 05-12-2018 00:00:00 1.6 C 96.5000 % 1.1 C
2665 05-12-2018 01:00:00 1.31667 C 96.5833 % 0.83 C
2666 05-12-2018 02:00:00 1.15833 C 96.1667 % 0.62 C
2667 05-12-2018 03:00:00 1.16667 C 97.0000 % 0.74 C
2668 05-12-2018 04:00:00 1.1 C 97.0000 % 0.68 C
2669 05-12-2018 05:00:00 1.19167 C 97.0000 % 0.77 C
2670 05-12-2018 06:00:00 1.31667 C 97.0000 % 0.89 C
2671 05-12-2018 07:00:00 1.40833 C 97.0000 % 0.99 C
2672 05-12-2018 08:00:00 1.7 C 97.0000 % 1.28 C
2673 05-12-2018 09:00:00 1.84167 C 97.0000 % 1.42 C
2674 05-12-2018 10:00:00 2.325 C 97.2500 % 1.93 C
2675 05-12-2018 11:00:00 3.11667 C 98.0000 % 2.83 C
Sensor: Nr:Datum:Temp:Feuchte:Taupunkt:
Aussen-T/F 2676 05-12-2018 12:00:00 4.08333 C 98.0000 % 3.8 C
2677 05-12-2018 13:00:00 5.14167 C 98.0000 % 4.85 C
2678 05-12-2018 14:00:00 6.35 C 97.4167 % 5.97 C
2679 05-12-2018 15:00:00 6.63333 C 95.5000 % 5.97 C
2680 05-12-2018 16:00:00 6.10833 C 94.4167 % 5.28 C
2681 05-12-2018 17:00:00 6.05833 C 94.5833 % 5.26 C
2682 05-12-2018 18:00:00 6.09167 C 93.1667 % 5.07 C
2683 05-12-2018 19:00:00 5.88333 C 93.2500 % 4.88 C
2684 05-12-2018 20:00:00 5.28333 C 94.0000 % 4.4 C
2685 05-12-2018 21:00:00 5.025 C 95.0000 % 4.29 C
2686 05-12-2018 22:00:00 5.06667 C 95.5000 % 4.41 C
2687 05-12-2018 23:00:00 5.60833 C 96.0000 % 5.02 C
2688 06-12-2018 00:00:00 6.01667 C 96.5000 % 5.5 C
2689 06-12-2018 01:00:00 6.33333 C 97.0000 % 5.89 C
2690 06-12-2018 02:00:00 6.28333 C 97.0000 % 5.84 C
2691 06-12-2018 03:00:00 6.325 C 97.0000 % 5.88 C
2692 06-12-2018 04:00:00 6.53333 C 97.0000 % 6.09 C
2693 06-12-2018 05:00:00 6.70833 C 97.0000 % 6.27 C
2694 06-12-2018 06:00:00 6.85833 C 97.0000 % 6.42 C
2695 06-12-2018 07:00:00 7.24167 C 97.5000 % 6.87 C
2696 06-12-2018 08:00:00 8.06667 C 98.0000 % 7.77 C
2697 06-12-2018 09:00:00 9.16667 C 98.0000 % 8.87 C
2698 06-12-2018 10:00:00 9.90833 C 97.1667 % 9.48 C
2699 06-12-2018 11:00:00 10.7 C 95.4167 % 10 C
2700 06-12-2018 12:00:00 11.33333 C 92.7500 % 10.2 C
Sensor: Nr:Datum:Temp:Feuchte:Taupunkt:
Aussen-T/F 2701 06-12-2018 13:00:00 11.79167 C 91.4167 % 10.44 C
2702 06-12-2018 14:00:00 12.175 C 89.9167 % 10.57 C
2703 06-12-2018 15:00:00 12.05 C 89.5833 % 10.39 C
2704 06-12-2018 16:00:00 11.675 C 90.4167 % 10.16 C
2705 06-12-2018 17:00:00 11.34167 C 91.0000 % 9.93 C
2706 06-12-2018 18:00:00 11.34167 C 92.0000 % 10.09 C
2707 06-12-2018 19:00:00 11.88333 C 91.6667 % 10.57 C
2708 06-12-2018 20:00:00 12.45833 C 90.1667 % 10.89 C
2709 06-12-2018 21:00:00 12.73333 C 90.0000 % 11.14 C
2710 06-12-2018 22:00:00 12.68333 C 90.0000 % 11.09 C
2711 06-12-2018 23:00:00 12.64167 C 89.9167 % 11.03 C
2712 07-12-2018 00:00:00 12.71667 C 90.0000 % 11.12 C
2713 07-12-2018 01:00:00 12.7 C 90.0000 % 11.1 C
2714 07-12-2018 02:00:00 12.75833 C 88.8333 % 10.96 C
2715 07-12-2018 03:00:00 12.5 C 89.7500 % 10.86 C
2716 07-12-2018 04:00:00 12.31667 C 89.0833 % 10.57 C
2717 07-12-2018 05:00:00 12.21667 C 88.2500 % 10.33 C
2718 07-12-2018 06:00:00 11.96667 C 88.9167 % 10.2 C
2719 07-12-2018 07:00:00 12.05833 C 85.6667 % 9.73 C
2720 07-12-2018 08:00:00 12.05 C 84.5000 % 9.52 C
2721 07-12-2018 09:00:00 11.9 C 86.0000 % 9.64 C
2722 07-12-2018 10:00:00 11.76667 C 87.4167 % 9.75 C
2723 07-12-2018 11:00:00 11.8 C 86.4167 % 9.61 C
2724 07-12-2018 12:00:00 12.025 C 84.2500 % 9.45 C
2725 07-12-2018 13:00:00 12.24167 C 82.9167 % 9.43 C
Sensor: Nr:Datum:Temp:Feuchte:Taupunkt:
Aussen-T/F 2726 07-12-2018 14:00:00 12.40833 C 81.7500 % 9.38 C
2727 07-12-2018 15:00:00 11.65 C 84.2500 % 9.08 C
2728 07-12-2018 16:00:00 11.13333 C 84.8333 % 8.68 C
2729 07-12-2018 17:00:00 10.69167 C 87.2500 % 8.66 C
2730 07-12-2018 18:00:00 10.425 C 89.6667 % 8.8 C
2731 07-12-2018 19:00:00 10.25 C 91.0000 % 8.85 C
2732 07-12-2018 20:00:00 9.24167 C 86.8333 % 7.17 C
2733 07-12-2018 21:00:00 8.35833 C 82.9167 % 5.63 C
2734 07-12-2018 22:00:00 7.21667 C 83.5000 % 4.61 C
2735 07-12-2018 23:00:00 7.1 C 86.0000 % 4.92 C
2736 08-12-2018 00:00:00 7.325 C 84.1667 % 4.83 C
2737 08-12-2018 01:00:00 6.95 C 85.3333 % 4.66 C
2738 08-12-2018 02:00:00 7.04167 C 84.7500 % 4.65 C
2739 08-12-2018 03:00:00 6.83333 C 85.8333 % 4.63 C
2740 08-12-2018 04:00:00 6.60833 C 87.2500 % 4.64 C
2741 08-12-2018 05:00:00 6.8 C 87.9167 % 4.94 C
2742 08-12-2018 06:00:00 6.90833 C 88.3333 % 5.12 C
2743 08-12-2018 07:00:00 6.98333 C 87.9167 % 5.12 C
2744 08-12-2018 08:00:00 6.9 C 88.5000 % 5.14 C
2745 08-12-2018 09:00:00 6.74167 C 90.1667 % 5.25 C
2746 08-12-2018 10:00:00 7.11667 C 89.7500 % 5.55 C
2747 08-12-2018 11:00:00 7.50833 C 91.5000 % 6.22 C
2748 08-12-2018 12:00:00 7.78333 C 90.4167 % 6.32 C
2749 08-12-2018 13:00:00 8.15 C 90.3333 % 6.66 C
2750 08-12-2018 14:00:00 8.6 C 88.8333 % 6.87 C
Sensor: Nr:Datum:Temp:Feuchte:Taupunkt:
Aussen-T/F 2751 08-12-2018 15:00:00 8.6 C 88.1667 % 6.76 C
2752 08-12-2018 16:00:00 8.63333 C 88.2500 % 6.8 C
2753 08-12-2018 17:00:00 8.86667 C 87.4167 % 6.89 C
2754 08-12-2018 18:00:00 8.95 C 87.9167 % 7.06 C
2755 08-12-2018 19:00:00 9.09167 C 88.2500 % 7.25 C
2756 08-12-2018 20:00:00 9.25833 C 89.9167 % 7.69 C
2757 08-12-2018 21:00:00 9.775 C 89.8333 % 8.19 C
2758 08-12-2018 22:00:00 9.9 C 91.8333 % 8.64 C
2759 08-12-2018 23:00:00 10.04167 C 91.5000 % 8.72 C
2760 09-12-2018 00:00:00 10.025 C 82.4167 % 7.17 C
2761 09-12-2018 01:00:00 9.84167 C 81.2500 % 6.79 C
2762 09-12-2018 02:00:00 9.63333 C 83.1667 % 6.92 C
2763 09-12-2018 03:00:00 9.29167 C 80.2500 % 6.07 C
2764 09-12-2018 04:00:00 8.81667 C 82.9167 % 6.08 C
2765 09-12-2018 05:00:00 8.38333 C 84.6667 % 5.96 C
2766 09-12-2018 06:00:00 8.06667 C 85.5000 % 5.79 C
2767 09-12-2018 07:00:00 8.15 C 85.6667 % 5.9 C
2768 09-12-2018 08:00:00 8.73333 C 82.5833 % 5.94 C
2769 09-12-2018 09:00:00 8.56667 C 86.4167 % 6.43 C
2770 09-12-2018 10:00:00 8.1 C 91.0000 % 6.72 C
2771 09-12-2018 11:00:00 7.825 C 91.0833 % 6.46 C
2772 09-12-2018 12:00:00 7.79167 C 93.7500 % 6.85 C
2773 09-12-2018 13:00:00 7.475 C 92.6667 % 6.37 C
2774 09-12-2018 14:00:00 7 C 94.2727 % 6.14 C
2775 09-12-2018 15:00:00 7.36667 C 94.0000 % 6.47 C
Sensor: Nr:Datum:Temp:Feuchte:Taupunkt:
Aussen-T/F 2776 09-12-2018 16:00:00 7.34167 C 93.0833 % 6.3 C
2777 09-12-2018 17:00:00 7.225 C 92.8333 % 6.14 C
2778 09-12-2018 18:00:00 7.7 C 88.6667 % 5.95 C
2779 09-12-2018 19:00:00 8.1 C 85.1667 % 5.76 C
2780 09-12-2018 20:00:00 7.81667 C 87.0833 % 5.81 C
2781 09-12-2018 21:00:00 6.74167 C 90.5833 % 5.31 C
2782 09-12-2018 22:00:00 6.40833 C 91.2500 % 5.09 C
2783 09-12-2018 23:00:00 6.125 C 91.6667 % 4.87 C
2784 10-12-2018 00:00:00 6.01667 C 90.5000 % 4.58 C
2785 10-12-2018 01:00:00 5.85 C 91.0000 % 4.5 C
2786 10-12-2018 02:00:00 5.96667 C 89.4167 % 4.36 C
2787 10-12-2018 03:00:00 5.775 C 87.5000 % 3.86 C
2788 10-12-2018 04:00:00 5.7 C 87.8333 % 3.84 C
2789 10-12-2018 05:00:00 5.36667 C 91.5833 % 4.11 C
2790 10-12-2018 06:00:00 4.95 C 93.0833 % 3.93 C
2791 10-12-2018 07:00:00 4.85 C 93.3333 % 3.87 C
2792 10-12-2018 08:00:00 4.35 C 93.8333 % 3.45 C
2793 10-12-2018 09:00:00 4.51667 C 94.0000 % 3.64 C
2794 10-12-2018 10:00:00 4.93333 C 93.2500 % 3.94 C
2795 10-12-2018 11:00:00 5.23333 C 91.5000 % 3.96 C
2796 10-12-2018 12:00:00 5.46667 C 92.3333 % 4.32 C
2797 10-12-2018 13:00:00 5.325 C 93.0000 % 4.29 C
2798 10-12-2018 14:00:00 5.875 C 92.7500 % 4.79 C
2799 10-12-2018 15:00:00 5.875 C 88.3333 % 4.1 C
2800 10-12-2018 16:00:00 4.675 C 92.2500 % 3.53 C
Sensor: Nr:Datum:Temp:Feuchte:Taupunkt:
Aussen-T/F 2801 10-12-2018 17:00:00 4.54167 C 92.8333 % 3.48 C
2802 10-12-2018 18:00:00 4.25833 C 91.2500 % 2.96 C
2803 10-12-2018 19:00:00 3.95 C 90.0000 % 2.46 C
2804 10-12-2018 20:00:00 4.26667 C 90.0833 % 2.79 C
2805 10-12-2018 21:00:00 3.95833 C 89.9167 % 2.46 C
2806 10-12-2018 22:00:00 3.51667 C 90.7500 % 2.15 C
2807 10-12-2018 23:00:00 4.00833 C 90.0000 % 2.52 C
2808 11-12-2018 00:00:00 3.81667 C 90.1667 % 2.36 C
2809 11-12-2018 01:00:00 3.86667 C 91.0833 % 2.55 C
2810 11-12-2018 02:00:00 4.375 C 90.3333 % 2.93 C
2811 11-12-2018 03:00:00 4.275 C 91.5000 % 3.02 C
2812 11-12-2018 04:00:00 4.16667 C 92.5000 % 3.06 C
2813 11-12-2018 05:00:00 4.25833 C 92.7500 % 3.19 C
2814 11-12-2018 06:00:00 4.14167 C 92.9167 % 3.1 C
2815 11-12-2018 07:00:00 3.925 C 94.3333 % 3.1 C
2816 11-12-2018 08:00:00 3.76667 C 95.0000 % 3.04 C
2817 11-12-2018 09:00:00 3.8 C 95.0000 % 3.07 C
2818 11-12-2018 10:00:00 4.09167 C 94.7500 % 3.33 C
2819 11-12-2018 11:00:00 4.23333 C 94.4167 % 3.42 C
2820 11-12-2018 12:00:00 4.98333 C 93.1667 % 3.97 C
2821 11-12-2018 13:00:00 4.84167 C 92.5000 % 3.73 C
2822 11-12-2018 14:00:00 4.675 C 93.8333 % 3.77 C
2823 11-12-2018 15:00:00 4.825 C 94.2500 % 3.98 C
2824 11-12-2018 16:00:00 4.45 C 94.5000 % 3.65 C
2825 11-12-2018 17:00:00 3.96667 C 94.0833 % 3.1 C
Sensor: Nr:Datum:Temp:Feuchte:Taupunkt:
Aussen-T/F 2826 11-12-2018 18:00:00 3.18333 C 94.2500 % 2.35 C
2827 11-12-2018 19:00:00 3.30833 C 95.5833 % 2.67 C
2828 11-12-2018 20:00:00 3.325 C 95.4167 % 2.66 C
2829 11-12-2018 21:00:00 2.33333 C 95.2500 % 1.65 C
2830 11-12-2018 22:00:00 1.76667 C 95.5000 % 1.13 C
2831 11-12-2018 23:00:00 1.875 C 96.0000 % 1.31 C
2832 12-12-2018 00:00:00 2.14167 C 96.0000 % 1.57 C
2833 12-12-2018 01:00:00 1.69167 C 96.0000 % 1.12 C
2834 12-12-2018 02:00:00 2.10833 C 97.0000 % 1.68 C
2835 12-12-2018 03:00:00 2.4 C 97.0000 % 1.97 C
2836 12-12-2018 04:00:00 2.43333 C 97.0000 % 2.01 C
2837 12-12-2018 05:00:00 2.49167 C 96.5833 % 2 C
2838 12-12-2018 06:00:00 2.58182 C 97.0000 % 2.15 C
2839 12-12-2018 07:00:00 2.65 C 97.0000 % 2.22 C
2840 12-12-2018 08:00:00 2.73333 C 97.0000 % 2.31 C
2841 12-12-2018 09:00:00 2.89167 C 97.0000 % 2.46 C
2842 12-12-2018 10:00:00 3.34167 C 97.0000 % 2.91 C
2843 12-12-2018 11:00:00 3.89167 C 97.0000 % 3.46 C
2844 12-12-2018 12:00:00 4.3 C 95.4167 % 3.63 C
2845 12-12-2018 13:00:00 4.21667 C 94.2500 % 3.38 C
2846 12-12-2018 14:00:00 4.425 C 92.0000 % 3.24 C
2847 12-12-2018 15:00:00 3.15833 C 91.6667 % 1.94 C
2848 12-12-2018 16:00:00 2.18333 C 92.9167 % 1.16 C
2849 12-12-2018 17:00:00 1.575 C 94.2500 % 0.75 C
2850 12-12-2018 18:00:00 1.81667 C 95.0000 % 1.1 C
Sensor: Nr:Datum:Temp:Feuchte:Taupunkt:
Aussen-T/F 2851 12-12-2018 19:00:00 2.21667 C 95.4167 % 1.56 C
2852 12-12-2018 20:00:00 1.94167 C 95.0000 % 1.23 C
2853 12-12-2018 21:00:00 2.475 C 95.0000 % 1.76 C
2854 12-12-2018 22:00:00 2.61667 C 95.0000 % 1.9 C
2855 12-12-2018 23:00:00 2.7 C 94.5000 % 1.91 C
2856 13-12-2018 00:00:00 2.775 C 94.0000 % 1.91 C
2857 13-12-2018 01:00:00 2.63333 C 93.8333 % 1.74 C
2858 13-12-2018 02:00:00 2.4 C 93.5833 % 1.47 C
2859 13-12-2018 03:00:00 1.55833 C 93.2500 % 0.59 C
2860 13-12-2018 04:00:00 0.55833 C 94.1667 % -0.27 C
2861 13-12-2018 05:00:00 0.35833 C 95.0000 % -0.35 C
2862 13-12-2018 06:00:00 0.33333 C 95.2500 % -0.34 C
2863 13-12-2018 07:00:00 0.4 C 94.5833 % -0.37 C
2864 13-12-2018 08:00:00 -0.15 C 93.8333 % -1.02 C
2865 13-12-2018 09:00:00 -0.04167 C 93.0000 % -1.04 C
2866 13-12-2018 10:00:00 0.71667 C 89.4167 % -0.82 C
2867 13-12-2018 11:00:00 1.48333 C 84.1667 % -0.89 C
2868 13-12-2018 12:00:00 1.73333 C 80.7500 % -1.21 C
2869 13-12-2018 13:00:00 1.76667 C 81.6667 % -1.02 C
2870 13-12-2018 14:00:00 2.21667 C 80.5000 % -0.78 C
2871 13-12-2018 15:00:00 2.45 C 78.5000 % -0.9 C
2872 13-12-2018 16:00:00 1.83333 C 82.8333 % -0.77 C
2873 13-12-2018 17:00:00 1.36667 C 85.5833 % -0.78 C
2874 13-12-2018 18:00:00 1.475 C 83.4167 % -1.02 C
2875 13-12-2018 19:00:00 1.65833 C 81.1667 % -1.21 C
Sensor: Nr:Datum:Temp:Feuchte:Taupunkt:
Aussen-T/F 2876 13-12-2018 20:00:00 1.54167 C 80.8333 % -1.38 C
2877 13-12-2018 21:00:00 1.3 C 83.4167 % -1.19 C
2878 13-12-2018 22:00:00 1.15 C 83.7500 % -1.29 C
2879 13-12-2018 23:00:00 1.16667 C 82.5833 % -1.46 C
2880 14-12-2018 00:00:00 1.25 C 81.3333 % -1.59 C
2881 14-12-2018 01:00:00 1.14167 C 82.2500 % -1.54 C
2882 14-12-2018 02:00:00 1.15833 C 80.0833 % -1.88 C
2883 14-12-2018 03:00:00 1.29167 C 76.7500 % -2.33 C
2884 14-12-2018 04:00:00 1.33333 C 75.5000 % -2.51 C
2885 14-12-2018 05:00:00 1.19167 C 77.1667 % -2.35 C
2886 14-12-2018 06:00:00 1.2 C 74.7500 % -2.77 C
2887 14-12-2018 07:00:00 1.075 C 75.9167 % -2.69 C
2888 14-12-2018 08:00:00 0.775 C 79.0000 % -2.44 C
2889 14-12-2018 09:00:00 0.89167 C 80.4167 % -2.09 C
2890 14-12-2018 10:00:00 1.33333 C 77.5000 % -2.16 C
2891 14-12-2018 11:00:00 1.55833 C 76.5000 % -2.11 C
2892 14-12-2018 12:00:00 1.65833 C 75.9167 % -2.12 C
2893 14-12-2018 13:00:00 1.7 C 75.1667 % -2.21 C
2894 14-12-2018 14:00:00 1.70833 C 75.0833 % -2.22 C
2895 14-12-2018 15:00:00 1.61667 C 75.4167 % -2.25 C
2896 14-12-2018 16:00:00 1.375 C 76.8333 % -2.23 C
2897 14-12-2018 17:00:00 0.98333 C 79.8333 % -2.1 C
2898 14-12-2018 18:00:00 1.025 C 78.2500 % -2.33 C
2899 14-12-2018 19:00:00 0.85833 C 78.2500 % -2.49 C
2900 14-12-2018 20:00:00 0.80833 C 79.0000 % -2.41 C
Sensor: Nr:Datum:Temp:Feuchte:Taupunkt:
Aussen-T/F 2901 14-12-2018 21:00:00 0.76667 C 77.1667 % -2.76 C
2902 14-12-2018 22:00:00 0.60833 C 75.4167 % -3.23 C
2903 14-12-2018 23:00:00 0.41667 C 75.9167 % -3.32 C
2904 15-12-2018 00:00:00 0.16667 C 78.6667 % -3.09 C
2905 15-12-2018 01:00:00 0.1 C 80.0833 % -2.92 C
2906 15-12-2018 02:00:00 0.14167 C 80.8333 % -2.75 C
2907 15-12-2018 03:00:00 0.16667 C 81.0000 % -2.7 C
2908 15-12-2018 04:00:00 0.2 C 80.9167 % -2.68 C
2909 15-12-2018 05:00:00 0.225 C 81.6667 % -2.53 C
2910 15-12-2018 06:00:00 0.2 C 82.4167 % -2.43 C
2911 15-12-2018 07:00:00 0.2 C 82.7500 % -2.38 C
2912 15-12-2018 08:00:00 0.275 C 83.5000 % -2.18 C
2913 15-12-2018 09:00:00 0.425 C 83.5000 % -2.04 C
2914 15-12-2018 10:00:00 0.84167 C 81.6667 % -1.93 C
2915 15-12-2018 11:00:00 1.30833 C 77.1667 % -2.24 C
2916 15-12-2018 12:00:00 1.68333 C 74.6667 % -2.32 C
2917 15-12-2018 13:00:00 1.9 C 73.1667 % -2.38 C
2918 15-12-2018 14:00:00 1.81667 C 72.6667 % -2.56 C
2919 15-12-2018 15:00:00 1.64167 C 73.0000 % -2.66 C
2920 15-12-2018 16:00:00 1.35 C 74.1667 % -2.73 C
2921 15-12-2018 17:00:00 1.175 C 74.5833 % -2.83 C
2922 15-12-2018 18:00:00 1.16667 C 74.8333 % -2.79 C
2923 15-12-2018 19:00:00 0.83333 C 75.7500 % -2.95 C
2924 15-12-2018 20:00:00 0.025 C 79.2500 % -3.13 C
2925 15-12-2018 21:00:00 -0.43333 C 81.0000 % -3.29 C
Sensor: Nr:Datum:Temp:Feuchte:Taupunkt:
Aussen-T/F 2926 15-12-2018 22:00:00 -0.58182 C 81.5455 % -3.34 C
2927 15-12-2018 23:00:00 0.11667 C 78.3333 % -3.2 C
2928 16-12-2018 00:00:00 0.4 C 76.8333 % -3.18 C
2929 16-12-2018 01:00:00 0.43333 C 76.2500 % -3.25 C
2930 16-12-2018 02:00:00 0.39167 C 76.8333 % -3.19 C
2931 16-12-2018 03:00:00 0.125 C 79.6667 % -2.96 C
2932 16-12-2018 04:00:00 -0.60833 C 87.5000 % -2.42 C
2933 16-12-2018 05:00:00 -0.91667 C 90.9167 % -2.21 C
2934 16-12-2018 06:00:00 -1.00833 C 92.0000 % -2.14 C
2935 16-12-2018 07:00:00 -1.05 C 92.7500 % -2.07 C
2936 16-12-2018 08:00:00 -0.93333 C 93.0000 % -1.92 C
2937 16-12-2018 09:00:00 -0.71667 C 92.5000 % -1.78 C
2938 16-12-2018 10:00:00 -0.35833 C 91.4167 % -1.58 C
2939 16-12-2018 11:00:00 0.05833 C 91.5000 % -1.16 C
2940 16-12-2018 12:00:00 0.85 C 91.5833 % -0.36 C
2941 16-12-2018 13:00:00 1.35 C 92.0000 % 0.2 C
2942 16-12-2018 14:00:00 1.525 C 92.1667 % 0.4 C
2943 16-12-2018 15:00:00 1.64167 C 93.0833 % 0.65 C
2944 16-12-2018 16:00:00 1.59167 C 94.1667 % 0.76 C
2945 16-12-2018 17:00:00 1.89167 C 94.9167 % 1.17 C
2946 16-12-2018 18:00:00 1.75 C 94.7500 % 1 C
2947 16-12-2018 19:00:00 2.24167 C 95.5000 % 1.6 C
2948 16-12-2018 20:00:00 2.43333 C 95.5833 % 1.8 C
2949 16-12-2018 21:00:00 2.39167 C 96.0000 % 1.82 C
2950 16-12-2018 22:00:00 2.575 C 96.0000 % 2 C
Sensor: Nr:Datum:Temp:Feuchte:Taupunkt:
Aussen-T/F 2951 16-12-2018 23:00:00 2.6 C 96.0000 % 2.03 C
2952 17-12-2018 00:00:00 2.55 C 96.0000 % 1.98 C
2953 17-12-2018 01:00:00 2.3 C 96.0000 % 1.73 C
2954 17-12-2018 02:00:00 2.625 C 96.0833 % 2.07 C
2955 17-12-2018 03:00:00 2.96667 C 96.0000 % 2.39 C
2956 17-12-2018 04:00:00 3.15833 C 96.4167 % 2.64 C
2957 17-12-2018 05:00:00 2.23333 C 96.0000 % 1.66 C
2958 17-12-2018 06:00:00 1.83333 C 96.0000 % 1.27 C
2959 17-12-2018 07:00:00 2.15 C 96.4167 % 1.64 C
2960 17-12-2018 08:00:00 2.675 C 97.0000 % 2.25 C
2961 17-12-2018 09:00:00 3.08333 C 97.0000 % 2.65 C
2962 17-12-2018 10:00:00 3.60833 C 97.0000 % 3.18 C
2963 17-12-2018 11:00:00 4.80833 C 97.0833 % 4.39 C
2964 17-12-2018 12:00:00 5.76667 C 96.3333 % 5.23 C
2965 17-12-2018 13:00:00 6.33333 C 93.9167 % 5.43 C
2966 17-12-2018 14:00:00 6.6 C 91.7500 % 5.36 C
2967 17-12-2018 15:00:00 6.575 C 90.5000 % 5.13 C
2968 17-12-2018 16:00:00 6.59167 C 90.3333 % 5.12 C
2969 17-12-2018 17:00:00 5.60833 C 91.2500 % 4.3 C
2970 17-12-2018 18:00:00 5.10833 C 92.5833 % 4.01 C
2971 17-12-2018 19:00:00 4.48333 C 93.4167 % 3.52 C
2972 17-12-2018 20:00:00 4.39167 C 94.5833 % 3.6 C
2973 17-12-2018 21:00:00 4.28333 C 95.0833 % 3.57 C
2974 17-12-2018 22:00:00 5.425 C 95.5000 % 4.76 C
2975 17-12-2018 23:00:00 5.575 C 93.4167 % 4.6 C
Sensor: Nr:Datum:Temp:Feuchte:Taupunkt:
Aussen-T/F 2976 18-12-2018 00:00:00 5.11667 C 92.5833 % 4.02 C
2977 18-12-2018 01:00:00 4.41667 C 93.9167 % 3.53 C
2978 18-12-2018 02:00:00 5.075 C 94.3333 % 4.24 C
2979 18-12-2018 03:00:00 5.90833 C 92.4167 % 4.78 C
2980 18-12-2018 04:00:00 6.15833 C 90.6667 % 4.75 C
2981 18-12-2018 05:00:00 6.23333 C 89.5000 % 4.64 C
2982 18-12-2018 06:00:00 5.925 C 90.7500 % 4.53 C
2983 18-12-2018 07:00:00 5.85 C 90.6667 % 4.44 C
2984 18-12-2018 08:00:00 6.16667 C 88.2500 % 4.37 C
2985 18-12-2018 09:00:00 6.46667 C 84.9167 % 4.12 C
2986 18-12-2018 10:00:00 6 C 86.3333 % 3.9 C
2987 18-12-2018 11:00:00 5.33333 C 88.7500 % 3.63 C
2988 18-12-2018 12:00:00 5.63333 C 88.5000 % 3.89 C
2989 18-12-2018 13:00:00 6.43333 C 85.9167 % 4.25 C
2990 18-12-2018 14:00:00 6.51667 C 86.2500 % 4.39 C
2991 18-12-2018 15:00:00 5.75 C 88.5000 % 4 C
2992 18-12-2018 16:00:00 4.28333 C 90.7500 % 2.91 C
2993 18-12-2018 17:00:00 3.40833 C 93.2500 % 2.42 C
2994 18-12-2018 18:00:00 2.825 C 94.0000 % 1.96 C
2995 18-12-2018 19:00:00 2.54167 C 95.0000 % 1.82 C
2996 18-12-2018 20:00:00 2.28333 C 95.0833 % 1.58 C
2997 18-12-2018 21:00:00 3.70833 C 95.1667 % 3.01 C
2998 18-12-2018 22:00:00 4.95833 C 87.6667 % 3.09 C
2999 18-12-2018 23:00:00 4.98333 C 83.8333 % 2.48 C
3000 19-12-2018 00:00:00 4.675 C 84.3333 % 2.26 C
Sensor: Nr:Datum:Temp:Feuchte:Taupunkt:
Aussen-T/F 3001 19-12-2018 01:00:00 4.30833 C 85.4167 % 2.08 C
3002 19-12-2018 02:00:00 4.15833 C 86.2500 % 2.07 C
3003 19-12-2018 03:00:00 3.91667 C 88.0833 % 2.13 C
3004 19-12-2018 04:00:00 4.26667 C 88.3333 % 2.51 C
3005 19-12-2018 05:00:00 4.96667 C 88.9167 % 3.3 C
3006 19-12-2018 06:00:00 5.04167 C 91.0833 % 3.71 C
3007 19-12-2018 07:00:00 5.98333 C 88.5833 % 4.24 C
3008 19-12-2018 08:00:00 6.35833 C 90.1667 % 4.87 C
3009 19-12-2018 09:00:00 6.85 C 91.1667 % 5.51 C
3010 19-12-2018 10:00:00 7.13333 C 91.4167 % 5.83 C
3011 19-12-2018 11:00:00 7.65 C 91.2500 % 6.32 C
3012 19-12-2018 12:00:00 8.80833 C 89.0833 % 7.11 C
3013 19-12-2018 13:00:00 9.3 C 84.6667 % 6.85 C
3014 19-12-2018 14:00:00 9.24545 C 83.7273 % 6.64 C
3015 19-12-2018 15:00:00 8.98333 C 84.4167 % 6.5 C
3016 19-12-2018 16:00:00 8.075 C 86.3333 % 5.93 C
3017 19-12-2018 17:00:00 7.4 C 88.6667 % 5.65 C
3018 19-12-2018 18:00:00 7.35 C 89.9167 % 5.81 C
3019 19-12-2018 19:00:00 6.86667 C 89.4167 % 5.25 C
3020 19-12-2018 20:00:00 6.33333 C 92.1667 % 5.16 C
3021 19-12-2018 21:00:00 6.575 C 92.0000 % 5.37 C
3022 19-12-2018 22:00:00 6.65 C 93.0000 % 5.6 C
3023 19-12-2018 23:00:00 6.40833 C 93.6667 % 5.46 C
3024 20-12-2018 00:00:00 6.35833 C 94.0000 % 5.47 C
3025 20-12-2018 01:00:00 6.26667 C 94.2500 % 5.41 C
Sensor: Nr:Datum:Temp:Feuchte:Taupunkt:
Aussen-T/F 3026 20-12-2018 02:00:00 6.35 C 94.8333 % 5.58 C
3027 20-12-2018 03:00:00 6.6 C 94.3333 % 5.76 C
3028 20-12-2018 04:00:00 6.725 C 93.0833 % 5.69 C
3029 20-12-2018 05:00:00 6.80833 C 93.0000 % 5.76 C
3030 20-12-2018 06:00:00 7.17273 C 92.3636 % 6.02 C
3031 20-12-2018 07:00:00 7.18333 C 92.3333 % 6.03 C
3032 20-12-2018 08:00:00 6.625 C 93.0000 % 5.58 C
3033 20-12-2018 09:00:00 7.28333 C 91.5000 % 5.99 C
3034 20-12-2018 10:00:00 7.91667 C 89.2500 % 6.26 C
3035 20-12-2018 11:00:00 8.1 C 88.5833 % 6.33 C
3036 20-12-2018 12:00:00 8.43333 C 87.3333 % 6.45 C
3037 20-12-2018 13:00:00 8.95 C 85.5000 % 6.65 C
3038 20-12-2018 14:00:00 8.79091 C 85.0909 % 6.43 C
3039 20-12-2018 15:00:00 8.475 C 85.7500 % 6.23 C
3040 20-12-2018 16:00:00 8.11667 C 86.0000 % 5.92 C
3041 20-12-2018 17:00:00 7.68333 C 87.3333 % 5.72 C
3042 20-12-2018 18:00:00 7.725 C 88.7500 % 5.99 C
3043 20-12-2018 19:00:00 7.8 C 88.5000 % 6.02 C
3044 20-12-2018 20:00:00 7.78333 C 88.3333 % 5.98 C
3045 20-12-2018 21:00:00 8.225 C 87.4167 % 6.26 C
3046 20-12-2018 22:00:00 8.34167 C 86.0833 % 6.15 C
3047 20-12-2018 23:00:00 8.45 C 85.5833 % 6.18 C
3048 21-12-2018 00:00:00 8.64167 C 85.5000 % 6.35 C
3049 21-12-2018 01:00:00 8.725 C 84.5833 % 6.28 C
3050 21-12-2018 02:00:00 8.775 C 83.0000 % 6.05 C
Sensor: Nr:Datum:Temp:Feuchte:Taupunkt:
Aussen-T/F 3051 21-12-2018 03:00:00 9.075 C 82.2500 % 6.21 C
3052 21-12-2018 04:00:00 9.175 C 82.0000 % 6.27 C
3053 21-12-2018 05:00:00 9.15833 C 83.3333 % 6.49 C
3054 21-12-2018 06:00:00 8.54167 C 90.6667 % 7.11 C
3055 21-12-2018 07:00:00 7.875 C 93.6667 % 6.92 C
3056 21-12-2018 08:00:00 8.14167 C 94.8333 % 7.36 C
3057 21-12-2018 09:00:00 8.91667 C 94.7500 % 8.12 C
3058 21-12-2018 10:00:00 9.65 C 93.7500 % 8.69 C
3059 21-12-2018 11:00:00 10.54167 C 92.2500 % 9.34 C
3060 21-12-2018 12:00:00 11.34167 C 91.0000 % 9.93 C
3061 21-12-2018 13:00:00 11.9 C 91.0833 % 10.49 C
3062 21-12-2018 14:00:00 12.11667 C 91.7500 % 10.82 C
3063 21-12-2018 15:00:00 12.775 C 88.2500 % 10.88 C
3064 21-12-2018 16:00:00 13.2 C 84.7500 % 10.69 C
3065 21-12-2018 17:00:00 13.35833 C 83.1667 % 10.56 C
3066 21-12-2018 18:00:00 13.35 C 82.2500 % 10.39 C
3067 21-12-2018 19:00:00 13.15 C 81.3333 % 10.03 C
3068 21-12-2018 20:00:00 12.88333 C 82.0833 % 9.9 C
3069 21-12-2018 21:00:00 12.58333 C 82.9167 % 9.76 C
3070 21-12-2018 22:00:00 12.68333 C 79.0000 % 9.14 C
3071 21-12-2018 23:00:00 12.28333 C 76.6667 % 8.31 C
3072 22-12-2018 00:00:00 11.65833 C 79.4167 % 8.22 C
3073 22-12-2018 01:00:00 11.16667 C 82.6667 % 8.33 C
3074 22-12-2018 02:00:00 11.125 C 79.0833 % 7.64 C
3075 22-12-2018 03:00:00 10.775 C 80.5000 % 7.56 C
Sensor: Nr:Datum:Temp:Feuchte:Taupunkt:
Aussen-T/F 3076 22-12-2018 04:00:00 11.125 C 79.9167 % 7.79 C
3077 22-12-2018 05:00:00 10.9 C 85.2500 % 8.52 C
3078 22-12-2018 06:00:00 10.45455 C 90.4545 % 8.96 C
3079 22-12-2018 07:00:00 10.23333 C 91.7500 % 8.95 C
3080 22-12-2018 08:00:00 10.71667 C 87.1667 % 8.67 C
3081 22-12-2018 09:00:00 10.95 C 83.5000 % 8.27 C
3082 22-12-2018 10:00:00 9.34167 C 90.9167 % 7.94 C
3083 22-12-2018 11:00:00 9.525 C 92.8333 % 8.42 C
3084 22-12-2018 12:00:00 10.18333 C 87.5000 % 8.2 C
3085 22-12-2018 13:00:00 11.075 C 82.4167 % 8.2 C
3086 22-12-2018 14:00:00 11.28333 C 79.8333 % 7.93 C
3087 22-12-2018 15:00:00 11.01667 C 79.6667 % 7.64 C
3088 22-12-2018 16:00:00 10.3 C 82.0833 % 7.38 C
3089 22-12-2018 17:00:00 9.2 C 85.5000 % 6.9 C
3090 22-12-2018 18:00:00 8.53333 C 88.1667 % 6.69 C
3091 22-12-2018 19:00:00 8.05833 C 90.5833 % 6.61 C
3092 22-12-2018 20:00:00 7.85 C 90.7500 % 6.43 C
3093 22-12-2018 21:00:00 7.43333 C 92.1667 % 6.25 C
3094 22-12-2018 22:00:00 7.83636 C 90.3636 % 6.36 C
3095 22-12-2018 23:00:00 7.75 C 90.0833 % 6.23 C
3096 23-12-2018 00:00:00 7.40833 C 89.6667 % 5.82 C
3097 23-12-2018 01:00:00 6.5 C 92.5833 % 5.39 C
3098 23-12-2018 02:00:00 6.18333 C 93.7500 % 5.25 C
3099 23-12-2018 03:00:00 6.54167 C 94.8333 % 5.77 C
3100 23-12-2018 04:00:00 7.06667 C 94.3333 % 6.22 C
Sensor: Nr:Datum:Temp:Feuchte:Taupunkt:
Aussen-T/F 3101 23-12-2018 05:00:00 6.84167 C 94.7500 % 6.06 C
3102 23-12-2018 06:00:00 7.18333 C 95.0000 % 6.44 C
3103 23-12-2018 07:00:00 7.525 C 94.3333 % 6.67 C
3104 23-12-2018 08:00:00 7.88333 C 93.0000 % 6.82 C
3105 23-12-2018 09:00:00 8.35833 C 91.6667 % 7.08 C
3106 23-12-2018 10:00:00 9.20833 C 88.0833 % 7.34 C
3107 23-12-2018 11:00:00 9.70833 C 86.5833 % 7.58 C
3108 23-12-2018 12:00:00 9.66667 C 89.0000 % 7.94 C
3109 23-12-2018 13:00:00 9.11667 C 92.8333 % 8.02 C
3110 23-12-2018 14:00:00 8.8 C 94.4167 % 7.95 C
3111 23-12-2018 15:00:00 8.58333 C 95.0000 % 7.83 C
3112 23-12-2018 16:00:00 8.18333 C 95.8333 % 7.56 C
3113 23-12-2018 17:00:00 8.04167 C 96.0000 % 7.44 C
3114 23-12-2018 18:00:00 8.525 C 96.6667 % 8.03 C
3115 23-12-2018 19:00:00 9.64167 C 96.9167 % 9.18 C
3116 23-12-2018 20:00:00 10.68333 C 96.0833 % 10.09 C
3117 23-12-2018 21:00:00 11.70833 C 95.1667 % 10.96 C
3118 23-12-2018 22:00:00 11.66667 C 95.4167 % 10.96 C
3119 23-12-2018 23:00:00 11.58333 C 95.8333 % 10.94 C
3120 24-12-2018 00:00:00 10.29167 C 94.7500 % 9.49 C
3121 24-12-2018 01:00:00 8.34167 C 92.7500 % 7.24 C
3122 24-12-2018 02:00:00 6.99167 C 92.1667 % 5.81 C
3123 24-12-2018 03:00:00 6.23333 C 93.0000 % 5.19 C
3124 24-12-2018 04:00:00 5.975 C 94.0000 % 5.08 C
3125 24-12-2018 05:00:00 6.13333 C 94.0000 % 5.24 C
Sensor: Nr:Datum:Temp:Feuchte:Taupunkt:
Aussen-T/F 3126 24-12-2018 06:00:00 6.2 C 93.5000 % 5.23 C
3127 24-12-2018 07:00:00 6.10833 C 93.9167 % 5.2 C
3128 24-12-2018 08:00:00 6.19167 C 94.0000 % 5.3 C
3129 24-12-2018 09:00:00 6.25833 C 93.8333 % 5.34 C
3130 24-12-2018 10:00:00 6.48333 C 92.3333 % 5.33 C
3131 24-12-2018 11:00:00 6.70833 C 89.0000 % 5.03 C
3132 24-12-2018 12:00:00 6.74167 C 84.5833 % 4.33 C
3133 24-12-2018 13:00:00 6.55 C 82.9167 % 3.86 C
3134 24-12-2018 14:00:00 6.225 C 78.8333 % 2.83 C
3135 24-12-2018 15:00:00 5.925 C 79.5833 % 2.67 C
3136 24-12-2018 16:00:00 4.425 C 84.9167 % 2.12 C
3137 24-12-2018 17:00:00 2.55 C 89.8333 % 1.05 C
3138 24-12-2018 18:00:00 1.71667 C 91.8333 % 0.53 C
3139 24-12-2018 19:00:00 1.175 C 93.0000 % 0.17 C
3140 24-12-2018 20:00:00 0.35833 C 93.4167 % -0.58 C
3141 24-12-2018 21:00:00 -0.29167 C 94.0000 % -1.14 C
3142 24-12-2018 22:00:00 -0.30833 C 95.0833 % -1 C
3143 24-12-2018 23:00:00 0.35833 C 95.7500 % -0.24 C
3144 25-12-2018 00:00:00 0.09167 C 95.1667 % -0.59 C
3145 25-12-2018 01:00:00 -0.10833 C 95.7500 % -0.7 C
3146 25-12-2018 02:00:00 0.475 C 96.0000 % -0.09 C
3147 25-12-2018 03:00:00 0.625 C 96.0000 % 0.06 C
3148 25-12-2018 04:00:00 0.775 C 96.0000 % 0.21 C
3149 25-12-2018 05:00:00 1.00833 C 96.0000 % 0.44 C
3150 25-12-2018 06:00:00 1.13333 C 96.0000 % 0.57 C
Sensor: Nr:Datum:Temp:Feuchte:Taupunkt:
Aussen-T/F 3151 25-12-2018 07:00:00 1.25 C 95.5000 % 0.61 C
3152 25-12-2018 08:00:00 1.33333 C 95.0000 % 0.62 C
3153 25-12-2018 09:00:00 1.78333 C 93.9167 % 0.91 C
3154 25-12-2018 10:00:00 2.35 C 92.1667 % 1.21 C
3155 25-12-2018 11:00:00 2.775 C 90.0833 % 1.32 C
3156 25-12-2018 12:00:00 2.49167 C 90.7500 % 1.14 C
3157 25-12-2018 13:00:00 2.59167 C 91.5000 % 1.35 C
3158 25-12-2018 14:00:00 3.925 C 91.6667 % 2.7 C
3159 25-12-2018 15:00:00 4.9 C 89.8333 % 3.37 C
3160 25-12-2018 16:00:00 4.55 C 89.9167 % 3.04 C
3161 25-12-2018 17:00:00 4.00833 C 90.5833 % 2.61 C
3162 25-12-2018 18:00:00 3.575 C 91.6667 % 2.35 C
3163 25-12-2018 19:00:00 3.30833 C 91.3333 % 2.03 C
3164 25-12-2018 20:00:00 1.95833 C 90.8333 % 0.62 C
3165 25-12-2018 21:00:00 0.65 C 92.6667 % -0.4 C
3166 25-12-2018 22:00:00 -0.15833 C 93.6667 % -1.05 C
3167 25-12-2018 23:00:00 -0.84167 C 94.0000 % -1.68 C
3168 26-12-2018 00:00:00 -1.2 C 94.8333 % -1.92 C
3169 26-12-2018 01:00:00 -1.00833 C 95.6667 % -1.61 C
3170 26-12-2018 02:00:00 -1.18333 C 96.0000 % -1.74 C
3171 26-12-2018 03:00:00 -1.41667 C 96.0000 % -1.97 C
3172 26-12-2018 04:00:00 -1.6 C 96.0000 % -2.15 C
3173 26-12-2018 05:00:00 -1.64167 C 96.0000 % -2.19 C
3174 26-12-2018 06:00:00 -1.725 C 96.0000 % -2.28 C
3175 26-12-2018 07:00:00 -1.94167 C 96.0000 % -2.49 C
Sensor: Nr:Datum:Temp:Feuchte:Taupunkt:
Aussen-T/F 3176 26-12-2018 08:00:00 -2.05833 C 96.0000 % -2.61 C
3177 26-12-2018 09:00:00 -1.9 C 96.0000 % -2.45 C
3178 26-12-2018 10:00:00 -1.78333 C 96.0000 % -2.34 C
3179 26-12-2018 11:00:00 -1.10833 C 95.9167 % -1.68 C
3180 26-12-2018 12:00:00 -0.4 C 95.0833 % -1.09 C
3181 26-12-2018 13:00:00 0.21667 C 95.0000 % -0.49 C
3182 26-12-2018 14:00:00 0.75833 C 94.5833 % -0.01 C
3183 26-12-2018 15:00:00 1.23333 C 94.3333 % 0.43 C
3184 26-12-2018 16:00:00 0.55 C 94.0000 % -0.3 C
3185 26-12-2018 17:00:00 -0.1 C 94.6667 % -0.85 C
3186 26-12-2018 18:00:00 -0.48333 C 95.0000 % -1.18 C
3187 26-12-2018 19:00:00 -0.79167 C 95.0000 % -1.49 C
3188 26-12-2018 20:00:00 -0.85 C 96.0000 % -1.41 C
3189 26-12-2018 21:00:00 -1.01667 C 96.0000 % -1.57 C
3190 26-12-2018 22:00:00 -1.225 C 96.0000 % -1.78 C
3191 26-12-2018 23:00:00 -1.34167 C 96.0000 % -1.9 C
3192 27-12-2018 00:00:00 -1.025 C 96.2500 % -1.55 C
3193 27-12-2018 01:00:00 -0.775 C 96.0833 % -1.32 C
3194 27-12-2018 02:00:00 -0.58333 C 97.0000 % -1 C
3195 27-12-2018 03:00:00 -0.36667 C 97.0000 % -0.78 C
3196 27-12-2018 04:00:00 -0.48333 C 96.3333 % -0.99 C
3197 27-12-2018 05:00:00 -0.96667 C 96.0000 % -1.52 C
3198 27-12-2018 06:00:00 -1.39167 C 96.0000 % -1.95 C
3199 27-12-2018 07:00:00 -1.7 C 96.0000 % -2.25 C
3200 27-12-2018 08:00:00 -2 C 96.0000 % -2.55 C
Sensor: Nr:Datum:Temp:Feuchte:Taupunkt:
Aussen-T/F 3201 27-12-2018 09:00:00 -1.76667 C 96.9167 % -2.19 C
3202 27-12-2018 10:00:00 -0.925 C 97.0000 % -1.34 C
3203 27-12-2018 11:00:00 -0.08333 C 97.0000 % -0.5 C
3204 27-12-2018 12:00:00 0.73333 C 97.0000 % 0.31 C
3205 27-12-2018 13:00:00 1.40833 C 96.6667 % 0.94 C
3206 27-12-2018 14:00:00 2.08333 C 95.9167 % 1.5 C
3207 27-12-2018 15:00:00 2.175 C 94.5833 % 1.4 C
3208 27-12-2018 16:00:00 1.525 C 94.1667 % 0.69 C
3209 27-12-2018 17:00:00 1.04167 C 94.6667 % 0.28 C
3210 27-12-2018 18:00:00 1.025 C 94.5000 % 0.24 C
3211 27-12-2018 19:00:00 0.55833 C 94.3333 % -0.24 C
3212 27-12-2018 20:00:00 0.73333 C 95.0000 % 0.03 C
3213 27-12-2018 21:00:00 0.94167 C 95.0000 % 0.23 C
3214 27-12-2018 22:00:00 0.9 C 95.0000 % 0.19 C
3215 27-12-2018 23:00:00 0.89167 C 95.0000 % 0.18 C
3216 28-12-2018 00:00:00 0.78333 C 95.0000 % 0.08 C
3217 28-12-2018 01:00:00 0.55833 C 95.1667 % -0.12 C
3218 28-12-2018 02:00:00 0.34167 C 95.6667 % -0.27 C
3219 28-12-2018 03:00:00 0.625 C 96.0000 % 0.06 C
3220 28-12-2018 04:00:00 0.49167 C 96.0000 % -0.07 C
3221 28-12-2018 05:00:00 0.05833 C 95.3333 % -0.6 C
3222 28-12-2018 06:00:00 -0.26667 C 95.5833 % -0.89 C
3223 28-12-2018 07:00:00 -0.70833 C 95.8333 % -1.29 C
3224 28-12-2018 08:00:00 -0.89167 C 96.0000 % -1.45 C
3225 28-12-2018 09:00:00 -0.76667 C 96.0000 % -1.32 C
Sensor: Nr:Datum:Temp:Feuchte:Taupunkt:
Aussen-T/F 3226 28-12-2018 10:00:00 -0.075 C 96.4167 % -0.58 C
3227 28-12-2018 11:00:00 0.23333 C 96.0000 % -0.33 C
3228 28-12-2018 12:00:00 0.58333 C 95.9167 % 0.01 C
3229 28-12-2018 13:00:00 1.01667 C 94.6667 % 0.26 C
3230 28-12-2018 14:00:00 1.275 C 93.5833 % 0.36 C
3231 28-12-2018 15:00:00 0.99167 C 93.0000 % -0.01 C
3232 28-12-2018 16:00:00 0.55833 C 93.4167 % -0.38 C
3233 28-12-2018 17:00:00 0.33333 C 94.0000 % -0.52 C
3234 28-12-2018 18:00:00 0.21667 C 94.0000 % -0.63 C
3235 28-12-2018 19:00:00 0.13333 C 94.0000 % -0.71 C
3236 28-12-2018 20:00:00 -0.025 C 94.0000 % -0.87 C
3237 28-12-2018 21:00:00 -0.09167 C 94.0000 % -0.94 C
3238 28-12-2018 22:00:00 -0.08333 C 94.7500 % -0.82 C
3239 28-12-2018 23:00:00 0.10833 C 94.1667 % -0.72 C
3240 29-12-2018 00:00:00 0.26667 C 94.0000 % -0.58 C
3241 29-12-2018 01:00:00 0.45833 C 94.0000 % -0.39 C
3242 29-12-2018 02:00:00 0.68333 C 94.0000 % -0.17 C
3243 29-12-2018 03:00:00 0.88333 C 94.0000 % 0.03 C
3244 29-12-2018 04:00:00 1.09167 C 94.0000 % 0.24 C
3245 29-12-2018 05:00:00 1.225 C 94.0000 % 0.37 C
3246 29-12-2018 06:00:00 1.35833 C 94.0000 % 0.5 C
3247 29-12-2018 07:00:00 1.45 C 94.5833 % 0.68 C
3248 29-12-2018 08:00:00 1.63333 C 95.0000 % 0.92 C
3249 29-12-2018 09:00:00 1.95 C 95.0000 % 1.24 C
3250 29-12-2018 10:00:00 2.46667 C 95.0000 % 1.75 C
Sensor: Nr:Datum:Temp:Feuchte:Taupunkt:
Aussen-T/F 3251 29-12-2018 11:00:00 3.01667 C 94.5000 % 2.22 C
3252 29-12-2018 12:00:00 3.64167 C 92.7500 % 2.58 C
3253 29-12-2018 13:00:00 3.875 C 91.2500 % 2.58 C
3254 29-12-2018 14:00:00 3.70833 C 91.0000 % 2.38 C
3255 29-12-2018 15:00:00 3.73333 C 91.0000 % 2.4 C
3256 29-12-2018 16:00:00 3.775 C 91.0000 % 2.44 C
3257 29-12-2018 17:00:00 4.09167 C 90.8333 % 2.73 C
3258 29-12-2018 18:00:00 4.09167 C 92.4167 % 2.98 C
3259 29-12-2018 19:00:00 3.99167 C 94.6667 % 3.22 C
3260 29-12-2018 20:00:00 4.18333 C 94.0000 % 3.31 C
3261 29-12-2018 21:00:00 4.36667 C 93.2500 % 3.37 C
3262 29-12-2018 22:00:00 4.43333 C 93.0000 % 3.4 C
3263 29-12-2018 23:00:00 4.65833 C 93.3333 % 3.68 C
3264 30-12-2018 00:00:00 5.3 C 93.1667 % 4.29 C
3265 30-12-2018 01:00:00 7.79167 C 86.5000 % 5.68 C
3266 30-12-2018 02:00:00 8.275 C 83.6667 % 5.68 C
3267 30-12-2018 03:00:00 8.325 C 81.2500 % 5.31 C
3268 30-12-2018 04:00:00 8.20833 C 82.6667 % 5.44 C
3269 30-12-2018 05:00:00 8.1 C 83.0000 % 5.39 C
3270 30-12-2018 06:00:00 7.96667 C 83.9167 % 5.42 C
3271 30-12-2018 07:00:00 7.81667 C 84.4167 % 5.36 C
3272 30-12-2018 08:00:00 7.625 C 86.6667 % 5.55 C
3273 30-12-2018 09:00:00 7.6 C 87.0000 % 5.58 C
3274 30-12-2018 10:00:00 7.45833 C 88.6667 % 5.71 C
3275 30-12-2018 11:00:00 7.675 C 88.1667 % 5.84 C
Sensor: Nr:Datum:Temp:Feuchte:Taupunkt:
Aussen-T/F 3276 30-12-2018 12:00:00 8.25833 C 84.1667 % 5.75 C
3277 30-12-2018 13:00:00 8.45833 C 82.3333 % 5.63 C
3278 30-12-2018 14:00:00 8.375 C 82.2500 % 5.53 C
3279 30-12-2018 15:00:00 8.16667 C 84.0833 % 5.64 C
3280 30-12-2018 16:00:00 7.65833 C 86.6667 % 5.58 C
3281 30-12-2018 17:00:00 7.13333 C 89.5000 % 5.53 C
3282 30-12-2018 18:00:00 7.05833 C 90.0000 % 5.53 C
3283 30-12-2018 19:00:00 7.06667 C 90.5833 % 5.63 C
3284 30-12-2018 20:00:00 6.675 C 93.5000 % 5.7 C
3285 30-12-2018 21:00:00 6.44167 C 94.9167 % 5.69 C
3286 30-12-2018 22:00:00 6.30833 C 95.1667 % 5.59 C
3287 30-12-2018 23:00:00 6.33333 C 96.0000 % 5.74 C
3288 31-12-2018 00:00:00 6.4 C 96.0000 % 5.81 C
3289 31-12-2018 01:00:00 6.54167 C 96.0000 % 5.95 C
3290 31-12-2018 02:00:00 6.6 C 96.0000 % 6.01 C
3291 31-12-2018 03:00:00 6.69167 C 96.0000 % 6.1 C
3292 31-12-2018 04:00:00 6.78333 C 96.0000 % 6.19 C
3293 31-12-2018 05:00:00 6.8 C 96.0000 % 6.21 C
3294 31-12-2018 06:00:00 6.775 C 96.7500 % 6.3 C
3295 31-12-2018 07:00:00 6.88333 C 97.0000 % 6.44 C
3296 31-12-2018 08:00:00 6.925 C 97.0000 % 6.48 C
3297 31-12-2018 09:00:00 7.075 C 97.0000 % 6.63 C
3298 31-12-2018 10:00:00 7.35833 C 97.0000 % 6.91 C
3299 31-12-2018 11:00:00 7.925 C 97.0000 % 7.48 C
3300 31-12-2018 12:00:00 8.44167 C 96.5000 % 7.92 C
Sensor: Nr:Datum:Temp:Feuchte:Taupunkt:
Aussen-T/F 3301 31-12-2018 13:00:00 8.68333 C 96.0000 % 8.08 C
3302 31-12-2018 14:00:00 8.88333 C 96.0000 % 8.28 C
3303 31-12-2018 15:00:00 8.95833 C 96.0000 % 8.36 C
3304 31-12-2018 16:00:00 8.81667 C 96.0000 % 8.21 C
3305 31-12-2018 17:00:00 8.44167 C 96.0000 % 7.84 C
3306 31-12-2018 18:00:00 8.31667 C 96.0000 % 7.72 C
3307 31-12-2018 19:00:00 8.1 C 96.3333 % 7.55 C
3308 31-12-2018 20:00:00 7.85833 C 96.5000 % 7.34 C
3309 31-12-2018 21:00:00 7.76667 C 97.0000 % 7.32 C
3310 31-12-2018 22:00:00 7.675 C 97.0000 % 7.23 C
3311 31-12-2018 23:00:00 7.525 C 97.0000 % 7.08 C
3312 01-01-2019 00:00:00 7.4 C 97.0000 % 6.96 C
3313 01-01-2019 01:00:00 7.25 C 97.0000 % 6.81 C
3314 01-01-2019 02:00:00 7.325 C 97.0000 % 6.88 C
3315 01-01-2019 03:00:00 7.34167 C 97.0000 % 6.9 C
3316 01-01-2019 04:00:00 7.23333 C 96.7500 % 6.75 C
3317 01-01-2019 05:00:00 7.29167 C 95.3333 % 6.6 C
3318 01-01-2019 06:00:00 7.3 C 94.7500 % 6.52 C
3319 01-01-2019 07:00:00 7.35833 C 93.4167 % 6.37 C
3320 01-01-2019 08:00:00 7.33333 C 92.3333 % 6.17 C
3321 01-01-2019 09:00:00 7.20833 C 91.5833 % 5.93 C
3322 01-01-2019 10:00:00 7.26667 C 88.5833 % 5.51 C
3323 01-01-2019 11:00:00 7.58333 C 88.3333 % 5.78 C
3324 01-01-2019 12:00:00 7.55 C 91.0833 % 6.19 C
3325 01-01-2019 13:00:00 7.49167 C 93.7500 % 6.55 C
Sensor: Nr:Datum:Temp:Feuchte:Taupunkt:
Aussen-T/F 3326 01-01-2019 14:00:00 7.725 C 94.0000 % 6.82 C
3327 01-01-2019 15:00:00 7.65833 C 94.9167 % 6.9 C
3328 01-01-2019 16:00:00 7.61667 C 95.8333 % 7 C
3329 01-01-2019 17:00:00 7.55833 C 93.0833 % 6.51 C
3330 01-01-2019 18:00:00 7.45833 C 87.3333 % 5.49 C
3331 01-01-2019 19:00:00 7.15 C 86.6667 % 5.08 C
3332 01-01-2019 20:00:00 6.46667 C 85.1667 % 4.16 C
3333 01-01-2019 21:00:00 5.78333 C 85.0833 % 3.48 C
3334 01-01-2019 22:00:00 5.375 C 85.4167 % 3.13 C
3335 01-01-2019 23:00:00 4.5 C 88.5833 % 2.78 C
3336 02-01-2019 00:00:00 5 C 85.8333 % 2.83 C
3337 02-01-2019 01:00:00 5.21667 C 81.7500 % 2.36 C
3338 02-01-2019 02:00:00 4.85833 C 79.3333 % 1.59 C
3339 02-01-2019 03:00:00 4.60833 C 78.9167 % 1.27 C
3340 02-01-2019 04:00:00 4.20833 C 78.3333 % 0.78 C
3341 02-01-2019 05:00:00 4.24167 C 79.1667 % 0.96 C
3342 02-01-2019 06:00:00 4.35 C 81.0000 % 1.38 C
3343 02-01-2019 07:00:00 4.75 C 80.4167 % 1.67 C
3344 02-01-2019 08:00:00 4.725 C 80.7500 % 1.71 C
3345 02-01-2019 09:00:00 4.69167 C 81.6667 % 1.83 C
3346 02-01-2019 10:00:00 4.55833 C 84.3333 % 2.15 C
3347 02-01-2019 11:00:00 4.95833 C 83.9167 % 2.47 C
3348 02-01-2019 12:00:00 5.24167 C 82.9167 % 2.58 C
3349 02-01-2019 13:00:00 4.25833 C 87.0000 % 2.29 C
3350 02-01-2019 14:00:00 5.425 C 75.7500 % 1.5 C
Sensor: Nr:Datum:Temp:Feuchte:Taupunkt:
Aussen-T/F 3351 02-01-2019 15:00:00 5.375 C 74.9167 % 1.29 C
3352 02-01-2019 16:00:00 4.575 C 78.0000 % 1.08 C
3353 02-01-2019 17:00:00 3.34167 C 79.6667 % 0.17 C
3354 02-01-2019 18:00:00 1.75833 C 85.3333 % -0.43 C
3355 02-01-2019 19:00:00 0.94167 C 88.1667 % -0.79 C
3356 02-01-2019 20:00:00 0.64167 C 90.0000 % -0.81 C
3357 02-01-2019 21:00:00 0.6 C 90.3333 % -0.8 C
3358 02-01-2019 22:00:00 0.675 C 89.5833 % -0.84 C
3359 02-01-2019 23:00:00 -0.175 C 89.7500 % -1.65 C
3360 03-01-2019 00:00:00 -1.175 C 92.0833 % -2.29 C
3361 03-01-2019 01:00:00 -1.56667 C 93.1667 % -2.52 C
3362 03-01-2019 02:00:00 -1.525 C 94.2500 % -2.33 C
3363 03-01-2019 03:00:00 -0.64167 C 94.8333 % -1.37 C
3364 03-01-2019 04:00:00 -0.24167 C 94.1667 % -1.06 C
3365 03-01-2019 05:00:00 0.175 C 94.0000 % -0.67 C
3366 03-01-2019 06:00:00 0.58333 C 93.0000 % -0.41 C
3367 03-01-2019 07:00:00 0.80833 C 93.0833 % -0.18 C
3368 03-01-2019 08:00:00 0.825 C 93.8333 % -0.05 C
3369 03-01-2019 09:00:00 1.025 C 94.7500 % 0.28 C
3370 03-01-2019 10:00:00 1.4 C 95.0000 % 0.69 C
3371 03-01-2019 11:00:00 1.85833 C 95.0000 % 1.14 C
3372 03-01-2019 12:00:00 2.66667 C 95.6667 % 2.05 C
3373 03-01-2019 13:00:00 3.45 C 94.3333 % 2.63 C
3374 03-01-2019 14:00:00 3.95 C 92.9167 % 2.91 C
3375 03-01-2019 15:00:00 4.4 C 90.8333 % 3.04 C
Sensor: Nr:Datum:Temp:Feuchte:Taupunkt:
Aussen-T/F 3376 03-01-2019 16:00:00 4.31667 C 89.7500 % 2.79 C
3377 03-01-2019 17:00:00 4.13333 C 90.6667 % 2.75 C
3378 03-01-2019 18:00:00 3.96667 C 91.0000 % 2.63 C
3379 03-01-2019 19:00:00 4.075 C 91.4167 % 2.81 C
3380 03-01-2019 20:00:00 4.16667 C 91.6667 % 2.94 C
3381 03-01-2019 21:00:00 4.15 C 92.0000 % 2.97 C
3382 03-01-2019 22:00:00 4.15 C 92.0000 % 2.97 C
3383 03-01-2019 23:00:00 3.94167 C 92.5833 % 2.85 C
3384 04-01-2019 00:00:00 3.29167 C 92.1667 % 2.14 C
3385 04-01-2019 01:00:00 2.075 C 93.0833 % 1.08 C
3386 04-01-2019 02:00:00 2.06667 C 94.7500 % 1.32 C
3387 04-01-2019 03:00:00 1.9 C 94.6667 % 1.14 C
3388 04-01-2019 04:00:00 1.94167 C 95.0000 % 1.23 C
3389 04-01-2019 05:00:00 1.85833 C 95.0000 % 1.14 C
3390 04-01-2019 06:00:00 1.80833 C 95.4167 % 1.16 C
3391 04-01-2019 07:00:00 1.68333 C 95.5000 % 1.04 C
3392 04-01-2019 08:00:00 1.5 C 95.5833 % 0.87 C
3393 04-01-2019 09:00:00 1.55 C 96.0000 % 0.98 C
3394 04-01-2019 10:00:00 2.09167 C 95.8333 % 1.5 C
3395 04-01-2019 11:00:00 2.275 C 94.7500 % 1.52 C
3396 04-01-2019 12:00:00 3.05 C 92.8333 % 2.01 C
3397 04-01-2019 13:00:00 3.68333 C 92.2500 % 2.55 C
3398 04-01-2019 14:00:00 4.71667 C 88.0833 % 2.92 C
3399 04-01-2019 15:00:00 4.69167 C 87.1667 % 2.74 C
3400 04-01-2019 16:00:00 4.7 C 86.2500 % 2.6 C
Sensor: Nr:Datum:Temp:Feuchte:Taupunkt:
Aussen-T/F 3401 04-01-2019 17:00:00 4.46667 C 86.6667 % 2.44 C
3402 04-01-2019 18:00:00 4.35 C 87.7500 % 2.5 C
3403 04-01-2019 19:00:00 4.35833 C 88.0000 % 2.55 C
3404 04-01-2019 20:00:00 4.34167 C 88.4167 % 2.6 C
3405 04-01-2019 21:00:00 4.325 C 89.1667 % 2.7 C
3406 04-01-2019 22:00:00 4.23333 C 91.2500 % 2.94 C
3407 04-01-2019 23:00:00 4.35 C 92.0000 % 3.17 C
3408 05-01-2019 00:00:00 4.45833 C 92.5833 % 3.36 C
3409 05-01-2019 01:00:00 4.26667 C 94.1667 % 3.41 C
3410 05-01-2019 02:00:00 4.225 C 95.0000 % 3.5 C
3411 05-01-2019 03:00:00 4.36667 C 95.9167 % 3.77 C
3412 05-01-2019 04:00:00 4.48333 C 96.0000 % 3.9 C
3413 05-01-2019 05:00:00 4.475 C 96.0000 % 3.89 C
3414 05-01-2019 06:00:00 4.41667 C 95.7500 % 3.8 C
3415 05-01-2019 07:00:00 4.86667 C 96.0000 % 4.28 C
3416 05-01-2019 08:00:00 5.96667 C 96.0000 % 5.38 C
3417 05-01-2019 09:00:00 6.71667 C 93.8333 % 5.8 C
3418 05-01-2019 10:00:00 6.79167 C 93.9167 % 5.88 C
3419 05-01-2019 11:00:00 6.9 C 93.5556 % 5.93 C
3420 05-01-2019 12:00:00 6.95 C 93.0000 % 5.9 C
3421 05-01-2019 13:00:00 7.01667 C 93.0000 % 5.96 C
3422 05-01-2019 14:00:00 7.06667 C 93.0000 % 6.01 C
3423 05-01-2019 15:00:00 7 C 92.7500 % 5.91 C
3424 05-01-2019 16:00:00 6.9 C 91.4167 % 5.6 C
3425 05-01-2019 17:00:00 6.775 C 90.8333 % 5.39 C
Sensor: Nr:Datum:Temp:Feuchte:Taupunkt:
Aussen-T/F 3426 05-01-2019 18:00:00 6.61667 C 91.4167 % 5.32 C
3427 05-01-2019 19:00:00 6.58333 C 91.2500 % 5.26 C
3428 05-01-2019 20:00:00 6.55 C 91.1667 % 5.22 C
3429 05-01-2019 21:00:00 6.4 C 91.1667 % 5.07 C
3430 05-01-2019 22:00:00 6.38333 C 91.3333 % 5.08 C
3431 05-01-2019 23:00:00 6.3 C 92.1667 % 5.12 C
3432 06-01-2019 00:00:00 6.125 C 93.2500 % 5.12 C
3433 06-01-2019 01:00:00 5.9 C 94.0000 % 5.01 C
3434 06-01-2019 02:00:00 5.71667 C 93.6667 % 4.78 C
3435 06-01-2019 03:00:00 5.7 C 93.0000 % 4.66 C
3436 06-01-2019 04:00:00 5.725 C 93.0000 % 4.68 C
3437 06-01-2019 05:00:00 5.74167 C 93.0000 % 4.7 C
3438 06-01-2019 06:00:00 5.7 C 93.0000 % 4.66 C
3439 06-01-2019 07:00:00 5.7 C 93.0000 % 4.66 C
3440 06-01-2019 08:00:00 5.69167 C 92.8333 % 4.62 C
3441 06-01-2019 09:00:00 5.7 C 92.0000 % 4.5 C
3442 06-01-2019 10:00:00 5.79167 C 92.0000 % 4.6 C
3443 06-01-2019 11:00:00 5.975 C 91.1667 % 4.65 C
3444 06-01-2019 12:00:00 6.275 C 90.2500 % 4.8 C
3445 06-01-2019 13:00:00 6.325 C 90.0000 % 4.81 C
3446 06-01-2019 14:00:00 6.23333 C 90.7500 % 4.84 C
3447 06-01-2019 15:00:00 6.125 C 90.2500 % 4.65 C
3448 06-01-2019 16:00:00 6.025 C 90.1667 % 4.54 C
3449 06-01-2019 17:00:00 5.81667 C 90.7500 % 4.42 C
3450 06-01-2019 18:00:00 5.56667 C 91.0000 % 4.22 C
Sensor: Nr:Datum:Temp:Feuchte:Taupunkt:
Aussen-T/F 3451 06-01-2019 19:00:00 5.29167 C 91.0833 % 3.96 C
3452 06-01-2019 20:00:00 5.25 C 91.1667 % 3.93 C
3453 06-01-2019 21:00:00 5.35833 C 91.0000 % 4.01 C
3454 06-01-2019 22:00:00 5.38333 C 91.0000 % 4.04 C
3455 06-01-2019 23:00:00 5.35 C 91.0833 % 4.02 C
3456 07-01-2019 00:00:00 5.38333 C 91.0000 % 4.04 C
3457 07-01-2019 01:00:00 5.25833 C 91.0000 % 3.91 C
3458 07-01-2019 02:00:00 5.2 C 91.0000 % 3.85 C
3459 07-01-2019 03:00:00 5.2 C 91.3333 % 3.91 C
3460 07-01-2019 04:00:00 5.10833 C 91.5000 % 3.84 C
3461 07-01-2019 05:00:00 4.96667 C 91.0833 % 3.64 C
3462 07-01-2019 06:00:00 4.825 C 92.0000 % 3.64 C
3463 07-01-2019 07:00:00 4.64167 C 91.6667 % 3.41 C
3464 07-01-2019 08:00:00 4.38333 C 92.4167 % 3.26 C
3465 07-01-2019 09:00:00 4.39167 C 93.0000 % 3.36 C
3466 07-01-2019 10:00:00 4.55833 C 93.0833 % 3.54 C
3467 07-01-2019 11:00:00 4.99167 C 91.4167 % 3.71 C
3468 07-01-2019 12:00:00 5.975 C 86.5000 % 3.9 C
3469 07-01-2019 13:00:00 6.70833 C 83.4167 % 4.1 C
3470 07-01-2019 14:00:00 6.95 C 82.6667 % 4.21 C
3471 07-01-2019 15:00:00 6.85 C 83.1667 % 4.2 C
3472 07-01-2019 16:00:00 6.25833 C 86.3333 % 4.15 C
3473 07-01-2019 17:00:00 5.75 C 88.1667 % 3.95 C
3474 07-01-2019 18:00:00 5.48333 C 88.7500 % 3.78 C
3475 07-01-2019 19:00:00 5.55833 C 89.0000 % 3.89 C
Sensor: Nr:Datum:Temp:Feuchte:Taupunkt:
Aussen-T/F 3476 07-01-2019 20:00:00 5.94167 C 89.7500 % 4.39 C
3477 07-01-2019 21:00:00 5.86667 C 92.0833 % 4.68 C
3478 07-01-2019 22:00:00 5.83333 C 93.3333 % 4.84 C
3479 07-01-2019 23:00:00 6.01667 C 93.5000 % 5.05 C
3480 08-01-2019 00:00:00 6.28333 C 93.0833 % 5.25 C
3481 08-01-2019 01:00:00 6.61667 C 92.5833 % 5.5 C
3482 08-01-2019 02:00:00 6.73333 C 94.0833 % 5.85 C
3483 08-01-2019 03:00:00 6.875 C 95.0000 % 6.13 C
3484 08-01-2019 04:00:00 7 C 92.5833 % 5.88 C
3485 08-01-2019 05:00:00 7.1 C 87.5833 % 5.18 C
3486 08-01-2019 06:00:00 7.3 C 83.4167 % 4.68 C
3487 08-01-2019 07:00:00 7.2 C 82.3333 % 4.4 C
3488 08-01-2019 08:00:00 6.86667 C 81.0833 % 3.85 C
3489 08-01-2019 09:00:00 6.78333 C 81.6667 % 3.87 C
3490 08-01-2019 10:00:00 6.25833 C 88.4167 % 4.49 C
3491 08-01-2019 11:00:00 6.85 C 84.8333 % 4.48 C
3492 08-01-2019 12:00:00 6.99167 C 84.8333 % 4.62 C
3493 08-01-2019 13:00:00 7.475 C 81.6667 % 4.55 C
3494 08-01-2019 14:00:00 7.45833 C 80.9167 % 4.4 C
3495 08-01-2019 15:00:00 7.075 C 84.3333 % 4.62 C
3496 08-01-2019 16:00:00 5.88333 C 89.6667 % 4.32 C
3497 08-01-2019 17:00:00 6.03333 C 88.5000 % 4.28 C
3498 08-01-2019 18:00:00 6.16667 C 85.8333 % 3.98 C
3499 08-01-2019 19:00:00 6.33333 C 82.4167 % 3.56 C
3500 08-01-2019 20:00:00 6.28333 C 80.4167 % 3.17 C
Sensor: Nr:Datum:Temp:Feuchte:Taupunkt:
Aussen-T/F 3501 08-01-2019 21:00:00 5.775 C 83.6667 % 3.23 C
3502 08-01-2019 22:00:00 6.08333 C 80.7500 % 3.03 C
3503 08-01-2019 23:00:00 5.50833 C 83.5833 % 2.96 C
3504 09-01-2019 00:00:00 5.11667 C 86.7500 % 3.1 C
3505 09-01-2019 01:00:00 4.9 C 88.2500 % 3.12 C
3506 09-01-2019 02:00:00 4.33333 C 90.6667 % 2.95 C
3507 09-01-2019 03:00:00 3.75 C 92.8333 % 2.7 C
3508 09-01-2019 04:00:00 4.05833 C 91.5000 % 2.8 C
3509 09-01-2019 05:00:00 3.4 C 91.5833 % 2.16 C
3510 09-01-2019 06:00:00 3.10833 C 94.0000 % 2.24 C
3511 09-01-2019 07:00:00 3.05833 C 93.0000 % 2.04 C
3512 09-01-2019 08:00:00 2.68333 C 93.5000 % 1.74 C
3513 09-01-2019 09:00:00 2.375 C 93.8333 % 1.49 C
3514 09-01-2019 10:00:00 3.09167 C 93.5000 % 2.15 C
3515 09-01-2019 11:00:00 4 C 87.7500 % 2.16 C
3516 09-01-2019 12:00:00 4.4 C 83.9167 % 1.93 C
3517 09-01-2019 13:00:00 4.64167 C 80.3333 % 1.55 C
3518 09-01-2019 14:00:00 4.775 C 77.0833 % 1.11 C
3519 09-01-2019 15:00:00 4.8 C 74.3333 % 0.63 C
3520 09-01-2019 16:00:00 4.55833 C 74.0000 % 0.34 C
3521 09-01-2019 17:00:00 4.3 C 74.5833 % 0.19 C
3522 09-01-2019 18:00:00 4.275 C 73.3333 % -0.06 C
3523 09-01-2019 19:00:00 4.15 C 74.8333 % 0.1 C
3524 09-01-2019 20:00:00 3.93333 C 76.0000 % 0.1 C
3525 09-01-2019 21:00:00 3.64167 C 73.9167 % -0.57 C
Sensor: Nr:Datum:Temp:Feuchte:Taupunkt:
Aussen-T/F 3526 09-01-2019 22:00:00 3.26667 C 76.0833 % -0.53 C
3527 09-01-2019 23:00:00 3.1 C 76.5000 % -0.62 C
3528 10-01-2019 00:00:00 3.00833 C 76.8333 % -0.65 C
3529 10-01-2019 01:00:00 2.775 C 77.5833 % -0.74 C
3530 10-01-2019 02:00:00 2.65 C 78.0000 % -0.79 C
3531 10-01-2019 03:00:00 2.475 C 79.4167 % -0.72 C
3532 10-01-2019 04:00:00 2.325 C 80.0000 % -0.76 C
3533 10-01-2019 05:00:00 2.15833 C 80.8333 % -0.78 C
3534 10-01-2019 06:00:00 2.04167 C 82.4167 % -0.63 C
3535 10-01-2019 07:00:00 1.75 C 84.0000 % -0.66 C
3536 10-01-2019 08:00:00 1.59167 C 85.6667 % -0.54 C
3537 10-01-2019 09:00:00 1.80833 C 85.2500 % -0.4 C
3538 10-01-2019 10:00:00 1.99167 C 86.1667 % -0.07 C
3539 10-01-2019 11:00:00 2.18333 C 85.9167 % 0.08 C
3540 10-01-2019 12:00:00 2.20833 C 85.7500 % 0.08 C
3541 10-01-2019 13:00:00 2.525 C 80.1667 % -0.54 C
3542 10-01-2019 14:00:00 2.875 C 78.1667 % -0.54 C
3543 10-01-2019 15:00:00 2.875 C 78.5000 % -0.48 C
3544 10-01-2019 16:00:00 2.59167 C 80.1667 % -0.47 C
3545 10-01-2019 17:00:00 2.15833 C 83.4167 % -0.35 C
3546 10-01-2019 18:00:00 1.85833 C 86.1667 % -0.2 C
3547 10-01-2019 19:00:00 1.29167 C 88.7500 % -0.35 C
3548 10-01-2019 20:00:00 1.03333 C 90.8333 % -0.29 C
3549 10-01-2019 21:00:00 1.04167 C 91.6667 % -0.16 C
3550 10-01-2019 22:00:00 1.1 C 92.0000 % -0.05 C
Sensor: Nr:Datum:Temp:Feuchte:Taupunkt:
Aussen-T/F 3551 10-01-2019 23:00:00 1.05 C 92.8333 % 0.02 C
3552 11-01-2019 00:00:00 1.1 C 92.9167 % 0.09 C
3553 11-01-2019 01:00:00 1.23333 C 91.5000 % 0.01 C
3554 11-01-2019 02:00:00 1.14167 C 91.5833 % -0.07 C
3555 11-01-2019 03:00:00 0.85 C 92.4167 % -0.24 C
3556 11-01-2019 04:00:00 0.85833 C 93.5833 % -0.06 C
3557 11-01-2019 05:00:00 0.9 C 94.0000 % 0.05 C
3558 11-01-2019 06:00:00 0.93333 C 94.5833 % 0.16 C
3559 11-01-2019 07:00:00 1.21667 C 95.0000 % 0.51 C
3560 11-01-2019 08:00:00 1.4 C 94.2500 % 0.58 C
3561 11-01-2019 09:00:00 1.70833 C 94.0000 % 0.85 C
3562 11-01-2019 10:00:00 1.93333 C 93.8333 % 1.05 C
3563 11-01-2019 11:00:00 2.20833 C 94.0000 % 1.35 C
3564 11-01-2019 12:00:00 2.45 C 94.4167 % 1.65 C
3565 11-01-2019 13:00:00 2.675 C 95.0833 % 1.97 C
3566 11-01-2019 14:00:00 3.075 C 96.0000 % 2.5 C
3567 11-01-2019 15:00:00 3.35 C 95.9167 % 2.76 C
3568 11-01-2019 16:00:00 3.61667 C 96.0000 % 3.04 C
3569 11-01-2019 17:00:00 3.81667 C 96.0000 % 3.24 C
3570 11-01-2019 18:00:00 4.18333 C 96.4167 % 3.67 C
3571 11-01-2019 19:00:00 4.575 C 96.9167 % 4.13 C
3572 11-01-2019 20:00:00 5.225 C 97.0000 % 4.79 C
3573 11-01-2019 21:00:00 6.28333 C 97.0000 % 5.84 C
3574 11-01-2019 22:00:00 6.48333 C 96.5000 % 5.97 C
3575 11-01-2019 23:00:00 6.66667 C 96.0000 % 6.08 C
Sensor: Nr:Datum:Temp:Feuchte:Taupunkt:
Aussen-T/F 3576 12-01-2019 00:00:00 6.60833 C 96.0000 % 6.02 C
3577 12-01-2019 01:00:00 6.56364 C 96.0000 % 5.97 C
3578 12-01-2019 07:00:00 5.1 C 94.0000 % 4.22 C
3579 12-01-2019 08:00:00 4.98333 C 94.5833 % 4.19 C
3580 12-01-2019 09:00:00 4.9 C 95.0000 % 4.17 C
3581 12-01-2019 11:00:00 5.9 C 89.0000 % 4.23 C
3582 12-01-2019 12:00:00 5.875 C 88.0833 % 4.06 C
3583 12-01-2019 13:00:00 5.9 C 87.5833 % 4 C
3584 12-01-2019 14:00:00 6.06667 C 88.3333 % 4.29 C
3585 12-01-2019 15:00:00 6.20833 C 89.7500 % 4.65 C
3586 12-01-2019 16:00:00 6.05833 C 91.1667 % 4.73 C
3587 12-01-2019 17:00:00 5.89167 C 92.3333 % 4.75 C
3588 12-01-2019 18:00:00 5.88333 C 93.0833 % 4.85 C
3589 12-01-2019 19:00:00 5.90833 C 94.5833 % 5.11 C
3590 12-01-2019 20:00:00 5.9 C 95.5000 % 5.24 C
3591 12-01-2019 21:00:00 5.94167 C 96.0000 % 5.35 C
3592 12-01-2019 22:00:00 6.18333 C 95.5833 % 5.53 C
3593 12-01-2019 23:00:00 6.2 C 95.8333 % 5.59 C
3594 13-01-2019 00:00:00 6.16667 C 96.0000 % 5.58 C
3595 13-01-2019 01:00:00 6.13333 C 96.0000 % 5.54 C
3596 13-01-2019 02:00:00 6.05833 C 96.0000 % 5.47 C
3597 13-01-2019 03:00:00 6.06667 C 96.0000 % 5.48 C
3598 13-01-2019 04:00:00 6.225 C 96.0000 % 5.64 C
3599 13-01-2019 05:00:00 6.49167 C 96.5000 % 5.98 C
3600 13-01-2019 06:00:00 6.8 C 96.0000 % 6.21 C
Sensor: Nr:Datum:Temp:Feuchte:Taupunkt:
Aussen-T/F 3601 13-01-2019 07:00:00 7.14167 C 94.8333 % 6.37 C
3602 13-01-2019 08:00:00 7.325 C 94.6667 % 6.53 C
3603 13-01-2019 09:00:00 7.38333 C 96.0000 % 6.79 C
3604 13-01-2019 10:00:00 7.675 C 96.0000 % 7.08 C
3605 13-01-2019 11:00:00 8.13333 C 96.0000 % 7.53 C
3606 13-01-2019 12:00:00 8.59167 C 96.2500 % 8.03 C
3607 13-01-2019 13:00:00 8.85833 C 95.9167 % 8.24 C
3608 13-01-2019 14:00:00 8.89167 C 96.0000 % 8.29 C
3609 13-01-2019 15:00:00 8.85 C 96.0000 % 8.25 C
3610 13-01-2019 16:00:00 8.86667 C 96.0000 % 8.26 C
3611 13-01-2019 17:00:00 8.99167 C 95.5000 % 8.31 C
3612 13-01-2019 18:00:00 9.25833 C 93.0833 % 8.2 C
3613 13-01-2019 19:00:00 9.50833 C 87.4167 % 7.53 C
3614 13-01-2019 20:00:00 9.30833 C 85.4167 % 6.99 C
3615 13-01-2019 21:00:00 9.06667 C 84.8333 % 6.65 C
3616 13-01-2019 22:00:00 7.19167 C 90.5000 % 5.74 C
3617 13-01-2019 23:00:00 6.70833 C 92.6667 % 5.61 C
3618 14-01-2019 00:00:00 7.325 C 87.7500 % 5.43 C
3619 14-01-2019 01:00:00 7.06667 C 87.5833 % 5.15 C
3620 14-01-2019 02:00:00 7.425 C 84.0833 % 4.92 C
3621 14-01-2019 03:00:00 6.59167 C 86.8333 % 4.56 C
3622 14-01-2019 04:00:00 6.71667 C 86.8333 % 4.68 C
3623 14-01-2019 05:00:00 7.1 C 85.2500 % 4.8 C
3624 14-01-2019 06:00:00 6.725 C 87.1667 % 4.75 C
3625 14-01-2019 07:00:00 6.33333 C 88.5000 % 4.58 C
Sensor: Nr:Datum:Temp:Feuchte:Taupunkt:
Aussen-T/F 3626 14-01-2019 08:00:00 6.23333 C 89.5000 % 4.64 C
3627 14-01-2019 09:00:00 6.425 C 88.9167 % 4.73 C
3628 14-01-2019 10:00:00 6.4 C 89.0000 % 4.72 C
3629 14-01-2019 11:00:00 4.40833 C 92.0000 % 3.23 C
3630 14-01-2019 12:00:00 4.70833 C 92.0000 % 3.52 C
3631 14-01-2019 13:00:00 5.36667 C 89.1667 % 3.73 C
3632 14-01-2019 14:00:00 4.33333 C 88.5833 % 2.62 C
3633 14-01-2019 15:00:00 4.05 C 90.3333 % 2.61 C
3634 14-01-2019 16:00:00 3.76667 C 90.4167 % 2.35 C
3635 14-01-2019 17:00:00 2.725 C 92.2500 % 1.6 C
3636 14-01-2019 18:00:00 2.75833 C 93.3333 % 1.79 C
3637 14-01-2019 19:00:00 2.74167 C 92.9167 % 1.71 C
3638 14-01-2019 20:00:00 2.39167 C 94.0000 % 1.53 C
3639 14-01-2019 21:00:00 3.01667 C 93.0000 % 2 C
3640 14-01-2019 22:00:00 3.59167 C 89.9167 % 2.1 C
3641 14-01-2019 23:00:00 3.5 C 90.1667 % 2.04 C
3642 15-01-2019 00:00:00 3.3 C 91.0000 % 1.98 C
3643 15-01-2019 01:00:00 3.25 C 90.2500 % 1.81 C
3644 15-01-2019 02:00:00 2.94167 C 90.3333 % 1.52 C
3645 15-01-2019 03:00:00 2.95 C 91.0000 % 1.63 C
3646 15-01-2019 04:00:00 2.625 C 91.9167 % 1.45 C
3647 15-01-2019 05:00:00 2.825 C 92.4167 % 1.72 C
3648 15-01-2019 06:00:00 2.81667 C 92.4167 % 1.71 C
3649 15-01-2019 07:00:00 2.89167 C 93.0000 % 1.87 C
3650 15-01-2019 08:00:00 3.49167 C 91.5833 % 2.25 C
Sensor: Nr:Datum:Temp:Feuchte:Taupunkt:
Aussen-T/F 3651 15-01-2019 09:00:00 3.98333 C 91.0000 % 2.65 C
3652 15-01-2019 10:00:00 4.75 C 89.4167 % 3.16 C
3653 15-01-2019 11:00:00 5.35 C 88.7500 % 3.65 C
3654 15-01-2019 12:00:00 6.04167 C 87.0000 % 4.05 C
3655 15-01-2019 13:00:00 6.65833 C 84.5833 % 4.25 C
3656 15-01-2019 14:00:00 6.79167 C 83.8333 % 4.25 C
3657 15-01-2019 15:00:00 6.68333 C 84.0833 % 4.19 C
3658 15-01-2019 16:00:00 6.475 C 84.9167 % 4.13 C
3659 15-01-2019 17:00:00 6.38333 C 85.0000 % 4.05 C
3660 15-01-2019 18:00:00 6.65 C 83.2500 % 4.02 C
3661 15-01-2019 19:00:00 6.24167 C 86.5000 % 4.16 C
3662 15-01-2019 20:00:00 5.675 C 90.7500 % 4.28 C
3663 15-01-2019 21:00:00 5.35833 C 91.8333 % 4.14 C
3664 15-01-2019 22:00:00 5.33333 C 91.8333 % 4.12 C
3665 15-01-2019 23:00:00 5.45833 C 91.7500 % 4.23 C
3666 16-01-2019 00:00:00 5.23333 C 93.0833 % 4.21 C
3667 16-01-2019 01:00:00 5.2 C 94.6667 % 4.42 C
3668 16-01-2019 02:00:00 5.275 C 94.3333 % 4.44 C
3669 16-01-2019 03:00:00 5.44167 C 91.3333 % 4.15 C
3670 16-01-2019 04:00:00 5.5 C 88.3333 % 3.73 C
3671 16-01-2019 05:00:00 5.575 C 86.7500 % 3.55 C
3672 16-01-2019 06:00:00 5.66667 C 85.3333 % 3.4 C
3673 16-01-2019 07:00:00 5.51667 C 84.5833 % 3.13 C
3674 16-01-2019 08:00:00 5.31667 C 83.5000 % 2.75 C
3675 16-01-2019 09:00:00 5.2 C 83.0000 % 2.56 C
Sensor: Nr:Datum:Temp:Feuchte:Taupunkt:
Aussen-T/F 3676 16-01-2019 10:00:00 5.2 C 83.0833 % 2.57 C
3677 16-01-2019 11:00:00 5.225 C 82.5000 % 2.49 C
3678 16-01-2019 12:00:00 5.50833 C 81.5000 % 2.6 C
3679 16-01-2019 13:00:00 5.9 C 80.4167 % 2.79 C
3680 16-01-2019 14:00:00 6.35833 C 79.0833 % 3.01 C
3681 16-01-2019 15:00:00 6.18333 C 79.9167 % 2.98 C
3682 16-01-2019 16:00:00 5 C 85.8333 % 2.83 C
3683 16-01-2019 17:00:00 3.75 C 90.4167 % 2.33 C
3684 16-01-2019 18:00:00 3.475 C 91.0000 % 2.15 C
3685 16-01-2019 19:00:00 4.29167 C 87.0833 % 2.34 C
3686 16-01-2019 20:00:00 4.88333 C 83.9167 % 2.4 C
3687 16-01-2019 21:00:00 5.55833 C 81.1667 % 2.59 C
3688 16-01-2019 22:00:00 5.64167 C 80.6667 % 2.59 C
3689 16-01-2019 23:00:00 5.625 C 80.1667 % 2.48 C
3690 17-01-2019 00:00:00 5.54167 C 81.7500 % 2.68 C
3691 17-01-2019 01:00:00 5.84167 C 81.0000 % 2.84 C
3692 17-01-2019 02:00:00 5.94167 C 83.5000 % 3.37 C
3693 17-01-2019 03:00:00 5.91667 C 86.6667 % 3.87 C
3694 17-01-2019 04:00:00 6.09167 C 88.5833 % 4.35 C
3695 17-01-2019 05:00:00 6.025 C 90.3333 % 4.57 C
3696 17-01-2019 06:00:00 5.85833 C 91.6667 % 4.61 C
3697 17-01-2019 07:00:00 5.68333 C 92.0000 % 4.49 C
3698 17-01-2019 08:00:00 5.61667 C 91.9167 % 4.41 C
3699 17-01-2019 09:00:00 5.7 C 90.9167 % 4.34 C
3700 17-01-2019 10:00:00 6.3 C 86.5833 % 4.23 C
Sensor: Nr:Datum:Temp:Feuchte:Taupunkt:
Aussen-T/F 3701 17-01-2019 11:00:00 6.68333 C 83.6667 % 4.12 C
3702 17-01-2019 12:00:00 7.13333 C 82.6667 % 4.39 C
3703 17-01-2019 13:00:00 7.225 C 81.6667 % 4.31 C
3704 17-01-2019 14:00:00 6.24167 C 85.1667 % 3.94 C
3705 17-01-2019 15:00:00 4.88333 C 90.0833 % 3.4 C
3706 17-01-2019 16:00:00 4.80833 C 87.0000 % 2.83 C
3707 17-01-2019 17:00:00 2.9 C 92.0833 % 1.74 C
3708 17-01-2019 18:00:00 2.71667 C 92.5000 % 1.63 C
3709 17-01-2019 19:00:00 2.36667 C 90.0833 % 0.91 C
3710 17-01-2019 20:00:00 2.375 C 88.3333 % 0.65 C
3711 17-01-2019 21:00:00 2.69167 C 86.2500 % 0.63 C
3712 17-01-2019 22:00:00 2.7 C 87.7500 % 0.88 C
3713 17-01-2019 23:00:00 2.91667 C 85.2500 % 0.69 C
3714 18-01-2019 00:00:00 2.49167 C 87.7500 % 0.67 C
3715 18-01-2019 01:00:00 2.125 C 88.4167 % 0.42 C
3716 18-01-2019 02:00:00 2.21667 C 87.7500 % 0.4 C
3717 18-01-2019 03:00:00 1.95833 C 90.5000 % 0.57 C
3718 18-01-2019 04:00:00 1.725 C 92.9167 % 0.71 C
3719 18-01-2019 05:00:00 1.95833 C 91.6667 % 0.75 C
3720 18-01-2019 06:00:00 1.56667 C 93.0833 % 0.57 C
3721 18-01-2019 07:00:00 0.94167 C 93.7500 % 0.05 C
3722 18-01-2019 08:00:00 0.275 C 94.0000 % -0.57 C
3723 18-01-2019 09:00:00 0.00833 C 94.9167 % -0.71 C
3724 18-01-2019 10:00:00 0.08333 C 95.1667 % -0.6 C
3725 18-01-2019 11:00:00 0.91667 C 95.9167 % 0.34 C
Sensor: Nr:Datum:Temp:Feuchte:Taupunkt:
Aussen-T/F 3726 18-01-2019 12:00:00 1.58333 C 94.6667 % 0.82 C
3727 18-01-2019 13:00:00 1.85 C 90.5000 % 0.46 C
3728 18-01-2019 14:00:00 1.94167 C 88.4167 % 0.23 C
3729 18-01-2019 15:00:00 1.13333 C 90.2500 % -0.28 C
3730 18-01-2019 16:00:00 0.83333 C 90.2500 % -0.58 C
3731 18-01-2019 17:00:00 0.225 C 90.0833 % -1.2 C
3732 18-01-2019 18:00:00 -0.25 C 90.7500 % -1.57 C
3733 18-01-2019 19:00:00 -0.65833 C 92.0000 % -1.79 C
3734 18-01-2019 20:00:00 -0.85 C 92.9167 % -1.85 C
3735 18-01-2019 21:00:00 -1 C 93.0000 % -1.99 C
3736 18-01-2019 22:00:00 -1.05 C 93.0000 % -2.04 C
3737 18-01-2019 23:00:00 -1.40833 C 93.0000 % -2.39 C
3738 19-01-2019 00:00:00 -2.00833 C 93.0833 % -2.97 C
3739 19-01-2019 01:00:00 -2.58333 C 93.8333 % -3.44 C
3740 19-01-2019 02:00:00 -2.9 C 94.0000 % -3.73 C
3741 19-01-2019 03:00:00 -3.23333 C 94.6667 % -3.96 C
3742 19-01-2019 04:00:00 -3.575 C 94.9167 % -4.27 C
3743 19-01-2019 05:00:00 -3.85 C 95.0000 % -4.53 C
3744 19-01-2019 06:00:00 -4.05833 C 95.0000 % -4.74 C
3745 19-01-2019 07:00:00 -4.50833 C 95.0000 % -5.19 C
3746 19-01-2019 08:00:00 -4.78333 C 95.0000 % -5.46 C
3747 19-01-2019 09:00:00 -4.58333 C 95.0000 % -5.26 C
3748 19-01-2019 10:00:00 -3.86667 C 95.5833 % -4.47 C
3749 19-01-2019 11:00:00 -2.76667 C 96.0000 % -3.31 C
3750 19-01-2019 12:00:00 -2.23333 C 96.0000 % -2.78 C
Sensor: Nr:Datum:Temp:Feuchte:Taupunkt:
Aussen-T/F 3751 19-01-2019 13:00:00 -1.35833 C 96.0000 % -1.91 C
3752 19-01-2019 14:00:00 -0.20833 C 95.4167 % -0.85 C
3753 19-01-2019 15:00:00 0.08333 C 94.0833 % -0.75 C
3754 19-01-2019 16:00:00 -0.08333 C 92.1667 % -1.2 C
3755 19-01-2019 17:00:00 -1.06667 C 89.3333 % -2.59 C
3756 19-01-2019 18:00:00 -1.75 C 89.0833 % -3.31 C
3757 19-01-2019 19:00:00 -2.44167 C 89.0833 % -3.99 C
3758 19-01-2019 20:00:00 -2.69167 C 89.9167 % -4.11 C
3759 19-01-2019 21:00:00 -2.85833 C 89.8333 % -4.29 C
3760 19-01-2019 22:00:00 -3.75 C 90.3333 % -5.1 C
3761 19-01-2019 23:00:00 -4.3 C 91.5833 % -5.46 C
3762 20-01-2019 00:00:00 -4.73333 C 92.3333 % -5.78 C
3763 20-01-2019 01:00:00 -5.29167 C 92.8333 % -6.27 C
3764 20-01-2019 02:00:00 -5.63333 C 93.0000 % -6.58 C
3765 20-01-2019 03:00:00 -5.825 C 93.2500 % -6.74 C
3766 20-01-2019 04:00:00 -6.24167 C 93.0000 % -7.18 C
3767 20-01-2019 05:00:00 -6.625 C 93.2500 % -7.53 C
3768 20-01-2019 06:00:00 -6.8 C 93.4167 % -7.68 C
3769 20-01-2019 07:00:00 -7.05 C